<?xml version="1.0" encoding="UTF-8" standalone="no" ?>
<gpx xmlns="http://www.topografix.com/GPX/1/1" xmlns:xsi="http://www.w3.org/2001/XMLSchema-instance" xsi:schemaLocation="http://www.topografix.com/GPX/1/1 http://www.topografix.com/GPX/1/1/gpx.xsd" version="1.1" creator="VisuGPX - https://www.visugpx.com">
  <metadata>
    <name>VTTAE 72 1033 LYON Francheville </name>
  </metadata>
  <trk>
    <name><![CDATA[VTTAE 72 1033 Francheville NOUVEAU  travers LYON et place Bellecour]]></name>
    <trkseg>
      <trkpt lat="45.69904" lon="4.95096">
        <ele>218.2</ele>
        <time>2010-01-01T00:09:43Z</time>
      </trkpt>
      <trkpt lat="45.69999" lon="4.95087">
        <ele>222.1</ele>
        <time>2010-01-01T00:09:43Z</time>
      </trkpt>
      <trkpt lat="45.70065" lon="4.94972">
        <ele>220.1</ele>
        <time>2010-01-01T00:09:43Z</time>
      </trkpt>
      <trkpt lat="45.70105" lon="4.94878">
        <ele>221.7</ele>
        <time>2010-01-01T00:09:43Z</time>
      </trkpt>
      <trkpt lat="45.70178" lon="4.94937">
        <ele>218.6</ele>
        <time>2010-01-01T00:09:43Z</time>
      </trkpt>
      <trkpt lat="45.70272" lon="4.94986">
        <ele>219.8</ele>
        <time>2010-01-01T00:09:43Z</time>
      </trkpt>
      <trkpt lat="45.70391" lon="4.94995">
        <ele>217.9</ele>
        <time>2010-01-01T00:09:43Z</time>
      </trkpt>
      <trkpt lat="45.70479" lon="4.94999">
        <ele>214.8</ele>
        <time>2010-01-01T00:09:43Z</time>
      </trkpt>
      <trkpt lat="45.70556" lon="4.95017">
        <ele>212.7</ele>
        <time>2010-01-01T00:09:43Z</time>
      </trkpt>
      <trkpt lat="45.70588" lon="4.95028">
        <ele>212.2</ele>
        <time>2010-01-01T00:09:43Z</time>
      </trkpt>
      <trkpt lat="45.70701" lon="4.94981">
        <ele>214.5</ele>
        <time>2010-01-01T00:09:43Z</time>
      </trkpt>
      <trkpt lat="45.70846" lon="4.94959">
        <ele>211.3</ele>
        <time>2010-01-01T00:09:43Z</time>
      </trkpt>
      <trkpt lat="45.70908" lon="4.9495">
        <ele>207.3</ele>
        <time>2010-01-01T00:09:43Z</time>
      </trkpt>
      <trkpt lat="45.70905" lon="4.94851">
        <ele>208.1</ele>
        <time>2010-01-01T00:09:43Z</time>
      </trkpt>
      <trkpt lat="45.70889" lon="4.94708">
        <ele>215</ele>
        <time>2010-01-01T00:09:43Z</time>
      </trkpt>
      <trkpt lat="45.70883" lon="4.94564">
        <ele>215.1</ele>
        <time>2010-01-01T00:09:43Z</time>
      </trkpt>
      <trkpt lat="45.70968" lon="4.94523">
        <ele>209</ele>
        <time>2010-01-01T00:09:43Z</time>
      </trkpt>
      <trkpt lat="45.71046" lon="4.94474">
        <ele>205.4</ele>
        <time>2010-01-01T00:09:43Z</time>
      </trkpt>
      <trkpt lat="45.71128" lon="4.94411">
        <ele>205.5</ele>
        <time>2010-01-01T00:09:43Z</time>
      </trkpt>
      <trkpt lat="45.71103" lon="4.94285">
        <ele>206.9</ele>
        <time>2010-01-01T00:09:43Z</time>
      </trkpt>
      <trkpt lat="45.71053" lon="4.94012">
        <ele>212</ele>
        <time>2010-01-01T00:09:43Z</time>
      </trkpt>
      <trkpt lat="45.71184" lon="4.93989">
        <ele>213</ele>
        <time>2010-01-01T00:09:43Z</time>
      </trkpt>
      <trkpt lat="45.7136" lon="4.93935">
        <ele>211.7</ele>
        <time>2010-01-01T00:09:43Z</time>
      </trkpt>
      <trkpt lat="45.71517" lon="4.9389">
        <ele>208.3</ele>
        <time>2010-01-01T00:09:43Z</time>
      </trkpt>
      <trkpt lat="45.71544" lon="4.93882">
        <ele>207.4</ele>
      </trkpt>
      <trkpt lat="45.71695" lon="4.93774">
        <ele>205.5</ele>
        <time>2010-01-01T00:09:43Z</time>
      </trkpt>
      <trkpt lat="45.71721" lon="4.93751">
        <ele>205</ele>
      </trkpt>
      <trkpt lat="45.71792" lon="4.93715">
        <ele>201.8</ele>
        <time>2010-01-01T00:09:43Z</time>
      </trkpt>
      <trkpt lat="45.71843" lon="4.93666">
        <ele>202.5</ele>
      </trkpt>
      <trkpt lat="45.71883" lon="4.93607">
        <ele>203.4</ele>
        <time>2010-01-01T00:09:43Z</time>
      </trkpt>
      <trkpt lat="45.71915" lon="4.93525">
        <ele>200.8</ele>
        <time>2010-01-01T00:09:43Z</time>
      </trkpt>
      <trkpt lat="45.71904" lon="4.93496">
        <ele>201.3</ele>
      </trkpt>
      <trkpt lat="45.71908" lon="4.93459">
        <ele>201.5</ele>
      </trkpt>
      <trkpt lat="45.71917" lon="4.93436">
        <ele>201.6</ele>
      </trkpt>
      <trkpt lat="45.71934" lon="4.93415">
        <ele>201.8</ele>
      </trkpt>
      <trkpt lat="45.71938" lon="4.93351">
        <ele>201.6</ele>
      </trkpt>
      <trkpt lat="45.71951" lon="4.93236">
        <ele>201</ele>
      </trkpt>
      <trkpt lat="45.71967" lon="4.93208">
        <ele>202.4</ele>
        <time>2010-01-01T00:09:43Z</time>
      </trkpt>
      <trkpt lat="45.71993" lon="4.93245">
        <ele>204.4</ele>
      </trkpt>
      <trkpt lat="45.71996" lon="4.93267">
        <ele>204.3</ele>
      </trkpt>
      <trkpt lat="45.72016" lon="4.93286">
        <ele>203.5</ele>
      </trkpt>
      <trkpt lat="45.72035" lon="4.93289">
        <ele>202.6</ele>
      </trkpt>
      <trkpt lat="45.72059" lon="4.9332">
        <ele>201.1</ele>
      </trkpt>
      <trkpt lat="45.72083" lon="4.93342">
        <ele>200.3</ele>
        <time>2010-01-01T00:09:43Z</time>
      </trkpt>
      <trkpt lat="45.72117" lon="4.93378">
        <ele>200.8</ele>
      </trkpt>
      <trkpt lat="45.7216" lon="4.93422">
        <ele>200.4</ele>
        <time>2010-01-01T00:09:43Z</time>
      </trkpt>
      <trkpt lat="45.72195" lon="4.93454">
        <ele>200.8</ele>
      </trkpt>
      <trkpt lat="45.72226" lon="4.93491">
        <ele>200.9</ele>
      </trkpt>
      <trkpt lat="45.72265" lon="4.93536">
        <ele>200.3</ele>
        <time>2010-01-01T00:09:43Z</time>
      </trkpt>
      <trkpt lat="45.72288" lon="4.93561">
        <ele>199.8</ele>
      </trkpt>
      <trkpt lat="45.72332" lon="4.93592">
        <ele>198.3</ele>
      </trkpt>
      <trkpt lat="45.72368" lon="4.93606">
        <ele>198.3</ele>
      </trkpt>
      <trkpt lat="45.724" lon="4.9361">
        <ele>197.9</ele>
        <time>2010-01-01T00:09:43Z</time>
      </trkpt>
      <trkpt lat="45.7243" lon="4.93608">
        <ele>197.7</ele>
      </trkpt>
      <trkpt lat="45.7246" lon="4.93606">
        <ele>197.8</ele>
      </trkpt>
      <trkpt lat="45.72476" lon="4.93549">
        <ele>198.2</ele>
        <time>2010-01-01T00:09:43Z</time>
      </trkpt>
      <trkpt lat="45.72623" lon="4.93131">
        <ele>196.6</ele>
        <time>2010-01-01T00:09:43Z</time>
      </trkpt>
      <trkpt lat="45.72777" lon="4.92646">
        <ele>204</ele>
        <time>2010-01-01T00:09:42Z</time>
      </trkpt>
      <trkpt lat="45.72921" lon="4.92226">
        <ele>217.3</ele>
        <time>2010-01-01T00:07:35Z</time>
      </trkpt>
      <trkpt lat="45.72999" lon="4.91997">
        <ele>215.8</ele>
        <time>2010-01-01T00:06:26Z</time>
      </trkpt>
      <trkpt lat="45.7305" lon="4.91843">
        <ele>208.8</ele>
        <time>2010-01-01T00:05:40Z</time>
      </trkpt>
      <trkpt lat="45.73111" lon="4.91655">
        <ele>207.2</ele>
        <time>2010-01-01T00:04:13Z</time>
      </trkpt>
      <trkpt lat="45.73223" lon="4.91309">
        <ele>201.4</ele>
        <time>2010-01-01T00:01:33Z</time>
      </trkpt>
      <trkpt lat="45.73293" lon="4.91096">
        <ele>204.3</ele>
        <time>2009-12-31T23:59:55Z</time>
      </trkpt>
      <trkpt lat="45.73373" lon="4.90866">
        <ele>205.6</ele>
        <time>2009-12-31T23:58:07Z</time>
      </trkpt>
      <trkpt lat="45.7341" lon="4.90756">
        <ele>205.9</ele>
        <time>2009-12-31T23:57:17Z</time>
      </trkpt>
      <trkpt lat="45.73475" lon="4.90546">
        <ele>200.4</ele>
        <time>2009-12-31T23:52:57Z</time>
      </trkpt>
      <trkpt lat="45.73492" lon="4.90475">
        <ele>199.6</ele>
        <time>2009-12-31T23:51:32Z</time>
      </trkpt>
      <trkpt lat="45.73526" lon="4.90385">
        <ele>201.1</ele>
        <time>2009-12-31T23:49:37Z</time>
      </trkpt>
      <trkpt lat="45.73577" lon="4.90244">
        <ele>206.4</ele>
        <time>2009-12-31T23:46:38Z</time>
      </trkpt>
      <trkpt lat="45.73625" lon="4.90108">
        <ele>201.7</ele>
        <time>2009-12-31T23:43:46Z</time>
      </trkpt>
      <trkpt lat="45.73742" lon="4.89768">
        <ele>202.9</ele>
        <time>2009-12-31T23:36:39Z</time>
      </trkpt>
      <trkpt lat="45.73841" lon="4.89455">
        <ele>201.8</ele>
        <time>2009-12-31T23:10:06Z</time>
      </trkpt>
      <trkpt lat="45.73911" lon="4.89233">
        <ele>202.7</ele>
        <time>2009-12-31T22:51:11Z</time>
      </trkpt>
      <trkpt lat="45.73966" lon="4.89055">
        <ele>205.3</ele>
        <time>2009-12-31T22:38:56Z</time>
      </trkpt>
      <trkpt lat="45.73967" lon="4.89055">
        <ele>205.3</ele>
        <time>2009-12-31T22:38:46Z</time>
      </trkpt>
      <trkpt lat="45.74073" lon="4.88729">
        <ele>195.5</ele>
        <time>2009-12-31T21:19:23Z</time>
      </trkpt>
      <trkpt lat="45.74162" lon="4.8845">
        <ele>191.2</ele>
        <time>2009-12-31T20:11:27Z</time>
      </trkpt>
      <trkpt lat="45.74197" lon="4.8834">
        <ele>188</ele>
        <time>2009-12-31T19:44:49Z</time>
      </trkpt>
      <trkpt lat="45.74232" lon="4.88145">
        <ele>183.7</ele>
        <time>2009-12-31T14:23:45Z</time>
      </trkpt>
      <trkpt lat="45.74255" lon="4.88019">
        <ele>182.5</ele>
        <time>2009-12-31T10:55:48Z</time>
      </trkpt>
      <trkpt lat="45.74269" lon="4.87967">
        <ele>181.8</ele>
        <time>2009-12-31T09:27:46Z</time>
      </trkpt>
      <trkpt lat="45.74284" lon="4.8794">
        <ele>181.7</ele>
        <time>2009-12-31T01:40:18Z</time>
      </trkpt>
      <trkpt lat="45.74302" lon="4.87939">
        <ele>182.2</ele>
        <time>2009-12-30T20:51:39Z</time>
      </trkpt>
      <trkpt lat="45.74316" lon="4.87929">
        <ele>182.6</ele>
        <time>2009-12-30T16:44:16Z</time>
      </trkpt>
      <trkpt lat="45.74327" lon="4.87908">
        <ele>182.6</ele>
        <time>2009-12-30T12:20:36Z</time>
      </trkpt>
      <trkpt lat="45.74324" lon="4.87858">
        <ele>181.4</ele>
        <time>2009-12-30T03:59:30Z</time>
      </trkpt>
      <trkpt lat="45.74321" lon="4.87831">
        <ele>180.8</ele>
        <time>2009-12-29T22:24:45Z</time>
      </trkpt>
      <trkpt lat="45.74331" lon="4.87793">
        <ele>180.5</ele>
        <time>2009-12-29T19:34:09Z</time>
      </trkpt>
      <trkpt lat="45.74398" lon="4.876">
        <ele>178</ele>
        <time>2009-12-28T21:03:11Z</time>
      </trkpt>
      <trkpt lat="45.74467" lon="4.87402">
        <ele>180.3</ele>
        <time>2009-12-27T21:55:59Z</time>
      </trkpt>
      <trkpt lat="45.74531" lon="4.87217">
        <ele>180.6</ele>
        <time>2009-12-27T00:20:44Z</time>
      </trkpt>
      <trkpt lat="45.74593" lon="4.87032">
        <ele>177.3</ele>
        <time>2009-12-26T02:56:28Z</time>
      </trkpt>
      <trkpt lat="45.74681" lon="4.86779">
        <ele>176.8</ele>
        <time>2009-12-24T21:19:31Z</time>
      </trkpt>
      <trkpt lat="45.74751" lon="4.86571">
        <ele>175.8</ele>
        <time>2009-12-23T21:11:46Z</time>
      </trkpt>
      <trkpt lat="45.74842" lon="4.86307">
        <ele>176.6</ele>
        <time>2009-12-12T13:05:55Z</time>
      </trkpt>
      <trkpt lat="45.74894" lon="4.86161">
        <ele>174</ele>
        <time>2009-12-06T06:25:56Z</time>
      </trkpt>
      <trkpt lat="45.74946" lon="4.86038">
        <ele>171.1</ele>
        <time>2009-11-30T16:46:20Z</time>
      </trkpt>
      <trkpt lat="45.74988" lon="4.85904">
        <ele>173.9</ele>
        <time>2009-11-25T02:03:39Z</time>
      </trkpt>
      <trkpt lat="45.75046" lon="4.85718">
        <ele>179.9</ele>
        <time>2009-11-17T05:22:51Z</time>
      </trkpt>
      <trkpt lat="45.75098" lon="4.85561">
        <ele>175.7</ele>
        <time>2009-09-06T20:54:45Z</time>
      </trkpt>
      <trkpt lat="45.75146" lon="4.8542">
        <ele>174.3</ele>
        <time>2009-07-04T03:50:51Z</time>
      </trkpt>
      <trkpt lat="45.75227" lon="4.85184">
        <ele>172.4</ele>
        <time>2009-03-17T16:12:32Z</time>
      </trkpt>
      <trkpt lat="45.75297" lon="4.84987">
        <ele>177.3</ele>
        <time>2008-12-26T02:37:09Z</time>
      </trkpt>
      <trkpt lat="45.7539" lon="4.84715">
        <ele>176.8</ele>
        <time>1997-11-18T02:36:22Z</time>
      </trkpt>
      <trkpt lat="45.75414" lon="4.84645">
        <ele>176.6</ele>
        <time>1995-07-21T04:01:14Z</time>
      </trkpt>
      <trkpt lat="45.75517" lon="4.84363">
        <ele>177.3</ele>
        <time>2002-02-20T23:11:25Z</time>
      </trkpt>
      <trkpt lat="45.75561" lon="4.8423">
        <ele>177.3</ele>
        <time>2005-03-13T18:50:10Z</time>
      </trkpt>
      <trkpt lat="45.75617" lon="4.84074">
        <ele>176</ele>
        <time>2010-01-01T00:16:01Z</time>
      </trkpt>
      <trkpt lat="45.7563" lon="4.84019">
        <ele>173</ele>
        <time>2010-01-01T00:16:02Z</time>
      </trkpt>
      <trkpt lat="45.75719" lon="4.83718">
        <ele>166</ele>
        <time>2010-01-01T00:17:34Z</time>
      </trkpt>
      <trkpt lat="45.75722" lon="4.8369">
        <ele>166</ele>
        <time>2010-01-01T00:17:42Z</time>
      </trkpt>
      <trkpt lat="45.7573" lon="4.83652">
        <ele>173</ele>
        <time>2010-01-01T00:17:53Z</time>
      </trkpt>
      <trkpt lat="45.75883" lon="4.83083">
        <ele>174</ele>
        <time>2010-01-01T00:20:43Z</time>
      </trkpt>
      <trkpt lat="45.7592" lon="4.82963">
        <ele>170</ele>
        <time>2010-01-01T00:21:20Z</time>
      </trkpt>
      <trkpt lat="45.75919" lon="4.82962">
        <ele>170</ele>
        <time>2010-01-01T00:21:20Z</time>
      </trkpt>
      <trkpt lat="45.75921" lon="4.8296">
        <ele>170</ele>
        <time>2010-01-01T00:21:21Z</time>
      </trkpt>
      <trkpt lat="45.75925" lon="4.82945">
        <ele>168</ele>
        <time>2010-01-01T00:21:26Z</time>
      </trkpt>
      <trkpt lat="45.75937" lon="4.82915">
        <ele>166</ele>
        <time>2010-01-01T00:21:35Z</time>
      </trkpt>
      <trkpt lat="45.75935" lon="4.82914">
        <ele>166</ele>
        <time>2010-01-01T00:21:36Z</time>
      </trkpt>
      <trkpt lat="45.75938" lon="4.82899">
        <ele>166</ele>
        <time>2010-01-01T00:21:41Z</time>
      </trkpt>
      <trkpt lat="45.7597" lon="4.82791">
        <ele>168</ele>
        <time>2010-01-01T00:22:13Z</time>
      </trkpt>
      <trkpt lat="45.75981" lon="4.82776">
        <ele>173</ele>
        <time>2010-01-01T00:22:19Z</time>
      </trkpt>
      <trkpt lat="45.75986" lon="4.82757">
        <ele>178</ele>
      </trkpt>
      <trkpt lat="45.75997" lon="4.82724">
        <ele>179</ele>
      </trkpt>
      <trkpt lat="45.76005" lon="4.82694">
        <ele>179.2</ele>
      </trkpt>
      <trkpt lat="45.76014" lon="4.82663">
        <ele>181</ele>
        <time>2010-01-01T00:22:54Z</time>
      </trkpt>
      <trkpt lat="45.76028" lon="4.82656">
        <ele>180</ele>
        <time>2010-01-01T00:23:00Z</time>
      </trkpt>
      <trkpt lat="45.76055" lon="4.82663">
        <ele>179</ele>
        <time>2010-01-01T00:23:10Z</time>
      </trkpt>
      <trkpt lat="45.76054" lon="4.82663">
        <ele>179</ele>
        <time>2010-01-01T00:23:11Z</time>
      </trkpt>
      <trkpt lat="45.76079" lon="4.82672">
        <ele>179</ele>
        <time>2010-01-01T00:23:21Z</time>
      </trkpt>
      <trkpt lat="45.76091" lon="4.82624">
        <ele>177</ele>
        <time>2010-01-01T00:23:35Z</time>
      </trkpt>
      <trkpt lat="45.761" lon="4.82575">
        <ele>180</ele>
        <time>2010-01-01T00:23:50Z</time>
      </trkpt>
      <trkpt lat="45.7607" lon="4.82565">
        <ele>190.5</ele>
      </trkpt>
      <trkpt lat="45.76042" lon="4.82554">
        <ele>182</ele>
        <time>2010-01-01T00:24:14Z</time>
      </trkpt>
      <trkpt lat="45.75968" lon="4.82559">
        <ele>185</ele>
        <time>2010-01-01T00:24:43Z</time>
      </trkpt>
      <trkpt lat="45.75948" lon="4.8255">
        <ele>186</ele>
        <time>2010-01-01T00:24:52Z</time>
      </trkpt>
      <trkpt lat="45.7594" lon="4.82538">
        <ele>188</ele>
        <time>2010-01-01T00:24:56Z</time>
      </trkpt>
      <trkpt lat="45.75922" lon="4.82515">
        <ele>197.8</ele>
      </trkpt>
      <trkpt lat="45.759" lon="4.82488">
        <ele>197</ele>
        <time>2010-01-01T00:25:17Z</time>
      </trkpt>
      <trkpt lat="45.7588" lon="4.82471">
        <ele>208.9</ele>
      </trkpt>
      <trkpt lat="45.75851" lon="4.82443">
        <ele>207</ele>
        <time>2010-01-01T00:25:41Z</time>
      </trkpt>
      <trkpt lat="45.75846" lon="4.82434">
        <ele>209</ele>
        <time>2010-01-01T00:25:44Z</time>
      </trkpt>
      <trkpt lat="45.75836" lon="4.82408">
        <ele>226</ele>
      </trkpt>
      <trkpt lat="45.75829" lon="4.82382">
        <ele>221</ele>
        <time>2010-01-01T00:26:00Z</time>
      </trkpt>
      <trkpt lat="45.75815" lon="4.82372">
        <ele>219</ele>
        <time>2010-01-01T00:26:06Z</time>
      </trkpt>
      <trkpt lat="45.75799" lon="4.82363">
        <ele>233.4</ele>
      </trkpt>
      <trkpt lat="45.75781" lon="4.82355">
        <ele>212</ele>
        <time>2010-01-01T00:26:21Z</time>
      </trkpt>
      <trkpt lat="45.75776" lon="4.82348">
        <ele>213</ele>
        <time>2010-01-01T00:26:24Z</time>
      </trkpt>
      <trkpt lat="45.7577" lon="4.82315">
        <ele>219</ele>
        <time>2010-01-01T00:26:33Z</time>
      </trkpt>
      <trkpt lat="45.75776" lon="4.82259">
        <ele>232</ele>
        <time>2010-01-01T00:26:49Z</time>
      </trkpt>
      <trkpt lat="45.75775" lon="4.82233">
        <ele>235</ele>
        <time>2010-01-01T00:26:56Z</time>
      </trkpt>
      <trkpt lat="45.75769" lon="4.82206">
        <ele>239</ele>
        <time>2010-01-01T00:27:04Z</time>
      </trkpt>
      <trkpt lat="45.75766" lon="4.82198">
        <ele>240</ele>
        <time>2010-01-01T00:27:07Z</time>
      </trkpt>
      <trkpt lat="45.7575" lon="4.82175">
        <ele>241</ele>
        <time>2010-01-01T00:27:16Z</time>
      </trkpt>
      <trkpt lat="45.7575" lon="4.82174">
        <ele>241</ele>
        <time>2010-01-01T00:27:16Z</time>
      </trkpt>
      <trkpt lat="45.75753" lon="4.82178">
        <ele>241</ele>
        <time>2010-01-01T00:27:18Z</time>
      </trkpt>
      <trkpt lat="45.75754" lon="4.82175">
        <ele>241</ele>
        <time>2010-01-01T00:27:19Z</time>
      </trkpt>
      <trkpt lat="45.75775" lon="4.82197">
        <ele>239</ele>
        <time>2010-01-01T00:27:29Z</time>
      </trkpt>
      <trkpt lat="45.75792" lon="4.82204">
        <ele>239</ele>
        <time>2010-01-01T00:27:36Z</time>
      </trkpt>
      <trkpt lat="45.75806" lon="4.82202">
        <ele>240</ele>
        <time>2010-01-01T00:27:42Z</time>
      </trkpt>
      <trkpt lat="45.75819" lon="4.82205">
        <ele>241</ele>
        <time>2010-01-01T00:27:47Z</time>
      </trkpt>
      <trkpt lat="45.75825" lon="4.82193">
        <ele>242</ele>
        <time>2010-01-01T00:27:51Z</time>
      </trkpt>
      <trkpt lat="45.75833" lon="4.82197">
        <ele>242</ele>
        <time>2010-01-01T00:27:55Z</time>
      </trkpt>
      <trkpt lat="45.7584" lon="4.82222">
        <ele>254.6</ele>
      </trkpt>
      <trkpt lat="45.75849" lon="4.82256">
        <ele>256.1</ele>
      </trkpt>
      <trkpt lat="45.75865" lon="4.82304">
        <ele>246</ele>
        <time>2010-01-01T00:28:27Z</time>
      </trkpt>
      <trkpt lat="45.75884" lon="4.8232">
        <ele>248</ele>
        <time>2010-01-01T00:28:36Z</time>
      </trkpt>
      <trkpt lat="45.75896" lon="4.82321">
        <ele>255</ele>
      </trkpt>
      <trkpt lat="45.7591" lon="4.82323">
        <ele>251</ele>
        <time>2010-01-01T00:28:47Z</time>
      </trkpt>
      <trkpt lat="45.75912" lon="4.82297">
        <ele>259.8</ele>
      </trkpt>
      <trkpt lat="45.75916" lon="4.82257">
        <ele>266</ele>
      </trkpt>
      <trkpt lat="45.7592" lon="4.82223">
        <ele>269.3</ele>
      </trkpt>
      <trkpt lat="45.75924" lon="4.82181">
        <ele>272.6</ele>
      </trkpt>
      <trkpt lat="45.75928" lon="4.82144">
        <ele>256</ele>
        <time>2010-01-01T00:29:37Z</time>
      </trkpt>
      <trkpt lat="45.75959" lon="4.82169">
        <ele>260</ele>
        <time>2010-01-01T00:29:51Z</time>
      </trkpt>
      <trkpt lat="45.75977" lon="4.82239">
        <ele>264</ele>
        <time>2010-01-01T00:30:12Z</time>
      </trkpt>
      <trkpt lat="45.75996" lon="4.82253">
        <ele>266</ele>
        <time>2010-01-01T00:30:21Z</time>
      </trkpt>
      <trkpt lat="45.76028" lon="4.82258">
        <ele>271</ele>
        <time>2010-01-01T00:30:34Z</time>
      </trkpt>
      <trkpt lat="45.76035" lon="4.82191">
        <ele>281</ele>
        <time>2010-01-01T00:30:52Z</time>
      </trkpt>
      <trkpt lat="45.76041" lon="4.82113">
        <ele>283</ele>
        <time>2010-01-01T00:31:14Z</time>
      </trkpt>
      <trkpt lat="45.76067" lon="4.81977">
        <ele>292</ele>
        <time>2010-01-01T00:31:54Z</time>
      </trkpt>
      <trkpt lat="45.76051" lon="4.81928">
        <ele>287.2</ele>
      </trkpt>
      <trkpt lat="45.76039" lon="4.81878">
        <ele>291</ele>
        <time>2010-01-01T00:32:23Z</time>
      </trkpt>
      <trkpt lat="45.76029" lon="4.81838">
        <ele>289.3</ele>
      </trkpt>
      <trkpt lat="45.76008" lon="4.81762">
        <ele>294.2</ele>
      </trkpt>
      <trkpt lat="45.75991" lon="4.81701">
        <ele>300</ele>
        <time>2010-01-01T00:33:17Z</time>
      </trkpt>
      <trkpt lat="45.75972" lon="4.81625">
        <ele>298</ele>
        <time>2010-01-01T00:33:39Z</time>
      </trkpt>
      <trkpt lat="45.75998" lon="4.8161">
        <ele>297.3</ele>
      </trkpt>
      <trkpt lat="45.76045" lon="4.81574">
        <ele>296</ele>
        <time>2010-01-01T00:34:12Z</time>
      </trkpt>
      <trkpt lat="45.76085" lon="4.8154">
        <ele>296.9</ele>
      </trkpt>
      <trkpt lat="45.76115" lon="4.81507">
        <ele>297</ele>
        <time>2010-01-01T00:34:45Z</time>
      </trkpt>
      <trkpt lat="45.76092" lon="4.81448">
        <ele>295</ele>
      </trkpt>
      <trkpt lat="45.76076" lon="4.81393">
        <ele>294.3</ele>
      </trkpt>
      <trkpt lat="45.76068" lon="4.81366">
        <ele>295</ele>
        <time>2010-01-01T00:35:29Z</time>
      </trkpt>
      <trkpt lat="45.76056" lon="4.81326">
        <ele>293.8</ele>
      </trkpt>
      <trkpt lat="45.7604" lon="4.81272">
        <ele>289</ele>
        <time>2010-01-01T00:35:58Z</time>
      </trkpt>
      <trkpt lat="45.76017" lon="4.81293">
        <ele>290.5</ele>
      </trkpt>
      <trkpt lat="45.7599" lon="4.81306">
        <ele>291</ele>
        <time>2010-01-01T00:36:20Z</time>
      </trkpt>
      <trkpt lat="45.75966" lon="4.81364">
        <ele>293.2</ele>
      </trkpt>
      <trkpt lat="45.7595" lon="4.81396">
        <ele>294.2</ele>
        <time>2010-01-01T00:36:58Z</time>
      </trkpt>
      <trkpt lat="45.75937" lon="4.81418">
        <ele>295</ele>
        <time>2010-01-01T00:37:08Z</time>
      </trkpt>
      <trkpt lat="45.75931" lon="4.81431">
        <ele>296</ele>
        <time>2010-01-01T00:37:16Z</time>
      </trkpt>
      <trkpt lat="45.7592" lon="4.8143">
        <ele>294</ele>
        <time>2010-01-01T00:37:21Z</time>
      </trkpt>
      <trkpt lat="45.75906" lon="4.81444">
        <ele>289</ele>
        <time>2010-01-01T00:37:28Z</time>
      </trkpt>
      <trkpt lat="45.75889" lon="4.81484">
        <ele>289</ele>
        <time>2010-01-01T00:37:41Z</time>
      </trkpt>
      <trkpt lat="45.75876" lon="4.81505">
        <ele>289</ele>
        <time>2010-01-01T00:37:49Z</time>
      </trkpt>
      <trkpt lat="45.75861" lon="4.81504">
        <ele>284</ele>
        <time>2010-01-01T00:37:55Z</time>
      </trkpt>
      <trkpt lat="45.75851" lon="4.81491">
        <ele>280</ele>
        <time>2010-01-01T00:38:00Z</time>
      </trkpt>
      <trkpt lat="45.75857" lon="4.81463">
        <ele>277</ele>
        <time>2010-01-01T00:38:08Z</time>
      </trkpt>
      <trkpt lat="45.75891" lon="4.8142">
        <ele>287</ele>
        <time>2010-01-01T00:38:26Z</time>
      </trkpt>
      <trkpt lat="45.75891" lon="4.81402">
        <ele>287</ele>
        <time>2010-01-01T00:38:31Z</time>
      </trkpt>
      <trkpt lat="45.75883" lon="4.8139">
        <ele>284</ele>
        <time>2010-01-01T00:38:36Z</time>
      </trkpt>
      <trkpt lat="45.75866" lon="4.81397">
        <ele>277</ele>
        <time>2010-01-01T00:38:43Z</time>
      </trkpt>
      <trkpt lat="45.7585" lon="4.81407">
        <ele>274</ele>
        <time>2010-01-01T00:38:50Z</time>
      </trkpt>
      <trkpt lat="45.7577" lon="4.81525">
        <ele>273</ele>
        <time>2010-01-01T00:39:36Z</time>
      </trkpt>
      <trkpt lat="45.75758" lon="4.81534">
        <ele>272</ele>
        <time>2010-01-01T00:39:41Z</time>
      </trkpt>
      <trkpt lat="45.75746" lon="4.81531">
        <ele>271</ele>
        <time>2010-01-01T00:39:46Z</time>
      </trkpt>
      <trkpt lat="45.7573" lon="4.81521">
        <ele>271</ele>
        <time>2010-01-01T00:39:53Z</time>
      </trkpt>
      <trkpt lat="45.75701" lon="4.81585">
        <ele>279.6</ele>
      </trkpt>
      <trkpt lat="45.75683" lon="4.81625">
        <ele>272</ele>
        <time>2010-01-01T00:40:28Z</time>
      </trkpt>
      <trkpt lat="45.75681" lon="4.81625">
        <ele>272</ele>
        <time>2010-01-01T00:40:29Z</time>
      </trkpt>
      <trkpt lat="45.7566" lon="4.81599">
        <ele>273.1</ele>
      </trkpt>
      <trkpt lat="45.75644" lon="4.81572">
        <ele>267</ele>
        <time>2010-01-01T00:40:49Z</time>
      </trkpt>
      <trkpt lat="45.75614" lon="4.81538">
        <ele>267</ele>
        <time>2010-01-01T00:41:05Z</time>
      </trkpt>
      <trkpt lat="45.756" lon="4.81517">
        <ele>268</ele>
        <time>2010-01-01T00:41:13Z</time>
      </trkpt>
      <trkpt lat="45.75598" lon="4.81483">
        <ele>268.1</ele>
      </trkpt>
      <trkpt lat="45.75594" lon="4.81418">
        <ele>269.2</ele>
      </trkpt>
      <trkpt lat="45.75595" lon="4.81359">
        <ele>273</ele>
        <time>2010-01-01T00:41:57Z</time>
      </trkpt>
      <trkpt lat="45.75571" lon="4.81295">
        <ele>275</ele>
        <time>2010-01-01T00:42:17Z</time>
      </trkpt>
      <trkpt lat="45.75566" lon="4.81287">
        <ele>274</ele>
        <time>2010-01-01T00:42:20Z</time>
      </trkpt>
      <trkpt lat="45.75556" lon="4.81282">
        <ele>275</ele>
        <time>2010-01-01T00:42:25Z</time>
      </trkpt>
      <trkpt lat="45.75534" lon="4.81272">
        <ele>270.4</ele>
        <time>2010-01-01T00:42:27Z</time>
      </trkpt>
      <trkpt lat="45.75486" lon="4.81245">
        <ele>282</ele>
        <time>2010-01-01T00:42:55Z</time>
      </trkpt>
      <trkpt lat="45.75477" lon="4.81242">
        <ele>282</ele>
        <time>2010-01-01T00:42:59Z</time>
      </trkpt>
      <trkpt lat="45.75459" lon="4.81242">
        <ele>283</ele>
        <time>2010-01-01T00:43:06Z</time>
      </trkpt>
      <trkpt lat="45.75436" lon="4.81244">
        <ele>285</ele>
        <time>2010-01-01T00:43:15Z</time>
      </trkpt>
      <trkpt lat="45.75411" lon="4.81254">
        <ele>285</ele>
        <time>2010-01-01T00:43:26Z</time>
      </trkpt>
      <trkpt lat="45.75393" lon="4.81255">
        <ele>285</ele>
        <time>2010-01-01T00:43:33Z</time>
      </trkpt>
      <trkpt lat="45.75395" lon="4.81214">
        <ele>282.5</ele>
      </trkpt>
      <trkpt lat="45.7541" lon="4.81112">
        <ele>301</ele>
        <time>2010-01-01T00:44:13Z</time>
      </trkpt>
      <trkpt lat="45.75438" lon="4.81113">
        <ele>298</ele>
        <time>2010-01-01T00:44:24Z</time>
      </trkpt>
      <trkpt lat="45.75448" lon="4.81066">
        <ele>300</ele>
        <time>2010-01-01T00:44:38Z</time>
      </trkpt>
      <trkpt lat="45.75458" lon="4.81036">
        <ele>299</ele>
        <time>2010-01-01T00:44:48Z</time>
      </trkpt>
      <trkpt lat="45.75499" lon="4.80982">
        <ele>298</ele>
        <time>2010-01-01T00:45:10Z</time>
      </trkpt>
      <trkpt lat="45.75464" lon="4.80928">
        <ele>296</ele>
        <time>2010-01-01T00:45:31Z</time>
      </trkpt>
      <trkpt lat="45.75443" lon="4.80898">
        <ele>291.9</ele>
      </trkpt>
      <trkpt lat="45.75424" lon="4.80858">
        <ele>295</ele>
        <time>2010-01-01T00:45:56Z</time>
      </trkpt>
      <trkpt lat="45.75391" lon="4.8089">
        <ele>298</ele>
        <time>2010-01-01T00:46:12Z</time>
      </trkpt>
      <trkpt lat="45.75377" lon="4.80925">
        <ele>300</ele>
        <time>2010-01-01T00:46:23Z</time>
      </trkpt>
      <trkpt lat="45.75356" lon="4.80965">
        <ele>304</ele>
        <time>2010-01-01T00:46:37Z</time>
      </trkpt>
      <trkpt lat="45.75341" lon="4.8099">
        <ele>306</ele>
        <time>2010-01-01T00:46:47Z</time>
      </trkpt>
      <trkpt lat="45.75331" lon="4.80989">
        <ele>306</ele>
        <time>2010-01-01T00:46:50Z</time>
      </trkpt>
      <trkpt lat="45.75289" lon="4.8096">
        <ele>307</ele>
        <time>2010-01-01T00:47:09Z</time>
      </trkpt>
      <trkpt lat="45.75264" lon="4.80945">
        <ele>307</ele>
        <time>2010-01-01T00:47:20Z</time>
      </trkpt>
      <trkpt lat="45.75228" lon="4.80919">
        <ele>308</ele>
        <time>2010-01-01T00:47:36Z</time>
      </trkpt>
      <trkpt lat="45.75205" lon="4.809">
        <ele>308</ele>
        <time>2010-01-01T00:47:47Z</time>
      </trkpt>
      <trkpt lat="45.75194" lon="4.80889">
        <ele>308</ele>
        <time>2010-01-01T00:47:52Z</time>
      </trkpt>
      <trkpt lat="45.7518" lon="4.80887">
        <ele>308</ele>
        <time>2010-01-01T00:47:58Z</time>
      </trkpt>
      <trkpt lat="45.75172" lon="4.80865">
        <ele>310</ele>
        <time>2010-01-01T00:48:05Z</time>
      </trkpt>
      <trkpt lat="45.75166" lon="4.80855">
        <ele>311</ele>
        <time>2010-01-01T00:48:08Z</time>
      </trkpt>
      <trkpt lat="45.75119" lon="4.80803">
        <ele>313</ele>
        <time>2010-01-01T00:48:32Z</time>
      </trkpt>
      <trkpt lat="45.75043" lon="4.80761">
        <ele>306</ele>
        <time>2010-01-01T00:49:05Z</time>
      </trkpt>
      <trkpt lat="45.75032" lon="4.80757">
        <ele>306</ele>
        <time>2010-01-01T00:49:09Z</time>
      </trkpt>
      <trkpt lat="45.75003" lon="4.80742">
        <ele>306</ele>
        <time>2010-01-01T00:49:22Z</time>
      </trkpt>
      <trkpt lat="45.74979" lon="4.80733">
        <ele>303.8</ele>
      </trkpt>
      <trkpt lat="45.74943" lon="4.80719">
        <ele>303.6</ele>
      </trkpt>
      <trkpt lat="45.74895" lon="4.80699">
        <ele>303.5</ele>
      </trkpt>
      <trkpt lat="45.74861" lon="4.80681">
        <ele>306</ele>
        <time>2010-01-01T00:50:21Z</time>
      </trkpt>
      <trkpt lat="45.74837" lon="4.80678">
        <ele>303.9</ele>
      </trkpt>
      <trkpt lat="45.74807" lon="4.8067">
        <ele>304.1</ele>
      </trkpt>
      <trkpt lat="45.74769" lon="4.80661">
        <ele>305</ele>
      </trkpt>
      <trkpt lat="45.7474" lon="4.8065">
        <ele>305</ele>
        <time>2010-01-01T00:51:10Z</time>
      </trkpt>
      <trkpt lat="45.74681" lon="4.80663">
        <ele>306</ele>
        <time>2010-01-01T00:51:34Z</time>
      </trkpt>
      <trkpt lat="45.74659" lon="4.80664">
        <ele>308</ele>
        <time>2010-01-01T00:51:43Z</time>
      </trkpt>
      <trkpt lat="45.74656" lon="4.80625">
        <ele>306</ele>
        <time>2010-01-01T00:51:54Z</time>
      </trkpt>
      <trkpt lat="45.74643" lon="4.80624">
        <ele>305</ele>
        <time>2010-01-01T00:51:59Z</time>
      </trkpt>
      <trkpt lat="45.74627" lon="4.80621">
        <ele>304</ele>
        <time>2010-01-01T00:52:05Z</time>
      </trkpt>
      <trkpt lat="45.74581" lon="4.80616">
        <ele>301</ele>
        <time>2010-01-01T00:52:24Z</time>
      </trkpt>
      <trkpt lat="45.74553" lon="4.80625">
        <ele>301</ele>
        <time>2010-01-01T00:52:35Z</time>
      </trkpt>
      <trkpt lat="45.74502" lon="4.80652">
        <ele>302</ele>
        <time>2010-01-01T00:52:57Z</time>
      </trkpt>
      <trkpt lat="45.74481" lon="4.80649">
        <ele>303</ele>
        <time>2010-01-01T00:53:06Z</time>
      </trkpt>
      <trkpt lat="45.74473" lon="4.80645">
        <ele>303</ele>
        <time>2010-01-01T00:53:09Z</time>
      </trkpt>
      <trkpt lat="45.74467" lon="4.80645">
        <ele>303</ele>
        <time>2010-01-01T00:53:11Z</time>
      </trkpt>
      <trkpt lat="45.74462" lon="4.80637">
        <ele>302.2</ele>
        <time>2010-01-01T00:53:14Z</time>
      </trkpt>
      <trkpt lat="45.74455" lon="4.80619">
        <ele>302</ele>
        <time>2010-01-01T00:53:20Z</time>
      </trkpt>
      <trkpt lat="45.74432" lon="4.80599">
        <ele>299.6</ele>
      </trkpt>
      <trkpt lat="45.74405" lon="4.80585">
        <ele>299.2</ele>
      </trkpt>
      <trkpt lat="45.74371" lon="4.80561">
        <ele>298.4</ele>
      </trkpt>
      <trkpt lat="45.74344" lon="4.8054">
        <ele>299</ele>
        <time>2010-01-01T00:54:10Z</time>
      </trkpt>
      <trkpt lat="45.74325" lon="4.8052">
        <ele>298</ele>
      </trkpt>
      <trkpt lat="45.7431" lon="4.80493">
        <ele>303</ele>
        <time>2010-01-01T00:54:29Z</time>
      </trkpt>
      <trkpt lat="45.74303" lon="4.80472">
        <ele>304</ele>
        <time>2010-01-01T00:54:35Z</time>
      </trkpt>
      <trkpt lat="45.74321" lon="4.80437">
        <ele>302</ele>
        <time>2010-01-01T00:54:47Z</time>
      </trkpt>
      <trkpt lat="45.7433" lon="4.80424">
        <ele>295.4</ele>
      </trkpt>
      <trkpt lat="45.74349" lon="4.804">
        <ele>293.9</ele>
      </trkpt>
      <trkpt lat="45.74368" lon="4.80371">
        <ele>292.3</ele>
      </trkpt>
      <trkpt lat="45.7439" lon="4.80337">
        <ele>289.9</ele>
      </trkpt>
      <trkpt lat="45.74417" lon="4.80305">
        <ele>295</ele>
        <time>2010-01-01T00:55:40Z</time>
      </trkpt>
      <trkpt lat="45.74436" lon="4.80289">
        <ele>286.6</ele>
      </trkpt>
      <trkpt lat="45.74463" lon="4.80249">
        <ele>290</ele>
        <time>2010-01-01T00:56:05Z</time>
      </trkpt>
      <trkpt lat="45.74463" lon="4.80183">
        <ele>289</ele>
        <time>2010-01-01T00:56:23Z</time>
      </trkpt>
      <trkpt lat="45.7442" lon="4.80117">
        <ele>294</ele>
        <time>2010-01-01T00:56:48Z</time>
      </trkpt>
      <trkpt lat="45.7441" lon="4.8011">
        <ele>295</ele>
        <time>2010-01-01T00:56:53Z</time>
      </trkpt>
      <trkpt lat="45.74379" lon="4.80109">
        <ele>297</ele>
        <time>2010-01-01T00:57:05Z</time>
      </trkpt>
      <trkpt lat="45.74356" lon="4.80101">
        <ele>290.3</ele>
      </trkpt>
      <trkpt lat="45.74327" lon="4.80089">
        <ele>293.1</ele>
      </trkpt>
      <trkpt lat="45.74295" lon="4.8008">
        <ele>293.6</ele>
      </trkpt>
      <trkpt lat="45.74249" lon="4.80061">
        <ele>292</ele>
        <time>2010-01-01T00:57:59Z</time>
      </trkpt>
      <trkpt lat="45.74242" lon="4.80055">
        <ele>291</ele>
        <time>2010-01-01T00:58:02Z</time>
      </trkpt>
      <trkpt lat="45.7424" lon="4.80041">
        <ele>290</ele>
        <time>2010-01-01T00:58:06Z</time>
      </trkpt>
      <trkpt lat="45.74234" lon="4.79979">
        <ele>287</ele>
        <time>2010-01-01T00:58:24Z</time>
      </trkpt>
      <trkpt lat="45.74234" lon="4.79972">
        <ele>287</ele>
        <time>2010-01-01T00:58:26Z</time>
      </trkpt>
      <trkpt lat="45.74203" lon="4.79978">
        <ele>287.9</ele>
      </trkpt>
      <trkpt lat="45.74168" lon="4.79982">
        <ele>286</ele>
        <time>2010-01-01T00:58:52Z</time>
      </trkpt>
      <trkpt lat="45.74156" lon="4.79985">
        <ele>287</ele>
        <time>2010-01-01T00:58:57Z</time>
      </trkpt>
      <trkpt lat="45.74126" lon="4.79996">
        <ele>286.9</ele>
      </trkpt>
      <trkpt lat="45.74093" lon="4.80012">
        <ele>290</ele>
        <time>2010-01-01T00:59:23Z</time>
      </trkpt>
      <trkpt lat="45.74069" lon="4.80025">
        <ele>288.4</ele>
      </trkpt>
      <trkpt lat="45.74033" lon="4.8005">
        <ele>290.9</ele>
      </trkpt>
      <trkpt lat="45.74009" lon="4.80064">
        <ele>300</ele>
        <time>2010-01-01T01:00:00Z</time>
      </trkpt>
      <trkpt lat="45.73977" lon="4.80085">
        <ele>305</ele>
        <time>2010-01-01T01:00:14Z</time>
      </trkpt>
      <trkpt lat="45.73972" lon="4.80091">
        <ele>306</ele>
        <time>2010-01-01T01:00:17Z</time>
      </trkpt>
      <trkpt lat="45.73956" lon="4.80101">
        <ele>299.4</ele>
        <time>2010-01-01T00:41:33Z</time>
      </trkpt>
      <trkpt lat="45.73941" lon="4.80115">
        <ele>301.8</ele>
        <time>2009-12-29T23:31:35Z</time>
      </trkpt>
      <trkpt lat="45.73917" lon="4.80123">
        <ele>304.9</ele>
        <time>2008-10-21T10:38:27Z</time>
      </trkpt>
      <trkpt lat="45.73892" lon="4.80121">
        <ele>307.4</ele>
        <time>2010-01-01T01:00:26Z</time>
      </trkpt>
      <trkpt lat="45.73879" lon="4.80095">
        <ele>307.3</ele>
        <time>2010-01-01T00:45:26Z</time>
      </trkpt>
      <trkpt lat="45.73885" lon="4.80073">
        <ele>304.9</ele>
        <time>2010-01-01T01:00:29Z</time>
      </trkpt>
      <trkpt lat="45.73901" lon="4.80073">
        <ele>303.6</ele>
        <time>2010-01-01T01:00:34Z</time>
      </trkpt>
      <trkpt lat="45.73918" lon="4.80073">
        <ele>302</ele>
        <time>2010-01-01T01:00:40Z</time>
      </trkpt>
      <trkpt lat="45.73937" lon="4.80064">
        <ele>299.3</ele>
        <time>2010-01-01T01:00:47Z</time>
      </trkpt>
      <trkpt lat="45.73955" lon="4.80047">
        <ele>296.4</ele>
        <time>2010-01-01T01:00:55Z</time>
      </trkpt>
      <trkpt lat="45.73961" lon="4.80031">
        <ele>294.7</ele>
        <time>3923-03-04T06:16:21Z</time>
      </trkpt>
      <trkpt lat="45.73964" lon="4.80005">
        <ele>292.9</ele>
        <time>6381-02-11T08:49:25Z</time>
      </trkpt>
      <trkpt lat="45.73951" lon="4.79981">
        <ele>292.2</ele>
      </trkpt>
      <trkpt lat="45.73937" lon="4.79963">
        <ele>291.9</ele>
      </trkpt>
      <trkpt lat="45.73922" lon="4.7995">
        <ele>292</ele>
      </trkpt>
      <trkpt lat="45.73894" lon="4.7994">
        <ele>292.7</ele>
        <time>2010-01-01T01:01:23Z</time>
      </trkpt>
      <trkpt lat="45.73875" lon="4.79935">
        <ele>293.1</ele>
        <time>2010-01-01T00:02:44Z</time>
      </trkpt>
      <trkpt lat="45.73854" lon="4.79931">
        <ele>293.7</ele>
        <time>2009-12-22T03:46:12Z</time>
      </trkpt>
      <trkpt lat="45.73832" lon="4.79925">
        <ele>293.9</ele>
        <time>2010-01-01T01:01:44Z</time>
      </trkpt>
      <trkpt lat="45.73838" lon="4.79891">
        <ele>291.2</ele>
        <time>2010-01-01T00:46:04Z</time>
      </trkpt>
      <trkpt lat="45.73855" lon="4.79858">
        <ele>288.4</ele>
        <time>2009-12-31T09:52:04Z</time>
      </trkpt>
      <trkpt lat="45.73865" lon="4.79836">
        <ele>286.6</ele>
        <time>2009-11-20T02:07:08Z</time>
      </trkpt>
      <trkpt lat="45.7387" lon="4.79801">
        <ele>284.9</ele>
        <time>2001-06-17T14:40:47Z</time>
      </trkpt>
      <trkpt lat="45.73875" lon="4.79759">
        <ele>282.8</ele>
      </trkpt>
      <trkpt lat="45.73882" lon="4.79726">
        <ele>281.2</ele>
      </trkpt>
      <trkpt lat="45.73887" lon="4.797">
        <ele>279.9</ele>
      </trkpt>
      <trkpt lat="45.73892" lon="4.79672">
        <ele>278.7</ele>
      </trkpt>
      <trkpt lat="45.73898" lon="4.79632">
        <ele>277.7</ele>
        <time>2010-01-01T01:02:03Z</time>
      </trkpt>
      <trkpt lat="45.73906" lon="4.79608">
        <ele>276.9</ele>
        <time>2010-01-01T01:01:20Z</time>
      </trkpt>
      <trkpt lat="45.73923" lon="4.79569">
        <ele>275.1</ele>
        <time>2010-01-01T00:45:03Z</time>
      </trkpt>
      <trkpt lat="45.73929" lon="4.79543">
        <ele>274</ele>
        <time>2009-12-31T18:03:40Z</time>
      </trkpt>
      <trkpt lat="45.73936" lon="4.7952">
        <ele>273</ele>
        <time>2009-12-24T14:15:38Z</time>
      </trkpt>
      <trkpt lat="45.73945" lon="4.79494">
        <ele>271.9</ele>
        <time>2009-06-16T01:14:19Z</time>
      </trkpt>
      <trkpt lat="45.73952" lon="4.79474">
        <ele>271</ele>
        <time>1994-09-24T00:42:38Z</time>
      </trkpt>
      <trkpt lat="45.73959" lon="4.79435">
        <ele>269.8</ele>
      </trkpt>
      <trkpt lat="45.73967" lon="4.79413">
        <ele>268.8</ele>
      </trkpt>
      <trkpt lat="45.73974" lon="4.79396">
        <ele>268.2</ele>
      </trkpt>
      <trkpt lat="45.73985" lon="4.79376">
        <ele>267.5</ele>
      </trkpt>
      <trkpt lat="45.73992" lon="4.79334">
        <ele>267.4</ele>
      </trkpt>
      <trkpt lat="45.74004" lon="4.79308">
        <ele>265.6</ele>
      </trkpt>
      <trkpt lat="45.74011" lon="4.7929">
        <ele>264.4</ele>
      </trkpt>
      <trkpt lat="45.74018" lon="4.79264">
        <ele>262.8</ele>
      </trkpt>
      <trkpt lat="45.74022" lon="4.79218">
        <ele>262.5</ele>
      </trkpt>
      <trkpt lat="45.74033" lon="4.79196">
        <ele>261.8</ele>
      </trkpt>
      <trkpt lat="45.74042" lon="4.79176">
        <ele>260.9</ele>
      </trkpt>
      <trkpt lat="45.74047" lon="4.79157">
        <ele>260.2</ele>
      </trkpt>
      <trkpt lat="45.74056" lon="4.79139">
        <ele>259.1</ele>
      </trkpt>
      <trkpt lat="45.74067" lon="4.79117">
        <ele>257.9</ele>
      </trkpt>
      <trkpt lat="45.74078" lon="4.79091">
        <ele>256.6</ele>
      </trkpt>
      <trkpt lat="45.74085" lon="4.79071">
        <ele>255.6</ele>
      </trkpt>
      <trkpt lat="45.7409" lon="4.79045">
        <ele>254.9</ele>
      </trkpt>
      <trkpt lat="45.74095" lon="4.79019">
        <ele>254.2</ele>
      </trkpt>
      <trkpt lat="45.74095" lon="4.78999">
        <ele>253.8</ele>
      </trkpt>
      <trkpt lat="45.74094" lon="4.78979">
        <ele>253.3</ele>
      </trkpt>
      <trkpt lat="45.74086" lon="4.78949">
        <ele>252.2</ele>
        <time>2010-01-01T01:02:05Z</time>
      </trkpt>
      <trkpt lat="45.74095" lon="4.78928">
        <ele>251.8</ele>
        <time>2010-01-01T00:58:25Z</time>
      </trkpt>
      <trkpt lat="45.74109" lon="4.78909">
        <ele>252.5</ele>
        <time>2009-12-31T16:51:24Z</time>
      </trkpt>
      <trkpt lat="45.7413" lon="4.78902">
        <ele>253.8</ele>
        <time>2009-11-06T02:04:38Z</time>
      </trkpt>
      <trkpt lat="45.74137" lon="4.78885">
        <ele>254.9</ele>
        <time>1982-01-10T21:23:52Z</time>
      </trkpt>
      <trkpt lat="45.74132" lon="4.78869">
        <ele>255.2</ele>
      </trkpt>
      <trkpt lat="45.74119" lon="4.78856">
        <ele>254.8</ele>
      </trkpt>
      <trkpt lat="45.74121" lon="4.78837">
        <ele>255.5</ele>
      </trkpt>
      <trkpt lat="45.74125" lon="4.78812">
        <ele>258.2</ele>
        <time>2010-01-01T01:02:07Z</time>
      </trkpt>
      <trkpt lat="45.74112" lon="4.78784">
        <ele>259.2</ele>
        <time>2010-01-01T01:00:56Z</time>
      </trkpt>
      <trkpt lat="45.74105" lon="4.78755">
        <ele>260.8</ele>
        <time>2009-12-31T23:31:37Z</time>
      </trkpt>
      <trkpt lat="45.74096" lon="4.78729">
        <ele>261.1</ele>
        <time>2009-12-26T11:22:30Z</time>
      </trkpt>
      <trkpt lat="45.74086" lon="4.78707">
        <ele>260.9</ele>
        <time>2008-05-29T05:20:07Z</time>
      </trkpt>
      <trkpt lat="45.74078" lon="4.78681">
        <ele>261.5</ele>
      </trkpt>
      <trkpt lat="45.74072" lon="4.78661">
        <ele>262</ele>
      </trkpt>
      <trkpt lat="45.74062" lon="4.78641">
        <ele>262.1</ele>
      </trkpt>
      <trkpt lat="45.74053" lon="4.78615">
        <ele>262.6</ele>
      </trkpt>
      <trkpt lat="45.7404" lon="4.7859">
        <ele>262.3</ele>
        <time>2010-01-01T01:02:08Z</time>
      </trkpt>
      <trkpt lat="45.74022" lon="4.78562">
        <ele>262</ele>
        <time>2010-01-01T01:02:08Z</time>
      </trkpt>
      <trkpt lat="45.74013" lon="4.7854">
        <ele>263</ele>
        <time>2010-01-01T01:02:08Z</time>
      </trkpt>
      <trkpt lat="45.73991" lon="4.78525">
        <ele>261.8</ele>
        <time>2010-01-01T01:02:08Z</time>
      </trkpt>
      <trkpt lat="45.73964" lon="4.78499">
        <ele>261</ele>
        <time>2010-01-01T01:02:08Z</time>
      </trkpt>
      <trkpt lat="45.73951" lon="4.78483">
        <ele>261.7</ele>
        <time>2010-01-01T01:02:08Z</time>
      </trkpt>
      <trkpt lat="45.73934" lon="4.78466">
        <ele>261.9</ele>
        <time>2010-01-01T01:02:08Z</time>
      </trkpt>
      <trkpt lat="45.7392" lon="4.78459">
        <ele>261.4</ele>
        <time>2010-01-01T01:02:08Z</time>
      </trkpt>
      <trkpt lat="45.73895" lon="4.7844">
        <ele>261</ele>
        <time>2010-01-01T01:02:08Z</time>
      </trkpt>
      <trkpt lat="45.73886" lon="4.78431">
        <ele>260.9</ele>
        <time>2010-01-01T01:02:08Z</time>
      </trkpt>
      <trkpt lat="45.73865" lon="4.78418">
        <ele>259.2</ele>
        <time>2010-01-01T01:02:08Z</time>
      </trkpt>
      <trkpt lat="45.73834" lon="4.78402">
        <ele>256.3</ele>
        <time>2010-01-01T01:02:08Z</time>
      </trkpt>
      <trkpt lat="45.73807" lon="4.78376">
        <ele>257.7</ele>
        <time>2010-01-01T01:02:08Z</time>
      </trkpt>
      <trkpt lat="45.73789" lon="4.78365">
        <ele>257.2</ele>
        <time>2010-01-01T01:02:08Z</time>
      </trkpt>
      <trkpt lat="45.7376" lon="4.78348">
        <ele>255.9</ele>
        <time>2010-01-01T01:02:08Z</time>
      </trkpt>
      <trkpt lat="45.73746" lon="4.78341">
        <ele>255</ele>
        <time>2010-01-01T01:02:08Z</time>
      </trkpt>
      <trkpt lat="45.73719" lon="4.78326">
        <ele>254.2</ele>
        <time>2010-01-01T01:02:08Z</time>
      </trkpt>
      <trkpt lat="45.73695" lon="4.78319">
        <ele>253</ele>
        <time>2010-01-01T01:02:08Z</time>
      </trkpt>
      <trkpt lat="45.73678" lon="4.78315">
        <ele>252.2</ele>
        <time>2010-01-01T01:02:08Z</time>
      </trkpt>
      <trkpt lat="45.73664" lon="4.7831">
        <ele>252.1</ele>
        <time>2010-01-01T01:02:08Z</time>
      </trkpt>
      <trkpt lat="45.7365" lon="4.78299">
        <ele>253.2</ele>
        <time>2010-01-01T01:02:08Z</time>
      </trkpt>
      <trkpt lat="45.73624" lon="4.78282">
        <ele>253.9</ele>
        <time>2010-01-01T01:02:08Z</time>
      </trkpt>
      <trkpt lat="45.73603" lon="4.78273">
        <ele>253.4</ele>
        <time>2010-01-04T17:15:10Z</time>
      </trkpt>
      <trkpt lat="45.73582" lon="4.78256">
        <ele>253</ele>
        <time>2010-07-01T00:20:29Z</time>
      </trkpt>
      <trkpt lat="45.73569" lon="4.78242">
        <ele>252.5</ele>
        <time>2036-01-28T06:59:52Z</time>
      </trkpt>
      <trkpt lat="45.73557" lon="4.78225">
        <ele>252</ele>
        <time>3478-06-01T02:17:26Z</time>
      </trkpt>
      <trkpt lat="45.73555" lon="4.7821">
        <ele>253.2</ele>
      </trkpt>
      <trkpt lat="45.73547" lon="4.78188">
        <ele>253.7</ele>
      </trkpt>
      <trkpt lat="45.73534" lon="4.78148">
        <ele>251.6</ele>
      </trkpt>
      <trkpt lat="45.73524" lon="4.78113">
        <ele>247.5</ele>
      </trkpt>
      <trkpt lat="45.73524" lon="4.78091">
        <ele>246.4</ele>
      </trkpt>
      <trkpt lat="45.73516" lon="4.78065">
        <ele>240.7</ele>
      </trkpt>
      <trkpt lat="45.73505" lon="4.78047">
        <ele>234.8</ele>
      </trkpt>
      <trkpt lat="45.73489" lon="4.78023">
        <ele>227.8</ele>
      </trkpt>
      <trkpt lat="45.73489" lon="4.78008">
        <ele>225.2</ele>
      </trkpt>
      <trkpt lat="45.73473" lon="4.77974">
        <ele>217</ele>
        <time>2009-12-31T23:02:14Z</time>
      </trkpt>
      <trkpt lat="45.73474" lon="4.77942">
        <ele>211.2</ele>
        <time>2010-02-25T05:44:42Z</time>
      </trkpt>
      <trkpt lat="45.73479" lon="4.77896">
        <ele>205.1</ele>
        <time>2018-01-29T00:27:52Z</time>
      </trkpt>
      <trkpt lat="45.73485" lon="4.77861">
        <ele>202.8</ele>
        <time>2499-05-25T18:46:27Z</time>
      </trkpt>
      <trkpt lat="45.73483" lon="4.77824">
        <ele>201.2</ele>
      </trkpt>
      <trkpt lat="45.73478" lon="4.77788">
        <ele>200.6</ele>
      </trkpt>
      <trkpt lat="45.73471" lon="4.77753">
        <ele>199.8</ele>
      </trkpt>
      <trkpt lat="45.73466" lon="4.77732">
        <ele>199.4</ele>
      </trkpt>
      <trkpt lat="45.73461" lon="4.77698">
        <ele>198.7</ele>
      </trkpt>
      <trkpt lat="45.73457" lon="4.77675">
        <ele>198.2</ele>
      </trkpt>
      <trkpt lat="45.7346" lon="4.77648">
        <ele>198.3</ele>
      </trkpt>
      <trkpt lat="45.73469" lon="4.77607">
        <ele>199.7</ele>
        <time>2009-12-30T18:37:49Z</time>
      </trkpt>
      <trkpt lat="45.7347" lon="4.77587">
        <ele>200.3</ele>
      </trkpt>
      <trkpt lat="45.73489" lon="4.77602">
        <ele>201.7</ele>
      </trkpt>
      <trkpt lat="45.73503" lon="4.77606">
        <ele>202.5</ele>
      </trkpt>
      <trkpt lat="45.73505" lon="4.77572">
        <ele>204.6</ele>
      </trkpt>
      <trkpt lat="45.73501" lon="4.77549">
        <ele>205.7</ele>
      </trkpt>
      <trkpt lat="45.73496" lon="4.77528">
        <ele>206</ele>
      </trkpt>
      <trkpt lat="45.73496" lon="4.77504">
        <ele>207.1</ele>
      </trkpt>
      <trkpt lat="45.73485" lon="4.77477">
        <ele>205.9</ele>
        <time>2012-08-27T11:00:12Z</time>
      </trkpt>
      <trkpt lat="45.73492" lon="4.77473">
        <ele>207.2</ele>
      </trkpt>
      <trkpt lat="45.73498" lon="4.77457">
        <ele>208.7</ele>
      </trkpt>
      <trkpt lat="45.73514" lon="4.77447">
        <ele>209.6</ele>
      </trkpt>
      <trkpt lat="45.73526" lon="4.77447">
        <ele>209.8</ele>
      </trkpt>
      <trkpt lat="45.73542" lon="4.77458">
        <ele>209.8</ele>
      </trkpt>
      <trkpt lat="45.73557" lon="4.77444">
        <ele>210.5</ele>
      </trkpt>
      <trkpt lat="45.73564" lon="4.77422">
        <ele>211.4</ele>
      </trkpt>
      <trkpt lat="45.73569" lon="4.77398">
        <ele>211.2</ele>
      </trkpt>
      <trkpt lat="45.7358" lon="4.77379">
        <ele>211</ele>
      </trkpt>
      <trkpt lat="45.73588" lon="4.77367">
        <ele>210.9</ele>
      </trkpt>
      <trkpt lat="45.736" lon="4.7735">
        <ele>210.7</ele>
      </trkpt>
      <trkpt lat="45.73607" lon="4.77339">
        <ele>210.7</ele>
      </trkpt>
      <trkpt lat="45.73616" lon="4.77324">
        <ele>210.8</ele>
      </trkpt>
      <trkpt lat="45.73626" lon="4.77304">
        <ele>211</ele>
        <time>2152-01-17T02:04:01Z</time>
      </trkpt>
      <trkpt lat="45.73634" lon="4.77271">
        <ele>211.1</ele>
      </trkpt>
      <trkpt lat="45.73642" lon="4.77234">
        <ele>210.9</ele>
      </trkpt>
      <trkpt lat="45.73646" lon="4.7721">
        <ele>210.8</ele>
      </trkpt>
      <trkpt lat="45.73648" lon="4.77186">
        <ele>210.6</ele>
      </trkpt>
      <trkpt lat="45.73647" lon="4.77166">
        <ele>210.4</ele>
      </trkpt>
      <trkpt lat="45.73647" lon="4.77133">
        <ele>209.8</ele>
      </trkpt>
      <trkpt lat="45.73644" lon="4.77113">
        <ele>209.6</ele>
      </trkpt>
      <trkpt lat="45.73646" lon="4.771">
        <ele>209.3</ele>
      </trkpt>
      <trkpt lat="45.73655" lon="4.77093">
        <ele>208.8</ele>
      </trkpt>
      <trkpt lat="45.73664" lon="4.7708">
        <ele>207.7</ele>
      </trkpt>
      <trkpt lat="45.73681" lon="4.77064">
        <ele>205.6</ele>
        <time>2009-12-16T08:17:30Z</time>
      </trkpt>
      <trkpt lat="45.73695" lon="4.77039">
        <ele>202.5</ele>
        <time>2127-04-25T14:41:42Z</time>
      </trkpt>
      <trkpt lat="45.737" lon="4.77016">
        <ele>199.6</ele>
        <time>2009-08-06T05:09:02Z</time>
      </trkpt>
      <trkpt lat="45.73692" lon="4.7698">
        <ele>196.3</ele>
        <time>2404-09-16T04:29:19Z</time>
      </trkpt>
      <trkpt lat="45.73683" lon="4.76962">
        <ele>194.7</ele>
      </trkpt>
      <trkpt lat="45.73682" lon="4.76938">
        <ele>192.4</ele>
      </trkpt>
      <trkpt lat="45.73686" lon="4.76909">
        <ele>190.7</ele>
      </trkpt>
      <trkpt lat="45.73684" lon="4.76863">
        <ele>192.2</ele>
        <time>2006-04-08T01:10:15Z</time>
      </trkpt>
      <trkpt lat="45.73703" lon="4.76861">
        <ele>191.8</ele>
        <time>4773-07-19T08:43:42Z</time>
      </trkpt>
      <trkpt lat="45.73727" lon="4.76848">
        <ele>191.2</ele>
      </trkpt>
      <trkpt lat="45.73742" lon="4.76841">
        <ele>190.5</ele>
      </trkpt>
      <trkpt lat="45.73752" lon="4.76824">
        <ele>190.9</ele>
      </trkpt>
      <trkpt lat="45.73765" lon="4.76808">
        <ele>192.1</ele>
      </trkpt>
      <trkpt lat="45.73774" lon="4.76787">
        <ele>193.4</ele>
      </trkpt>
      <trkpt lat="45.73783" lon="4.76767">
        <ele>194.2</ele>
      </trkpt>
      <trkpt lat="45.73793" lon="4.76741">
        <ele>195.4</ele>
        <time>1976-09-27T00:13:55Z</time>
      </trkpt>
      <trkpt lat="45.73765" lon="4.76745">
        <ele>197.4</ele>
      </trkpt>
      <trkpt lat="45.73736" lon="4.76745">
        <ele>200.4</ele>
      </trkpt>
      <trkpt lat="45.7372" lon="4.76726">
        <ele>205.3</ele>
        <time>2633-08-29T19:46:45Z</time>
      </trkpt>
      <trkpt lat="45.73727" lon="4.76697">
        <ele>209.1</ele>
        <time>3472-03-19T05:20:39Z</time>
      </trkpt>
      <trkpt lat="45.73732" lon="4.7667">
        <ele>212.7</ele>
        <time>4454-08-28T22:03:56Z</time>
      </trkpt>
      <trkpt lat="45.73725" lon="4.76629">
        <ele>222.3</ele>
        <time>5627-08-08T16:05:53Z</time>
      </trkpt>
      <trkpt lat="45.73723" lon="4.76587">
        <ele>231.7</ele>
        <time>7344-05-07T21:25:22Z</time>
      </trkpt>
      <trkpt lat="45.73721" lon="4.76561">
        <ele>235.6</ele>
      </trkpt>
      <trkpt lat="45.73713" lon="4.7654">
        <ele>239.3</ele>
      </trkpt>
      <trkpt lat="45.7373" lon="4.76513">
        <ele>242</ele>
      </trkpt>
      <trkpt lat="45.73754" lon="4.76493">
        <ele>242.9</ele>
      </trkpt>
      <trkpt lat="45.73759" lon="4.76466">
        <ele>243.7</ele>
      </trkpt>
      <trkpt lat="45.73787" lon="4.76471">
        <ele>240.1</ele>
      </trkpt>
      <trkpt lat="45.73805" lon="4.76471">
        <ele>238</ele>
      </trkpt>
      <trkpt lat="45.73827" lon="4.76471">
        <ele>235.4</ele>
      </trkpt>
      <trkpt lat="45.73843" lon="4.76469">
        <ele>233.4</ele>
      </trkpt>
      <trkpt lat="45.73856" lon="4.76464">
        <ele>232.5</ele>
      </trkpt>
      <trkpt lat="45.73872" lon="4.76447">
        <ele>233.4</ele>
      </trkpt>
      <trkpt lat="45.73888" lon="4.76434">
        <ele>233.7</ele>
      </trkpt>
      <trkpt lat="45.73904" lon="4.76423">
        <ele>234.1</ele>
      </trkpt>
      <trkpt lat="45.73928" lon="4.76412">
        <ele>232.8</ele>
      </trkpt>
      <trkpt lat="45.73963" lon="4.76407">
        <ele>228.5</ele>
      </trkpt>
      <trkpt lat="45.7399" lon="4.76383">
        <ele>228.1</ele>
      </trkpt>
      <trkpt lat="45.74011" lon="4.76361">
        <ele>228.3</ele>
      </trkpt>
      <trkpt lat="45.74029" lon="4.76346">
        <ele>227.9</ele>
      </trkpt>
      <trkpt lat="45.74045" lon="4.76331">
        <ele>227.8</ele>
      </trkpt>
      <trkpt lat="45.74076" lon="4.76317">
        <ele>225.1</ele>
      </trkpt>
      <trkpt lat="45.74097" lon="4.76311">
        <ele>222.3</ele>
      </trkpt>
      <trkpt lat="45.74121" lon="4.76296">
        <ele>220.8</ele>
      </trkpt>
      <trkpt lat="45.74136" lon="4.76284">
        <ele>220.7</ele>
      </trkpt>
      <trkpt lat="45.74163" lon="4.7627">
        <ele>219.5</ele>
      </trkpt>
      <trkpt lat="45.74173" lon="4.76273">
        <ele>217.6</ele>
      </trkpt>
      <trkpt lat="45.74189" lon="4.7628">
        <ele>213.9</ele>
      </trkpt>
      <trkpt lat="45.742" lon="4.76283">
        <ele>211.9</ele>
      </trkpt>
      <trkpt lat="45.74213" lon="4.7628">
        <ele>210.6</ele>
      </trkpt>
      <trkpt lat="45.74223" lon="4.76264">
        <ele>212.1</ele>
      </trkpt>
      <trkpt lat="45.74233" lon="4.7626">
        <ele>211</ele>
      </trkpt>
      <trkpt lat="45.74243" lon="4.76242">
        <ele>212.1</ele>
      </trkpt>
      <trkpt lat="45.74259" lon="4.76226">
        <ele>211.3</ele>
      </trkpt>
      <trkpt lat="45.74271" lon="4.76239">
        <ele>208</ele>
      </trkpt>
      <trkpt lat="45.74282" lon="4.7625">
        <ele>205.4</ele>
      </trkpt>
      <trkpt lat="45.74285" lon="4.76269">
        <ele>203.5</ele>
      </trkpt>
      <trkpt lat="45.74274" lon="4.76285">
        <ele>203.1</ele>
      </trkpt>
      <trkpt lat="45.74263" lon="4.76307">
        <ele>201.4</ele>
      </trkpt>
      <trkpt lat="45.7425" lon="4.76328">
        <ele>199</ele>
      </trkpt>
      <trkpt lat="45.74243" lon="4.76344">
        <ele>198.7</ele>
      </trkpt>
      <trkpt lat="45.74244" lon="4.76363">
        <ele>198.7</ele>
      </trkpt>
      <trkpt lat="45.74243" lon="4.76379">
        <ele>198.7</ele>
      </trkpt>
      <trkpt lat="45.74265" lon="4.76363">
        <ele>199</ele>
      </trkpt>
      <trkpt lat="45.74279" lon="4.76351">
        <ele>199.1</ele>
      </trkpt>
      <trkpt lat="45.74292" lon="4.76339">
        <ele>198.8</ele>
      </trkpt>
      <trkpt lat="45.74304" lon="4.76331">
        <ele>198.8</ele>
      </trkpt>
      <trkpt lat="45.74317" lon="4.76323">
        <ele>199</ele>
      </trkpt>
      <trkpt lat="45.7433" lon="4.76309">
        <ele>198.8</ele>
      </trkpt>
      <trkpt lat="45.74339" lon="4.76303">
        <ele>199.3</ele>
      </trkpt>
      <trkpt lat="45.74351" lon="4.76288">
        <ele>200.3</ele>
      </trkpt>
      <trkpt lat="45.74365" lon="4.76275">
        <ele>201.2</ele>
      </trkpt>
      <trkpt lat="45.74371" lon="4.76263">
        <ele>201.2</ele>
      </trkpt>
      <trkpt lat="45.74379" lon="4.76247">
        <ele>201.7</ele>
      </trkpt>
      <trkpt lat="45.74385" lon="4.76224">
        <ele>204.1</ele>
      </trkpt>
      <trkpt lat="45.74378" lon="4.76207">
        <ele>205.1</ele>
      </trkpt>
      <trkpt lat="45.74368" lon="4.76183">
        <ele>205.9</ele>
      </trkpt>
      <trkpt lat="45.7436" lon="4.76158">
        <ele>206.3</ele>
      </trkpt>
      <trkpt lat="45.74354" lon="4.76124">
        <ele>205.8</ele>
      </trkpt>
      <trkpt lat="45.74353" lon="4.76106">
        <ele>205.7</ele>
      </trkpt>
      <trkpt lat="45.74353" lon="4.76079">
        <ele>205.9</ele>
      </trkpt>
      <trkpt lat="45.74349" lon="4.76052">
        <ele>206.2</ele>
      </trkpt>
      <trkpt lat="45.74352" lon="4.76026">
        <ele>208.2</ele>
      </trkpt>
      <trkpt lat="45.74358" lon="4.76007">
        <ele>210.9</ele>
      </trkpt>
      <trkpt lat="45.74361" lon="4.75986">
        <ele>213</ele>
      </trkpt>
      <trkpt lat="45.74368" lon="4.75964">
        <ele>216.6</ele>
      </trkpt>
      <trkpt lat="45.74371" lon="4.75942">
        <ele>219.2</ele>
      </trkpt>
      <trkpt lat="45.74371" lon="4.75925">
        <ele>220.4</ele>
      </trkpt>
      <trkpt lat="45.74373" lon="4.75903">
        <ele>222.2</ele>
      </trkpt>
      <trkpt lat="45.74371" lon="4.75867">
        <ele>223</ele>
      </trkpt>
      <trkpt lat="45.74373" lon="4.75854">
        <ele>224.6</ele>
      </trkpt>
      <trkpt lat="45.74372" lon="4.75831">
        <ele>225.4</ele>
      </trkpt>
      <trkpt lat="45.7437" lon="4.75811">
        <ele>226.3</ele>
      </trkpt>
      <trkpt lat="45.74364" lon="4.75794">
        <ele>226.1</ele>
      </trkpt>
      <trkpt lat="45.74358" lon="4.75777">
        <ele>225.9</ele>
      </trkpt>
      <trkpt lat="45.74351" lon="4.75754">
        <ele>226.4</ele>
      </trkpt>
      <trkpt lat="45.74344" lon="4.75727">
        <ele>226.3</ele>
      </trkpt>
      <trkpt lat="45.7434" lon="4.75704">
        <ele>226.9</ele>
      </trkpt>
      <trkpt lat="45.7434" lon="4.75684">
        <ele>228.3</ele>
      </trkpt>
      <trkpt lat="45.74337" lon="4.75666">
        <ele>228.7</ele>
      </trkpt>
      <trkpt lat="45.74333" lon="4.75639">
        <ele>229.6</ele>
      </trkpt>
      <trkpt lat="45.74331" lon="4.75618">
        <ele>230.7</ele>
      </trkpt>
      <trkpt lat="45.74326" lon="4.75599">
        <ele>230.8</ele>
      </trkpt>
      <trkpt lat="45.74321" lon="4.75579">
        <ele>230.9</ele>
      </trkpt>
      <trkpt lat="45.74304" lon="4.75558">
        <ele>229</ele>
      </trkpt>
      <trkpt lat="45.7429" lon="4.7555">
        <ele>226.7</ele>
      </trkpt>
      <trkpt lat="45.74273" lon="4.75542">
        <ele>223.9</ele>
      </trkpt>
      <trkpt lat="45.74253" lon="4.75536">
        <ele>220.5</ele>
      </trkpt>
      <trkpt lat="45.74235" lon="4.7553">
        <ele>219.8</ele>
      </trkpt>
      <trkpt lat="45.74222" lon="4.75526">
        <ele>219.4</ele>
      </trkpt>
      <trkpt lat="45.74206" lon="4.7551">
        <ele>218.2</ele>
      </trkpt>
      <trkpt lat="45.74195" lon="4.75493">
        <ele>217.5</ele>
      </trkpt>
      <trkpt lat="45.74184" lon="4.75472">
        <ele>219.2</ele>
      </trkpt>
      <trkpt lat="45.74188" lon="4.75454">
        <ele>222</ele>
      </trkpt>
      <trkpt lat="45.74191" lon="4.75435">
        <ele>224.8</ele>
      </trkpt>
      <trkpt lat="45.74192" lon="4.7542">
        <ele>226.9</ele>
      </trkpt>
      <trkpt lat="45.74191" lon="4.75407">
        <ele>228.1</ele>
      </trkpt>
      <trkpt lat="45.74182" lon="4.75392">
        <ele>227.9</ele>
      </trkpt>
      <trkpt lat="45.7417" lon="4.75365">
        <ele>228.5</ele>
      </trkpt>
      <trkpt lat="45.74168" lon="4.75349">
        <ele>229.7</ele>
      </trkpt>
      <trkpt lat="45.74166" lon="4.75337">
        <ele>230.5</ele>
      </trkpt>
      <trkpt lat="45.74164" lon="4.75311">
        <ele>230.1</ele>
      </trkpt>
      <trkpt lat="45.74162" lon="4.75284">
        <ele>229</ele>
      </trkpt>
      <trkpt lat="45.74158" lon="4.75264">
        <ele>227.8</ele>
      </trkpt>
      <trkpt lat="45.74145" lon="4.75229">
        <ele>224.9</ele>
      </trkpt>
      <trkpt lat="45.74134" lon="4.75187">
        <ele>221.9</ele>
      </trkpt>
      <trkpt lat="45.74132" lon="4.75157">
        <ele>222</ele>
      </trkpt>
      <trkpt lat="45.74134" lon="4.75132">
        <ele>224.5</ele>
      </trkpt>
      <trkpt lat="45.74136" lon="4.75111">
        <ele>226.9</ele>
      </trkpt>
      <trkpt lat="45.74139" lon="4.75091">
        <ele>229.5</ele>
      </trkpt>
      <trkpt lat="45.74143" lon="4.75065">
        <ele>231</ele>
      </trkpt>
      <trkpt lat="45.74144" lon="4.75056">
        <ele>231.3</ele>
      </trkpt>
      <trkpt lat="45.74153" lon="4.75032">
        <ele>233.3</ele>
      </trkpt>
      <trkpt lat="45.74156" lon="4.75008">
        <ele>233.6</ele>
      </trkpt>
      <trkpt lat="45.74156" lon="4.74995">
        <ele>232.8</ele>
      </trkpt>
      <trkpt lat="45.74163" lon="4.74975">
        <ele>231.4</ele>
      </trkpt>
      <trkpt lat="45.74177" lon="4.74957">
        <ele>230.8</ele>
      </trkpt>
      <trkpt lat="45.74182" lon="4.74937">
        <ele>228.2</ele>
      </trkpt>
      <trkpt lat="45.74195" lon="4.74939">
        <ele>229.8</ele>
      </trkpt>
      <trkpt lat="45.74212" lon="4.74929">
        <ele>230.2</ele>
      </trkpt>
      <trkpt lat="45.74224" lon="4.74924">
        <ele>230.5</ele>
      </trkpt>
      <trkpt lat="45.74243" lon="4.74917">
        <ele>231.2</ele>
      </trkpt>
      <trkpt lat="45.74266" lon="4.74915">
        <ele>230.5</ele>
      </trkpt>
      <trkpt lat="45.74286" lon="4.74904">
        <ele>227.7</ele>
      </trkpt>
      <trkpt lat="45.74305" lon="4.74902">
        <ele>226.2</ele>
      </trkpt>
      <trkpt lat="45.74326" lon="4.74904">
        <ele>225.2</ele>
      </trkpt>
      <trkpt lat="45.74344" lon="4.74902">
        <ele>225.6</ele>
      </trkpt>
      <trkpt lat="45.74358" lon="4.74915">
        <ele>227.8</ele>
      </trkpt>
      <trkpt lat="45.74367" lon="4.74935">
        <ele>232.9</ele>
      </trkpt>
      <trkpt lat="45.74376" lon="4.74952">
        <ele>237.1</ele>
      </trkpt>
      <trkpt lat="45.74386" lon="4.74965">
        <ele>240.2</ele>
      </trkpt>
      <trkpt lat="45.74415" lon="4.7496">
        <ele>240.2</ele>
      </trkpt>
      <trkpt lat="45.74432" lon="4.74972">
        <ele>244.2</ele>
      </trkpt>
      <trkpt lat="45.74447" lon="4.74975">
        <ele>246.7</ele>
      </trkpt>
      <trkpt lat="45.74461" lon="4.74976">
        <ele>248.7</ele>
      </trkpt>
      <trkpt lat="45.74479" lon="4.74993">
        <ele>251.9</ele>
      </trkpt>
      <trkpt lat="45.74491" lon="4.75006">
        <ele>253.2</ele>
      </trkpt>
      <trkpt lat="45.74511" lon="4.75031">
        <ele>253.3</ele>
      </trkpt>
      <trkpt lat="45.74531" lon="4.75029">
        <ele>252.7</ele>
      </trkpt>
      <trkpt lat="45.74537" lon="4.75013">
        <ele>252.6</ele>
      </trkpt>
      <trkpt lat="45.74547" lon="4.74977">
        <ele>252.8</ele>
      </trkpt>
      <trkpt lat="45.74553" lon="4.74957">
        <ele>253.2</ele>
      </trkpt>
      <trkpt lat="45.74558" lon="4.74934">
        <ele>253.9</ele>
      </trkpt>
      <trkpt lat="45.74565" lon="4.74916">
        <ele>254.6</ele>
      </trkpt>
      <trkpt lat="45.7457" lon="4.74902">
        <ele>255.1</ele>
      </trkpt>
      <trkpt lat="45.74569" lon="4.74881">
        <ele>255.6</ele>
      </trkpt>
      <trkpt lat="45.74572" lon="4.74863">
        <ele>256.3</ele>
      </trkpt>
      <trkpt lat="45.74575" lon="4.74846">
        <ele>256.9</ele>
      </trkpt>
      <trkpt lat="45.74579" lon="4.74813">
        <ele>257.9</ele>
      </trkpt>
      <trkpt lat="45.74567" lon="4.74793">
        <ele>257.3</ele>
      </trkpt>
      <trkpt lat="45.74544" lon="4.74749">
        <ele>256.1</ele>
      </trkpt>
      <trkpt lat="45.74538" lon="4.74724">
        <ele>255.9</ele>
      </trkpt>
      <trkpt lat="45.74534" lon="4.74693">
        <ele>255.7</ele>
      </trkpt>
      <trkpt lat="45.74538" lon="4.74673">
        <ele>256.1</ele>
      </trkpt>
      <trkpt lat="45.74527" lon="4.74647">
        <ele>256.5</ele>
      </trkpt>
      <trkpt lat="45.74518" lon="4.74616">
        <ele>257.7</ele>
      </trkpt>
      <trkpt lat="45.74505" lon="4.74607">
        <ele>257.5</ele>
      </trkpt>
      <trkpt lat="45.74495" lon="4.74573">
        <ele>258.7</ele>
      </trkpt>
      <trkpt lat="45.74481" lon="4.74555">
        <ele>257.4</ele>
      </trkpt>
      <trkpt lat="45.74477" lon="4.74522">
        <ele>257.7</ele>
      </trkpt>
      <trkpt lat="45.74467" lon="4.74491">
        <ele>256.9</ele>
      </trkpt>
      <trkpt lat="45.74463" lon="4.74461">
        <ele>256</ele>
      </trkpt>
      <trkpt lat="45.74452" lon="4.7442">
        <ele>254.5</ele>
      </trkpt>
      <trkpt lat="45.74429" lon="4.74372">
        <ele>254.5</ele>
      </trkpt>
      <trkpt lat="45.74409" lon="4.74354">
        <ele>253.5</ele>
      </trkpt>
      <trkpt lat="45.74385" lon="4.74331">
        <ele>251.3</ele>
      </trkpt>
      <trkpt lat="45.74377" lon="4.74318">
        <ele>251.3</ele>
      </trkpt>
      <trkpt lat="45.7436" lon="4.74278">
        <ele>252.5</ele>
      </trkpt>
      <trkpt lat="45.74345" lon="4.74248">
        <ele>253</ele>
      </trkpt>
      <trkpt lat="45.74337" lon="4.74219">
        <ele>252.7</ele>
      </trkpt>
      <trkpt lat="45.7433" lon="4.74163">
        <ele>253.2</ele>
      </trkpt>
      <trkpt lat="45.74324" lon="4.74107">
        <ele>254.3</ele>
      </trkpt>
      <trkpt lat="45.74317" lon="4.74066">
        <ele>254.3</ele>
      </trkpt>
      <trkpt lat="45.74296" lon="4.74026">
        <ele>250.5</ele>
      </trkpt>
      <trkpt lat="45.74259" lon="4.73959">
        <ele>248.1</ele>
      </trkpt>
      <trkpt lat="45.74225" lon="4.73896">
        <ele>247.9</ele>
      </trkpt>
      <trkpt lat="45.74213" lon="4.73872">
        <ele>246.7</ele>
      </trkpt>
      <trkpt lat="45.74197" lon="4.73823">
        <ele>245.7</ele>
      </trkpt>
      <trkpt lat="45.74184" lon="4.73789">
        <ele>243.6</ele>
      </trkpt>
      <trkpt lat="45.74166" lon="4.73735">
        <ele>241.2</ele>
      </trkpt>
      <trkpt lat="45.74171" lon="4.73704">
        <ele>243.1</ele>
      </trkpt>
      <trkpt lat="45.74183" lon="4.73675">
        <ele>246</ele>
      </trkpt>
      <trkpt lat="45.74189" lon="4.73646">
        <ele>248.6</ele>
      </trkpt>
      <trkpt lat="45.74196" lon="4.73621">
        <ele>251.6</ele>
      </trkpt>
      <trkpt lat="45.74202" lon="4.73567">
        <ele>254.8</ele>
      </trkpt>
      <trkpt lat="45.74206" lon="4.73538">
        <ele>255.1</ele>
      </trkpt>
      <trkpt lat="45.74212" lon="4.73496">
        <ele>255.6</ele>
      </trkpt>
      <trkpt lat="45.74217" lon="4.73477">
        <ele>256.4</ele>
      </trkpt>
      <trkpt lat="45.74227" lon="4.73452">
        <ele>258</ele>
      </trkpt>
      <trkpt lat="45.74234" lon="4.73412">
        <ele>259.5</ele>
      </trkpt>
      <trkpt lat="45.74222" lon="4.7338">
        <ele>257.2</ele>
      </trkpt>
      <trkpt lat="45.74212" lon="4.73345">
        <ele>255.6</ele>
      </trkpt>
      <trkpt lat="45.74195" lon="4.73302">
        <ele>252.2</ele>
      </trkpt>
      <trkpt lat="45.74189" lon="4.73278">
        <ele>251.2</ele>
      </trkpt>
      <trkpt lat="45.74171" lon="4.73231">
        <ele>249.4</ele>
      </trkpt>
      <trkpt lat="45.74129" lon="4.73193">
        <ele>245.4</ele>
      </trkpt>
      <trkpt lat="45.74075" lon="4.73157">
        <ele>244.4</ele>
      </trkpt>
      <trkpt lat="45.74027" lon="4.73144">
        <ele>246</ele>
      </trkpt>
      <trkpt lat="45.73985" lon="4.73144">
        <ele>245.6</ele>
      </trkpt>
      <trkpt lat="45.73939" lon="4.73157">
        <ele>242.4</ele>
      </trkpt>
      <trkpt lat="45.73871" lon="4.73231">
        <ele>236.1</ele>
      </trkpt>
      <trkpt lat="45.73835" lon="4.73233">
        <ele>238.3</ele>
      </trkpt>
      <trkpt lat="45.73805" lon="4.73187">
        <ele>240.7</ele>
      </trkpt>
      <trkpt lat="45.73805" lon="4.73126">
        <ele>245.5</ele>
      </trkpt>
      <trkpt lat="45.73803" lon="4.73047">
        <ele>249.5</ele>
      </trkpt>
      <trkpt lat="45.73805" lon="4.72991">
        <ele>250.3</ele>
      </trkpt>
      <trkpt lat="45.73807" lon="4.7291">
        <ele>248</ele>
      </trkpt>
      <trkpt lat="45.73805" lon="4.72849">
        <ele>245.2</ele>
      </trkpt>
      <trkpt lat="45.73789" lon="4.72762">
        <ele>242.1</ele>
      </trkpt>
      <trkpt lat="45.73766" lon="4.72696">
        <ele>241.6</ele>
      </trkpt>
      <trkpt lat="45.73759" lon="4.72658">
        <ele>242.4</ele>
      </trkpt>
      <trkpt lat="45.73777" lon="4.72619">
        <ele>246.3</ele>
      </trkpt>
      <trkpt lat="45.7378" lon="4.72576">
        <ele>248.7</ele>
      </trkpt>
      <trkpt lat="45.73757" lon="4.72518">
        <ele>246.6</ele>
      </trkpt>
      <trkpt lat="45.73755" lon="4.72459">
        <ele>248.3</ele>
      </trkpt>
      <trkpt lat="45.73738" lon="4.72416">
        <ele>248.6</ele>
      </trkpt>
      <trkpt lat="45.7372" lon="4.72362">
        <ele>250.4</ele>
      </trkpt>
      <trkpt lat="45.73711" lon="4.72316">
        <ele>251.3</ele>
      </trkpt>
      <trkpt lat="45.73707" lon="4.7227">
        <ele>252.3</ele>
      </trkpt>
      <trkpt lat="45.73615" lon="4.7225">
        <ele>244.5</ele>
      </trkpt>
      <trkpt lat="45.73576" lon="4.72217">
        <ele>242.9</ele>
      </trkpt>
      <trkpt lat="45.73562" lon="4.72141">
        <ele>243.9</ele>
      </trkpt>
      <trkpt lat="45.73555" lon="4.72054">
        <ele>248.7</ele>
      </trkpt>
      <trkpt lat="45.73565" lon="4.71995">
        <ele>252.8</ele>
      </trkpt>
      <trkpt lat="45.73533" lon="4.72069">
        <ele>246.3</ele>
      </trkpt>
      <trkpt lat="45.73539" lon="4.72102">
        <ele>245.1</ele>
      </trkpt>
      <trkpt lat="45.73546" lon="4.72137">
        <ele>243.8</ele>
      </trkpt>
      <trkpt lat="45.73547" lon="4.72189">
        <ele>243.2</ele>
      </trkpt>
      <trkpt lat="45.73531" lon="4.72225">
        <ele>245</ele>
      </trkpt>
      <trkpt lat="45.73555" lon="4.72269">
        <ele>247</ele>
      </trkpt>
      <trkpt lat="45.73558" lon="4.72293">
        <ele>249.9</ele>
      </trkpt>
      <trkpt lat="45.73534" lon="4.7228">
        <ele>249.5</ele>
      </trkpt>
      <trkpt lat="45.73513" lon="4.72258">
        <ele>247.9</ele>
      </trkpt>
      <trkpt lat="45.73499" lon="4.72236">
        <ele>247.4</ele>
      </trkpt>
      <trkpt lat="45.7348" lon="4.72197">
        <ele>249</ele>
      </trkpt>
      <trkpt lat="45.73473" lon="4.72165">
        <ele>249.4</ele>
      </trkpt>
      <trkpt lat="45.73459" lon="4.72139">
        <ele>252.6</ele>
      </trkpt>
      <trkpt lat="45.73451" lon="4.72113">
        <ele>254.3</ele>
      </trkpt>
      <trkpt lat="45.73432" lon="4.72097">
        <ele>258.6</ele>
      </trkpt>
      <trkpt lat="45.73421" lon="4.72067">
        <ele>261.4</ele>
      </trkpt>
      <trkpt lat="45.73417" lon="4.72037">
        <ele>263.1</ele>
      </trkpt>
      <trkpt lat="45.73395" lon="4.72021">
        <ele>266.3</ele>
      </trkpt>
      <trkpt lat="45.73362" lon="4.72022">
        <ele>270.4</ele>
      </trkpt>
      <trkpt lat="45.73337" lon="4.72022">
        <ele>273.6</ele>
      </trkpt>
      <trkpt lat="45.73311" lon="4.72023">
        <ele>274.6</ele>
      </trkpt>
      <trkpt lat="45.7329" lon="4.72016">
        <ele>275.1</ele>
      </trkpt>
      <trkpt lat="45.73243" lon="4.72008">
        <ele>276.3</ele>
      </trkpt>
      <trkpt lat="45.73214" lon="4.72002">
        <ele>277.3</ele>
      </trkpt>
      <trkpt lat="45.73178" lon="4.71998">
        <ele>278.5</ele>
      </trkpt>
      <trkpt lat="45.7316" lon="4.72006">
        <ele>279.3</ele>
      </trkpt>
      <trkpt lat="45.73165" lon="4.72038">
        <ele>279</ele>
      </trkpt>
      <trkpt lat="45.73169" lon="4.72059">
        <ele>278.9</ele>
      </trkpt>
      <trkpt lat="45.73173" lon="4.72104">
        <ele>278.1</ele>
      </trkpt>
      <trkpt lat="45.73178" lon="4.72133">
        <ele>277</ele>
      </trkpt>
      <trkpt lat="45.7318" lon="4.72172">
        <ele>275.7</ele>
      </trkpt>
      <trkpt lat="45.73188" lon="4.72197">
        <ele>274.5</ele>
      </trkpt>
      <trkpt lat="45.73186" lon="4.72246">
        <ele>272.4</ele>
      </trkpt>
      <trkpt lat="45.73183" lon="4.72273">
        <ele>270.9</ele>
      </trkpt>
      <trkpt lat="45.73176" lon="4.72303">
        <ele>269.1</ele>
      </trkpt>
      <trkpt lat="45.73167" lon="4.72344">
        <ele>266.3</ele>
      </trkpt>
      <trkpt lat="45.73162" lon="4.72377">
        <ele>263.8</ele>
      </trkpt>
      <trkpt lat="45.73181" lon="4.72396">
        <ele>262.8</ele>
      </trkpt>
      <trkpt lat="45.73203" lon="4.72415">
        <ele>262.1</ele>
      </trkpt>
      <trkpt lat="45.73219" lon="4.72423">
        <ele>261.4</ele>
      </trkpt>
      <trkpt lat="45.73237" lon="4.72435">
        <ele>260.4</ele>
      </trkpt>
      <trkpt lat="45.73251" lon="4.72443">
        <ele>259.3</ele>
      </trkpt>
      <trkpt lat="45.73274" lon="4.72456">
        <ele>258.1</ele>
      </trkpt>
      <trkpt lat="45.73297" lon="4.72473">
        <ele>256.2</ele>
      </trkpt>
      <trkpt lat="45.73304" lon="4.72482">
        <ele>255.1</ele>
      </trkpt>
      <trkpt lat="45.73318" lon="4.72495">
        <ele>253.6</ele>
      </trkpt>
      <trkpt lat="45.73336" lon="4.72528">
        <ele>248.9</ele>
      </trkpt>
      <trkpt lat="45.73339" lon="4.7254">
        <ele>247.1</ele>
      </trkpt>
      <trkpt lat="45.73343" lon="4.72577">
        <ele>241.6</ele>
      </trkpt>
      <trkpt lat="45.73343" lon="4.72594">
        <ele>240.8</ele>
      </trkpt>
      <trkpt lat="45.73355" lon="4.7262">
        <ele>241.6</ele>
      </trkpt>
      <trkpt lat="45.73361" lon="4.7264">
        <ele>241.9</ele>
      </trkpt>
      <trkpt lat="45.7334" lon="4.72665">
        <ele>242</ele>
      </trkpt>
      <trkpt lat="45.73331" lon="4.72693">
        <ele>246.1</ele>
      </trkpt>
      <trkpt lat="45.73324" lon="4.72734">
        <ele>252</ele>
      </trkpt>
      <trkpt lat="45.73316" lon="4.72765">
        <ele>255.6</ele>
      </trkpt>
      <trkpt lat="45.73309" lon="4.72799">
        <ele>258.7</ele>
      </trkpt>
      <trkpt lat="45.73304" lon="4.72841">
        <ele>262.2</ele>
      </trkpt>
      <trkpt lat="45.73305" lon="4.72869">
        <ele>263.7</ele>
      </trkpt>
      <trkpt lat="45.73295" lon="4.72902">
        <ele>264</ele>
      </trkpt>
      <trkpt lat="45.73281" lon="4.72927">
        <ele>264.1</ele>
      </trkpt>
      <trkpt lat="45.73261" lon="4.72966">
        <ele>265.9</ele>
      </trkpt>
      <trkpt lat="45.73254" lon="4.73001">
        <ele>269.1</ele>
      </trkpt>
      <trkpt lat="45.73256" lon="4.7305">
        <ele>268.7</ele>
      </trkpt>
      <trkpt lat="45.73255" lon="4.73088">
        <ele>268.5</ele>
      </trkpt>
      <trkpt lat="45.73249" lon="4.73121">
        <ele>270.1</ele>
      </trkpt>
      <trkpt lat="45.7323" lon="4.73163">
        <ele>270.8</ele>
      </trkpt>
      <trkpt lat="45.73208" lon="4.73193">
        <ele>272.9</ele>
      </trkpt>
      <trkpt lat="45.73172" lon="4.73218">
        <ele>274.5</ele>
      </trkpt>
      <trkpt lat="45.73151" lon="4.73231">
        <ele>274.9</ele>
      </trkpt>
      <trkpt lat="45.73124" lon="4.73241">
        <ele>273.6</ele>
      </trkpt>
      <trkpt lat="45.73103" lon="4.73277">
        <ele>275.7</ele>
      </trkpt>
      <trkpt lat="45.73091" lon="4.733">
        <ele>277.8</ele>
      </trkpt>
      <trkpt lat="45.7305" lon="4.73322">
        <ele>276.1</ele>
      </trkpt>
      <trkpt lat="45.73029" lon="4.73335">
        <ele>275</ele>
      </trkpt>
      <trkpt lat="45.72987" lon="4.73366">
        <ele>275.1</ele>
      </trkpt>
      <trkpt lat="45.72967" lon="4.73415">
        <ele>278.8</ele>
      </trkpt>
      <trkpt lat="45.72957" lon="4.73437">
        <ele>280.7</ele>
      </trkpt>
      <trkpt lat="45.72932" lon="4.73472">
        <ele>283.1</ele>
      </trkpt>
      <trkpt lat="45.72927" lon="4.7348">
        <ele>284</ele>
      </trkpt>
      <trkpt lat="45.72891" lon="4.73506">
        <ele>283.7</ele>
      </trkpt>
      <trkpt lat="45.72863" lon="4.73536">
        <ele>285.7</ele>
      </trkpt>
      <trkpt lat="45.72828" lon="4.73544">
        <ele>283.8</ele>
      </trkpt>
      <trkpt lat="45.72802" lon="4.73558">
        <ele>284.9</ele>
      </trkpt>
      <trkpt lat="45.72788" lon="4.7357">
        <ele>286.4</ele>
      </trkpt>
      <trkpt lat="45.72733" lon="4.7357">
        <ele>283.8</ele>
      </trkpt>
      <trkpt lat="45.72706" lon="4.73574">
        <ele>283.1</ele>
      </trkpt>
      <trkpt lat="45.72676" lon="4.7357">
        <ele>280.9</ele>
      </trkpt>
      <trkpt lat="45.7265" lon="4.73564">
        <ele>279.5</ele>
      </trkpt>
      <trkpt lat="45.72614" lon="4.73557">
        <ele>278</ele>
      </trkpt>
      <trkpt lat="45.72585" lon="4.73564">
        <ele>277.9</ele>
      </trkpt>
      <trkpt lat="45.72554" lon="4.73575">
        <ele>277.9</ele>
      </trkpt>
      <trkpt lat="45.72525" lon="4.73613">
        <ele>279.7</ele>
      </trkpt>
      <trkpt lat="45.72502" lon="4.73651">
        <ele>281.2</ele>
      </trkpt>
      <trkpt lat="45.72471" lon="4.7368">
        <ele>281.6</ele>
      </trkpt>
      <trkpt lat="45.72441" lon="4.73712">
        <ele>282.1</ele>
      </trkpt>
      <trkpt lat="45.72407" lon="4.73737">
        <ele>282.2</ele>
      </trkpt>
      <trkpt lat="45.7237" lon="4.73758">
        <ele>282.6</ele>
      </trkpt>
      <trkpt lat="45.72336" lon="4.73774">
        <ele>282.8</ele>
      </trkpt>
      <trkpt lat="45.72307" lon="4.73806">
        <ele>284.5</ele>
      </trkpt>
      <trkpt lat="45.72278" lon="4.73835">
        <ele>286.3</ele>
      </trkpt>
      <trkpt lat="45.72256" lon="4.73894">
        <ele>287.6</ele>
      </trkpt>
      <trkpt lat="45.72231" lon="4.73942">
        <ele>289.2</ele>
      </trkpt>
      <trkpt lat="45.72204" lon="4.74012">
        <ele>291.4</ele>
      </trkpt>
      <trkpt lat="45.72171" lon="4.74057">
        <ele>292.6</ele>
      </trkpt>
      <trkpt lat="45.72133" lon="4.74122">
        <ele>294.1</ele>
      </trkpt>
      <trkpt lat="45.72095" lon="4.74185">
        <ele>295.2</ele>
      </trkpt>
      <trkpt lat="45.72058" lon="4.74258">
        <ele>297.3</ele>
      </trkpt>
      <trkpt lat="45.72034" lon="4.74301">
        <ele>299.3</ele>
      </trkpt>
      <trkpt lat="45.71998" lon="4.74365">
        <ele>302.5</ele>
      </trkpt>
      <trkpt lat="45.71964" lon="4.74429">
        <ele>305.6</ele>
      </trkpt>
      <trkpt lat="45.71938" lon="4.74475">
        <ele>307.1</ele>
      </trkpt>
      <trkpt lat="45.7192" lon="4.74512">
        <ele>307.8</ele>
      </trkpt>
      <trkpt lat="45.71893" lon="4.74551">
        <ele>309.7</ele>
      </trkpt>
      <trkpt lat="45.71876" lon="4.74594">
        <ele>310.7</ele>
      </trkpt>
      <trkpt lat="45.71849" lon="4.74642">
        <ele>313</ele>
      </trkpt>
      <trkpt lat="45.7183" lon="4.74685">
        <ele>314.5</ele>
      </trkpt>
      <trkpt lat="45.718" lon="4.74738">
        <ele>317.2</ele>
      </trkpt>
      <trkpt lat="45.71771" lon="4.74749">
        <ele>319.4</ele>
      </trkpt>
      <trkpt lat="45.71742" lon="4.74765">
        <ele>321.6</ele>
      </trkpt>
      <trkpt lat="45.71709" lon="4.74784">
        <ele>323.8</ele>
      </trkpt>
      <trkpt lat="45.71674" lon="4.74808">
        <ele>325.5</ele>
      </trkpt>
      <trkpt lat="45.71647" lon="4.74839">
        <ele>325.2</ele>
      </trkpt>
      <trkpt lat="45.71623" lon="4.74865">
        <ele>324.4</ele>
      </trkpt>
      <trkpt lat="45.71604" lon="4.74894">
        <ele>323.4</ele>
      </trkpt>
      <trkpt lat="45.71584" lon="4.74932">
        <ele>322.8</ele>
      </trkpt>
      <trkpt lat="45.71563" lon="4.74976">
        <ele>322.6</ele>
      </trkpt>
      <trkpt lat="45.71537" lon="4.75016">
        <ele>322.3</ele>
      </trkpt>
      <trkpt lat="45.71504" lon="4.75045">
        <ele>322.4</ele>
      </trkpt>
      <trkpt lat="45.71496" lon="4.75086">
        <ele>321.9</ele>
      </trkpt>
      <trkpt lat="45.71489" lon="4.75137">
        <ele>321.2</ele>
      </trkpt>
      <trkpt lat="45.71484" lon="4.75185">
        <ele>320.7</ele>
      </trkpt>
      <trkpt lat="45.71473" lon="4.75234">
        <ele>320.4</ele>
      </trkpt>
      <trkpt lat="45.71462" lon="4.75277">
        <ele>322.3</ele>
      </trkpt>
      <trkpt lat="45.71455" lon="4.75313">
        <ele>325.1</ele>
      </trkpt>
      <trkpt lat="45.71448" lon="4.75358">
        <ele>328</ele>
      </trkpt>
      <trkpt lat="45.71439" lon="4.75397">
        <ele>330</ele>
      </trkpt>
      <trkpt lat="45.7143" lon="4.75421">
        <ele>331.3</ele>
      </trkpt>
      <trkpt lat="45.71414" lon="4.75437">
        <ele>332.3</ele>
      </trkpt>
      <trkpt lat="45.71391" lon="4.75455">
        <ele>331.6</ele>
      </trkpt>
      <trkpt lat="45.71374" lon="4.75462">
        <ele>331.1</ele>
      </trkpt>
      <trkpt lat="45.71363" lon="4.75474">
        <ele>331</ele>
      </trkpt>
      <trkpt lat="45.7135" lon="4.75502">
        <ele>331.6</ele>
      </trkpt>
      <trkpt lat="45.71341" lon="4.75541">
        <ele>330.8</ele>
      </trkpt>
      <trkpt lat="45.7133" lon="4.7558">
        <ele>329.9</ele>
      </trkpt>
      <trkpt lat="45.71313" lon="4.75616">
        <ele>329.2</ele>
      </trkpt>
      <trkpt lat="45.71289" lon="4.75622">
        <ele>328.4</ele>
      </trkpt>
      <trkpt lat="45.71268" lon="4.75627">
        <ele>327.7</ele>
      </trkpt>
      <trkpt lat="45.71252" lon="4.75624">
        <ele>327.1</ele>
        <time>2010-01-01T01:40:44Z</time>
      </trkpt>
      <trkpt lat="45.71255" lon="4.75658">
        <ele>327.9</ele>
        <time>2010-01-11T22:36:06Z</time>
      </trkpt>
      <trkpt lat="45.71257" lon="4.75693">
        <ele>329.1</ele>
        <time>2021-09-01T14:51:29Z</time>
      </trkpt>
      <trkpt lat="45.71259" lon="4.75723">
        <ele>330.1</ele>
        <time>9720-03-26T20:12:24Z</time>
      </trkpt>
      <trkpt lat="45.71252" lon="4.75743">
        <ele>330.7</ele>
        <time>2010-01-01T00:44:19Z</time>
      </trkpt>
      <trkpt lat="45.71226" lon="4.75782">
        <ele>327</ele>
        <time>2010-01-01T01:41:01Z</time>
      </trkpt>
      <trkpt lat="45.71212" lon="4.75795">
        <ele>326</ele>
        <time>2010-01-01T01:41:07Z</time>
      </trkpt>
      <trkpt lat="45.71199" lon="4.75811">
        <ele>325</ele>
        <time>2010-01-01T01:41:14Z</time>
      </trkpt>
      <trkpt lat="45.71179" lon="4.75848">
        <ele>324</ele>
        <time>2010-01-01T01:41:27Z</time>
      </trkpt>
      <trkpt lat="45.71148" lon="4.75834">
        <ele>320</ele>
        <time>2010-01-01T01:41:40Z</time>
      </trkpt>
      <trkpt lat="45.71117" lon="4.75832">
        <ele>319</ele>
        <time>2010-01-01T01:41:53Z</time>
      </trkpt>
      <trkpt lat="45.71069" lon="4.75818">
        <ele>317</ele>
        <time>2010-01-01T01:42:12Z</time>
      </trkpt>
      <trkpt lat="45.71035" lon="4.75814">
        <ele>316</ele>
        <time>2010-01-01T01:42:26Z</time>
      </trkpt>
      <trkpt lat="45.71003" lon="4.75818">
        <ele>316</ele>
        <time>2010-01-01T01:42:39Z</time>
      </trkpt>
      <trkpt lat="45.70976" lon="4.75813">
        <ele>318</ele>
        <time>2010-01-01T01:42:50Z</time>
      </trkpt>
      <trkpt lat="45.70919" lon="4.75816">
        <ele>319</ele>
        <time>2010-01-01T01:43:13Z</time>
      </trkpt>
      <trkpt lat="45.70877" lon="4.75831">
        <ele>317.4</ele>
      </trkpt>
      <trkpt lat="45.70838" lon="4.75846">
        <ele>316</ele>
        <time>2010-01-01T01:43:46Z</time>
      </trkpt>
      <trkpt lat="45.70796" lon="4.75859">
        <ele>315</ele>
        <time>2010-01-01T01:44:03Z</time>
      </trkpt>
      <trkpt lat="45.70778" lon="4.7585">
        <ele>315</ele>
        <time>2010-01-01T01:44:11Z</time>
      </trkpt>
      <trkpt lat="45.70727" lon="4.75843">
        <ele>314</ele>
        <time>2010-01-01T01:44:31Z</time>
      </trkpt>
      <trkpt lat="45.70682" lon="4.75811">
        <ele>309</ele>
        <time>2010-01-01T01:44:51Z</time>
      </trkpt>
      <trkpt lat="45.7063" lon="4.75782">
        <ele>308</ele>
        <time>2010-01-01T01:45:14Z</time>
      </trkpt>
      <trkpt lat="45.70619" lon="4.75781">
        <ele>308</ele>
        <time>2010-01-01T01:45:18Z</time>
      </trkpt>
      <trkpt lat="45.70613" lon="4.75772">
        <ele>308</ele>
        <time>2010-01-01T01:45:22Z</time>
      </trkpt>
      <trkpt lat="45.70612" lon="4.75772">
        <ele>308</ele>
        <time>2010-01-01T01:45:22Z</time>
      </trkpt>
      <trkpt lat="45.70607" lon="4.75763">
        <ele>308</ele>
        <time>2010-01-01T01:45:25Z</time>
      </trkpt>
      <trkpt lat="45.70598" lon="4.75743">
        <ele>307</ele>
        <time>2010-01-01T01:45:32Z</time>
      </trkpt>
      <trkpt lat="45.70572" lon="4.75686">
        <ele>307.3</ele>
        <time>2010-01-01T01:45:52Z</time>
      </trkpt>
      <trkpt lat="45.70574" lon="4.75576">
        <ele>300</ele>
        <time>2010-01-01T01:46:20Z</time>
      </trkpt>
      <trkpt lat="45.70566" lon="4.75542">
        <ele>297</ele>
        <time>2010-01-01T01:46:30Z</time>
      </trkpt>
      <trkpt lat="45.70544" lon="4.75517">
        <ele>293</ele>
        <time>2010-01-01T01:46:41Z</time>
      </trkpt>
      <trkpt lat="45.70519" lon="4.7551">
        <ele>290</ele>
        <time>2010-01-01T01:46:52Z</time>
      </trkpt>
      <trkpt lat="45.70467" lon="4.75511">
        <ele>287</ele>
        <time>2010-01-01T01:47:12Z</time>
      </trkpt>
      <trkpt lat="45.70454" lon="4.755">
        <ele>286</ele>
        <time>2010-01-01T01:47:18Z</time>
      </trkpt>
      <trkpt lat="45.70428" lon="4.75424">
        <ele>277</ele>
        <time>2010-01-01T01:47:42Z</time>
      </trkpt>
      <trkpt lat="45.70437" lon="4.7539">
        <ele>274</ele>
        <time>2010-01-01T01:47:52Z</time>
      </trkpt>
      <trkpt lat="45.70465" lon="4.75354">
        <ele>271</ele>
        <time>2010-01-01T01:48:07Z</time>
      </trkpt>
      <trkpt lat="45.70487" lon="4.75331">
        <ele>273</ele>
        <time>2010-01-01T01:48:18Z</time>
      </trkpt>
      <trkpt lat="45.70503" lon="4.75311">
        <ele>274</ele>
        <time>2010-01-01T01:48:27Z</time>
      </trkpt>
      <trkpt lat="45.70508" lon="4.7528">
        <ele>274</ele>
        <time>2010-01-01T01:48:36Z</time>
      </trkpt>
      <trkpt lat="45.70528" lon="4.75254">
        <ele>289.2</ele>
      </trkpt>
      <trkpt lat="45.70556" lon="4.75214">
        <ele>289.5</ele>
      </trkpt>
      <trkpt lat="45.70578" lon="4.75179">
        <ele>278</ele>
        <time>2010-01-01T01:49:15Z</time>
      </trkpt>
      <trkpt lat="45.70599" lon="4.75157">
        <ele>279</ele>
        <time>2010-01-01T01:49:26Z</time>
      </trkpt>
      <trkpt lat="45.70625" lon="4.75142">
        <ele>281</ele>
        <time>2010-01-01T01:49:37Z</time>
      </trkpt>
      <trkpt lat="45.70651" lon="4.75137">
        <ele>284</ele>
        <time>2010-01-01T01:49:48Z</time>
      </trkpt>
      <trkpt lat="45.70661" lon="4.75142">
        <ele>285</ele>
        <time>2010-01-01T01:49:52Z</time>
      </trkpt>
      <trkpt lat="45.70678" lon="4.75139">
        <ele>286</ele>
        <time>2010-01-01T01:49:59Z</time>
      </trkpt>
      <trkpt lat="45.70708" lon="4.75133">
        <ele>293.7</ele>
      </trkpt>
      <trkpt lat="45.70748" lon="4.75122">
        <ele>287</ele>
        <time>2010-01-01T01:50:27Z</time>
      </trkpt>
      <trkpt lat="45.70753" lon="4.75108">
        <ele>287</ele>
        <time>2010-01-01T01:50:31Z</time>
      </trkpt>
      <trkpt lat="45.7075" lon="4.75064">
        <ele>300.2</ele>
      </trkpt>
      <trkpt lat="45.70748" lon="4.75033">
        <ele>284</ele>
        <time>2010-01-01T01:50:52Z</time>
      </trkpt>
      <trkpt lat="45.70748" lon="4.75022">
        <ele>284</ele>
        <time>2010-01-01T01:50:56Z</time>
      </trkpt>
      <trkpt lat="45.70749" lon="4.75015">
        <ele>284</ele>
        <time>2010-01-01T01:50:58Z</time>
      </trkpt>
      <trkpt lat="45.70754" lon="4.75003">
        <ele>285</ele>
        <time>2010-01-01T01:51:01Z</time>
      </trkpt>
      <trkpt lat="45.7077" lon="4.74984">
        <ele>288</ele>
        <time>2010-01-01T01:51:10Z</time>
      </trkpt>
      <trkpt lat="45.70803" lon="4.74936">
        <ele>291</ele>
        <time>2010-01-01T01:51:29Z</time>
      </trkpt>
      <trkpt lat="45.70838" lon="4.74918">
        <ele>293</ele>
        <time>2010-01-01T01:51:43Z</time>
      </trkpt>
      <trkpt lat="45.70872" lon="4.74899">
        <ele>294</ele>
        <time>2010-01-01T01:51:58Z</time>
      </trkpt>
      <trkpt lat="45.70935" lon="4.74883">
        <ele>297</ele>
        <time>2010-01-01T01:52:24Z</time>
      </trkpt>
      <trkpt lat="45.70974" lon="4.74864">
        <ele>297</ele>
        <time>2010-01-01T01:52:40Z</time>
      </trkpt>
      <trkpt lat="45.70998" lon="4.74858">
        <ele>298</ele>
        <time>2010-01-01T01:52:50Z</time>
      </trkpt>
      <trkpt lat="45.71015" lon="4.74846">
        <ele>300</ele>
        <time>2010-01-01T01:52:58Z</time>
      </trkpt>
      <trkpt lat="45.71046" lon="4.74857">
        <ele>306.3</ele>
      </trkpt>
      <trkpt lat="45.71078" lon="4.74861">
        <ele>299</ele>
        <time>2010-01-01T01:53:23Z</time>
      </trkpt>
      <trkpt lat="45.71096" lon="4.74835">
        <ele>300</ele>
        <time>2010-01-01T01:53:33Z</time>
      </trkpt>
      <trkpt lat="45.71101" lon="4.74779">
        <ele>302</ele>
        <time>2010-01-01T01:53:49Z</time>
      </trkpt>
      <trkpt lat="45.71099" lon="4.74758">
        <ele>304</ele>
        <time>2010-01-01T01:53:55Z</time>
      </trkpt>
      <trkpt lat="45.71078" lon="4.74703">
        <ele>306</ele>
        <time>2010-01-01T01:54:13Z</time>
      </trkpt>
      <trkpt lat="45.71074" lon="4.7468">
        <ele>307</ele>
        <time>2010-01-01T01:54:19Z</time>
      </trkpt>
      <trkpt lat="45.71067" lon="4.74656">
        <ele>307</ele>
        <time>2010-01-01T01:54:26Z</time>
      </trkpt>
      <trkpt lat="45.71061" lon="4.74626">
        <ele>307</ele>
        <time>2010-01-01T01:54:35Z</time>
      </trkpt>
      <trkpt lat="45.71053" lon="4.74607">
        <ele>305</ele>
        <time>2010-01-01T01:54:41Z</time>
      </trkpt>
      <trkpt lat="45.71054" lon="4.74601">
        <ele>305</ele>
        <time>2010-01-01T01:54:43Z</time>
      </trkpt>
      <trkpt lat="45.71047" lon="4.74587">
        <ele>304</ele>
        <time>2010-01-01T01:54:48Z</time>
      </trkpt>
      <trkpt lat="45.71044" lon="4.74569">
        <ele>304</ele>
        <time>2010-01-01T01:54:53Z</time>
      </trkpt>
      <trkpt lat="45.71051" lon="4.74556">
        <ele>304</ele>
        <time>2010-01-01T01:54:58Z</time>
      </trkpt>
      <trkpt lat="45.71055" lon="4.74543">
        <ele>304</ele>
        <time>2010-01-01T01:55:02Z</time>
      </trkpt>
      <trkpt lat="45.71055" lon="4.74532">
        <ele>304</ele>
        <time>2010-01-01T01:55:05Z</time>
      </trkpt>
      <trkpt lat="45.71038" lon="4.74499">
        <ele>306</ele>
        <time>2010-01-01T01:55:16Z</time>
      </trkpt>
      <trkpt lat="45.71023" lon="4.74459">
        <ele>306</ele>
        <time>2010-01-01T01:55:29Z</time>
      </trkpt>
      <trkpt lat="45.71005" lon="4.74461">
        <ele>307</ele>
        <time>2010-01-01T01:55:36Z</time>
      </trkpt>
      <trkpt lat="45.70986" lon="4.74456">
        <ele>307</ele>
        <time>2010-01-01T01:55:44Z</time>
      </trkpt>
      <trkpt lat="45.70961" lon="4.74439">
        <ele>307.3</ele>
      </trkpt>
      <trkpt lat="45.70924" lon="4.74414">
        <ele>304</ele>
        <time>2010-01-01T01:56:12Z</time>
      </trkpt>
      <trkpt lat="45.70894" lon="4.74407">
        <ele>305.6</ele>
      </trkpt>
      <trkpt lat="45.70867" lon="4.74397">
        <ele>304.9</ele>
      </trkpt>
      <trkpt lat="45.70835" lon="4.7438">
        <ele>304</ele>
        <time>2010-01-01T01:56:48Z</time>
      </trkpt>
      <trkpt lat="45.70819" lon="4.74351">
        <ele>304.4</ele>
      </trkpt>
      <trkpt lat="45.70795" lon="4.74315">
        <ele>304</ele>
        <time>2010-01-01T01:57:12Z</time>
      </trkpt>
      <trkpt lat="45.70761" lon="4.74302">
        <ele>305.4</ele>
      </trkpt>
      <trkpt lat="45.70727" lon="4.7429">
        <ele>304.8</ele>
      </trkpt>
      <trkpt lat="45.70698" lon="4.7428">
        <ele>304.3</ele>
      </trkpt>
      <trkpt lat="45.70666" lon="4.74264">
        <ele>307</ele>
        <time>2010-01-01T01:58:06Z</time>
      </trkpt>
      <trkpt lat="45.70649" lon="4.74231">
        <ele>307</ele>
        <time>2010-01-01T01:58:17Z</time>
      </trkpt>
      <trkpt lat="45.70636" lon="4.74198">
        <ele>305.1</ele>
      </trkpt>
      <trkpt lat="45.70625" lon="4.74171">
        <ele>308</ele>
        <time>2010-01-01T01:58:37Z</time>
      </trkpt>
      <trkpt lat="45.70613" lon="4.74153">
        <ele>306</ele>
      </trkpt>
      <trkpt lat="45.7059" lon="4.74108">
        <ele>307.3</ele>
      </trkpt>
      <trkpt lat="45.70569" lon="4.74067">
        <ele>310</ele>
        <time>2010-01-01T01:59:14Z</time>
      </trkpt>
      <trkpt lat="45.70563" lon="4.74007">
        <ele>312</ele>
        <time>2010-01-01T01:59:30Z</time>
      </trkpt>
      <trkpt lat="45.70558" lon="4.73984">
        <ele>310.3</ele>
      </trkpt>
      <trkpt lat="45.70552" lon="4.73933">
        <ele>311.6</ele>
      </trkpt>
      <trkpt lat="45.70547" lon="4.73887">
        <ele>312</ele>
        <time>2010-01-01T02:00:05Z</time>
      </trkpt>
      <trkpt lat="45.70548" lon="4.73866">
        <ele>313</ele>
        <time>2010-01-01T02:00:11Z</time>
      </trkpt>
      <trkpt lat="45.70533" lon="4.73848">
        <ele>313</ele>
        <time>2010-01-01T02:00:18Z</time>
      </trkpt>
      <trkpt lat="45.70499" lon="4.73764">
        <ele>313</ele>
        <time>2010-01-01T02:00:46Z</time>
      </trkpt>
      <trkpt lat="45.70467" lon="4.73765">
        <ele>312</ele>
        <time>2010-01-01T02:00:58Z</time>
      </trkpt>
      <trkpt lat="45.70443" lon="4.7375">
        <ele>312.3</ele>
      </trkpt>
      <trkpt lat="45.70409" lon="4.73716">
        <ele>311.4</ele>
      </trkpt>
      <trkpt lat="45.70381" lon="4.7369">
        <ele>310</ele>
        <time>2010-01-01T02:01:39Z</time>
      </trkpt>
      <trkpt lat="45.70359" lon="4.73663">
        <ele>308.9</ele>
      </trkpt>
      <trkpt lat="45.70338" lon="4.73625">
        <ele>308.6</ele>
      </trkpt>
      <trkpt lat="45.70322" lon="4.73595">
        <ele>307</ele>
        <time>2010-01-01T02:02:14Z</time>
      </trkpt>
      <trkpt lat="45.70299" lon="4.73571">
        <ele>307</ele>
        <time>2010-01-01T02:02:26Z</time>
      </trkpt>
      <trkpt lat="45.70267" lon="4.73549">
        <ele>308</ele>
        <time>2010-01-01T02:02:40Z</time>
      </trkpt>
      <trkpt lat="45.70244" lon="4.73527">
        <ele>305.7</ele>
      </trkpt>
      <trkpt lat="45.70224" lon="4.73506">
        <ele>305.4</ele>
      </trkpt>
      <trkpt lat="45.70192" lon="4.73471">
        <ele>305.6</ele>
      </trkpt>
      <trkpt lat="45.70171" lon="4.73442">
        <ele>306</ele>
        <time>2010-01-01T02:03:28Z</time>
      </trkpt>
      <trkpt lat="45.7015" lon="4.7342">
        <ele>305</ele>
      </trkpt>
      <trkpt lat="45.70129" lon="4.73393">
        <ele>305</ele>
      </trkpt>
      <trkpt lat="45.70112" lon="4.73361">
        <ele>304</ele>
        <time>2010-01-01T02:04:01Z</time>
      </trkpt>
      <trkpt lat="45.70092" lon="4.7334">
        <ele>304.3</ele>
      </trkpt>
      <trkpt lat="45.70066" lon="4.73309">
        <ele>304.1</ele>
      </trkpt>
      <trkpt lat="45.70033" lon="4.73272">
        <ele>304.6</ele>
      </trkpt>
      <trkpt lat="45.70008" lon="4.73245">
        <ele>305</ele>
        <time>2010-01-01T02:04:54Z</time>
      </trkpt>
      <trkpt lat="45.69963" lon="4.73203">
        <ele>304</ele>
        <time>2010-01-01T02:05:15Z</time>
      </trkpt>
      <trkpt lat="45.69914" lon="4.73176">
        <ele>304</ele>
        <time>2010-01-01T02:05:37Z</time>
      </trkpt>
      <trkpt lat="45.69873" lon="4.73164">
        <ele>301</ele>
        <time>2010-01-01T02:05:53Z</time>
      </trkpt>
      <trkpt lat="45.69841" lon="4.73147">
        <ele>303.7</ele>
      </trkpt>
      <trkpt lat="45.698" lon="4.73119">
        <ele>301</ele>
        <time>2010-01-01T02:06:25Z</time>
      </trkpt>
      <trkpt lat="45.69761" lon="4.73118">
        <ele>301.2</ele>
      </trkpt>
      <trkpt lat="45.69732" lon="4.73108">
        <ele>295</ele>
        <time>2010-01-01T02:06:53Z</time>
      </trkpt>
      <trkpt lat="45.69704" lon="4.731">
        <ele>298.6</ele>
      </trkpt>
      <trkpt lat="45.69666" lon="4.73084">
        <ele>297</ele>
      </trkpt>
      <trkpt lat="45.69649" lon="4.73074">
        <ele>294</ele>
        <time>2010-01-01T02:07:27Z</time>
      </trkpt>
      <trkpt lat="45.69621" lon="4.7306">
        <ele>296</ele>
      </trkpt>
      <trkpt lat="45.69587" lon="4.73038">
        <ele>294</ele>
        <time>2010-01-01T02:07:54Z</time>
      </trkpt>
      <trkpt lat="45.69567" lon="4.73026">
        <ele>295.2</ele>
      </trkpt>
      <trkpt lat="45.69536" lon="4.73004">
        <ele>294.6</ele>
      </trkpt>
      <trkpt lat="45.69514" lon="4.7299">
        <ele>294</ele>
      </trkpt>
      <trkpt lat="45.69479" lon="4.72969">
        <ele>293.2</ele>
      </trkpt>
      <trkpt lat="45.69456" lon="4.72946">
        <ele>288</ele>
        <time>2010-01-01T02:08:52Z</time>
      </trkpt>
      <trkpt lat="45.69407" lon="4.72939">
        <ele>289.6</ele>
      </trkpt>
      <trkpt lat="45.69384" lon="4.72934">
        <ele>280</ele>
        <time>2010-01-01T02:09:21Z</time>
      </trkpt>
      <trkpt lat="45.69349" lon="4.72923">
        <ele>282.9</ele>
      </trkpt>
      <trkpt lat="45.69314" lon="4.72913">
        <ele>274</ele>
        <time>2010-01-01T02:09:50Z</time>
      </trkpt>
      <trkpt lat="45.69341" lon="4.72861">
        <ele>275.7</ele>
        <time>2010-01-31T15:13:33Z</time>
      </trkpt>
      <trkpt lat="45.6938" lon="4.72851">
        <ele>282.2</ele>
        <time>2017-01-06T19:25:20Z</time>
      </trkpt>
      <trkpt lat="45.69403" lon="4.72823">
        <ele>284.8</ele>
        <time>2547-12-26T19:17:41Z</time>
      </trkpt>
      <trkpt lat="45.69408" lon="4.72763">
        <ele>278.7</ele>
      </trkpt>
      <trkpt lat="45.6942" lon="4.72692">
        <ele>271.1</ele>
      </trkpt>
      <trkpt lat="45.69433" lon="4.72626">
        <ele>260.9</ele>
      </trkpt>
      <trkpt lat="45.69392" lon="4.72634">
        <ele>252</ele>
      </trkpt>
      <trkpt lat="45.69353" lon="4.72664">
        <ele>246.7</ele>
      </trkpt>
      <trkpt lat="45.69308" lon="4.72715">
        <ele>245.1</ele>
      </trkpt>
      <trkpt lat="45.69258" lon="4.7276">
        <ele>245.2</ele>
      </trkpt>
      <trkpt lat="45.69223" lon="4.72798">
        <ele>248.7</ele>
      </trkpt>
      <trkpt lat="45.6921" lon="4.72827">
        <ele>252.5</ele>
        <time>2009-12-31T17:05:22Z</time>
      </trkpt>
      <trkpt lat="45.69187" lon="4.7286">
        <ele>254.9</ele>
        <time>2009-11-16T08:54:26Z</time>
      </trkpt>
      <trkpt lat="45.69168" lon="4.72891">
        <ele>257.5</ele>
        <time>1993-05-13T20:21:23Z</time>
      </trkpt>
      <trkpt lat="45.69145" lon="4.72936">
        <ele>256.3</ele>
      </trkpt>
      <trkpt lat="45.69137" lon="4.72978">
        <ele>254.9</ele>
      </trkpt>
      <trkpt lat="45.69127" lon="4.73019">
        <ele>251.6</ele>
      </trkpt>
      <trkpt lat="45.69113" lon="4.73057">
        <ele>246.2</ele>
      </trkpt>
      <trkpt lat="45.69108" lon="4.73084">
        <ele>243.3</ele>
      </trkpt>
      <trkpt lat="45.69127" lon="4.7311">
        <ele>245</ele>
      </trkpt>
      <trkpt lat="45.69147" lon="4.73136">
        <ele>247.7</ele>
      </trkpt>
      <trkpt lat="45.69168" lon="4.73157">
        <ele>251.6</ele>
      </trkpt>
      <trkpt lat="45.69198" lon="4.73159">
        <ele>235</ele>
        <time>2010-01-01T02:14:03Z</time>
      </trkpt>
      <trkpt lat="45.69216" lon="4.73211">
        <ele>235</ele>
        <time>2010-01-01T02:14:19Z</time>
      </trkpt>
      <trkpt lat="45.69229" lon="4.73265">
        <ele>232</ele>
        <time>2010-01-01T02:14:35Z</time>
      </trkpt>
      <trkpt lat="45.69205" lon="4.73344">
        <ele>225</ele>
        <time>2010-01-01T02:14:59Z</time>
      </trkpt>
      <trkpt lat="45.69182" lon="4.73431">
        <ele>227</ele>
        <time>2010-01-01T02:15:25Z</time>
      </trkpt>
      <trkpt lat="45.6915" lon="4.73491">
        <ele>230</ele>
        <time>2010-01-01T02:15:46Z</time>
      </trkpt>
      <trkpt lat="45.69116" lon="4.73548">
        <ele>230</ele>
        <time>2010-01-01T02:16:07Z</time>
      </trkpt>
      <trkpt lat="45.69104" lon="4.73574">
        <ele>229</ele>
        <time>2010-01-01T02:16:16Z</time>
      </trkpt>
      <trkpt lat="45.69104" lon="4.73611">
        <ele>230</ele>
        <time>2010-01-01T02:16:26Z</time>
      </trkpt>
      <trkpt lat="45.69093" lon="4.73647">
        <ele>253.3</ele>
      </trkpt>
      <trkpt lat="45.69071" lon="4.73687">
        <ele>254.9</ele>
      </trkpt>
      <trkpt lat="45.69058" lon="4.73728">
        <ele>232</ele>
        <time>2010-01-01T02:17:04Z</time>
      </trkpt>
      <trkpt lat="45.69058" lon="4.73791">
        <ele>235</ele>
        <time>2010-01-01T02:17:22Z</time>
      </trkpt>
      <trkpt lat="45.69055" lon="4.73854">
        <ele>233</ele>
        <time>2010-01-01T02:17:39Z</time>
      </trkpt>
      <trkpt lat="45.69034" lon="4.73936">
        <ele>235</ele>
        <time>2010-01-01T02:18:04Z</time>
      </trkpt>
      <trkpt lat="45.6901" lon="4.73982">
        <ele>262.5</ele>
      </trkpt>
      <trkpt lat="45.68991" lon="4.74029">
        <ele>260.9</ele>
      </trkpt>
      <trkpt lat="45.68975" lon="4.74068">
        <ele>258.1</ele>
      </trkpt>
      <trkpt lat="45.68952" lon="4.74099">
        <ele>253.3</ele>
      </trkpt>
      <trkpt lat="45.68921" lon="4.7415">
        <ele>253.3</ele>
      </trkpt>
      <trkpt lat="45.68902" lon="4.74204">
        <ele>230</ele>
        <time>2010-01-01T02:19:35Z</time>
      </trkpt>
      <trkpt lat="45.6889" lon="4.74247">
        <ele>261</ele>
      </trkpt>
      <trkpt lat="45.68872" lon="4.743">
        <ele>258</ele>
      </trkpt>
      <trkpt lat="45.68854" lon="4.74361">
        <ele>227</ele>
        <time>2010-01-01T02:20:23Z</time>
      </trkpt>
      <trkpt lat="45.68835" lon="4.74388">
        <ele>248.5</ele>
      </trkpt>
      <trkpt lat="45.68815" lon="4.74418">
        <ele>220</ele>
        <time>2010-01-01T02:20:46Z</time>
      </trkpt>
      <trkpt lat="45.68794" lon="4.74406">
        <ele>236.1</ele>
      </trkpt>
      <trkpt lat="45.68764" lon="4.74387">
        <ele>226.4</ele>
      </trkpt>
      <trkpt lat="45.68739" lon="4.74367">
        <ele>216</ele>
        <time>2010-01-01T02:21:19Z</time>
      </trkpt>
      <trkpt lat="45.68694" lon="4.74332">
        <ele>222</ele>
        <time>2010-01-01T02:21:40Z</time>
      </trkpt>
      <trkpt lat="45.68664" lon="4.74326">
        <ele>231</ele>
        <time>2010-01-01T02:21:52Z</time>
      </trkpt>
      <trkpt lat="45.68638" lon="4.74363">
        <ele>219.9</ele>
      </trkpt>
      <trkpt lat="45.68618" lon="4.74382">
        <ele>219.9</ele>
      </trkpt>
      <trkpt lat="45.68591" lon="4.7441">
        <ele>218</ele>
      </trkpt>
      <trkpt lat="45.68568" lon="4.74435">
        <ele>218.1</ele>
      </trkpt>
      <trkpt lat="45.6855" lon="4.7445">
        <ele>218.9</ele>
      </trkpt>
      <trkpt lat="45.68522" lon="4.74481">
        <ele>218.7</ele>
      </trkpt>
      <trkpt lat="45.68494" lon="4.74509">
        <ele>222</ele>
        <time>2010-01-01T02:23:17Z</time>
      </trkpt>
      <trkpt lat="45.68455" lon="4.74528">
        <ele>221</ele>
        <time>2010-01-01T02:23:33Z</time>
      </trkpt>
      <trkpt lat="45.68419" lon="4.7455">
        <ele>220</ele>
        <time>2010-01-01T02:23:49Z</time>
      </trkpt>
      <trkpt lat="45.6843" lon="4.74588">
        <ele>216.5</ele>
        <time>2010-01-01T01:21:21Z</time>
      </trkpt>
      <trkpt lat="45.6844" lon="4.74619">
        <ele>216.5</ele>
        <time>2009-12-22T15:28:16Z</time>
      </trkpt>
      <trkpt lat="45.68455" lon="4.74665">
        <ele>216</ele>
        <time>2003-03-15T22:20:29Z</time>
      </trkpt>
      <trkpt lat="45.68465" lon="4.74697">
        <ele>215.5</ele>
      </trkpt>
      <trkpt lat="45.68473" lon="4.74736">
        <ele>214.9</ele>
      </trkpt>
      <trkpt lat="45.68479" lon="4.7477">
        <ele>215.7</ele>
        <time>2010-01-01T02:24:10Z</time>
      </trkpt>
      <trkpt lat="45.6845" lon="4.74795">
        <ele>216.1</ele>
        <time>2010-01-01T02:24:35Z</time>
      </trkpt>
      <trkpt lat="45.68428" lon="4.74806">
        <ele>215.7</ele>
        <time>2010-01-01T01:44:33Z</time>
      </trkpt>
      <trkpt lat="45.68397" lon="4.74832">
        <ele>215.5</ele>
        <time>2009-12-27T13:06:47Z</time>
      </trkpt>
      <trkpt lat="45.68379" lon="4.74853">
        <ele>218.3</ele>
        <time>2007-11-07T03:55:31Z</time>
      </trkpt>
      <trkpt lat="45.68366" lon="4.74897">
        <ele>224.9</ele>
        <time>2010-01-01T02:24:51Z</time>
      </trkpt>
      <trkpt lat="45.68363" lon="4.74946">
        <ele>232.2</ele>
        <time>2010-01-01T02:25:14Z</time>
      </trkpt>
      <trkpt lat="45.68382" lon="4.74961">
        <ele>236.1</ele>
        <time>2010-01-01T02:25:57Z</time>
      </trkpt>
      <trkpt lat="45.68404" lon="4.74965">
        <ele>239</ele>
        <time>2010-01-01T02:26:41Z</time>
      </trkpt>
      <trkpt lat="45.68426" lon="4.7497">
        <ele>241.6</ele>
        <time>2010-01-01T02:27:25Z</time>
      </trkpt>
      <trkpt lat="45.68442" lon="4.74974">
        <ele>242.6</ele>
        <time>2010-01-01T02:27:56Z</time>
      </trkpt>
      <trkpt lat="45.68464" lon="4.74975">
        <ele>243.7</ele>
        <time>2010-01-01T02:28:36Z</time>
      </trkpt>
      <trkpt lat="45.68488" lon="4.7498">
        <ele>245.1</ele>
        <time>2010-01-01T02:29:20Z</time>
      </trkpt>
      <trkpt lat="45.68505" lon="4.74982">
        <ele>246.2</ele>
        <time>2010-01-01T02:29:49Z</time>
      </trkpt>
      <trkpt lat="45.68531" lon="4.74982">
        <ele>247.4</ele>
        <time>2010-01-01T02:30:32Z</time>
      </trkpt>
      <trkpt lat="45.68551" lon="4.74983">
        <ele>248.5</ele>
        <time>2010-01-01T02:31:03Z</time>
      </trkpt>
      <trkpt lat="45.68573" lon="4.74983">
        <ele>249.5</ele>
        <time>2010-01-01T02:31:33Z</time>
      </trkpt>
      <trkpt lat="45.68593" lon="4.74983">
        <ele>251</ele>
        <time>2010-01-01T02:31:58Z</time>
      </trkpt>
      <trkpt lat="45.68627" lon="4.74983">
        <ele>254.4</ele>
        <time>2009-12-31T17:01:33Z</time>
      </trkpt>
      <trkpt lat="45.68645" lon="4.74982">
        <ele>256.1</ele>
        <time>2009-11-20T02:09:58Z</time>
      </trkpt>
      <trkpt lat="45.68672" lon="4.74978">
        <ele>258.6</ele>
        <time>1997-01-11T12:54:44Z</time>
      </trkpt>
      <trkpt lat="45.68688" lon="4.74975">
        <ele>258.8</ele>
      </trkpt>
      <trkpt lat="45.68707" lon="4.74975">
        <ele>258.8</ele>
      </trkpt>
      <trkpt lat="45.68723" lon="4.74962">
        <ele>260.5</ele>
      </trkpt>
      <trkpt lat="45.68742" lon="4.74951">
        <ele>262.5</ele>
      </trkpt>
      <trkpt lat="45.68763" lon="4.74939">
        <ele>264.4</ele>
      </trkpt>
      <trkpt lat="45.68777" lon="4.74938">
        <ele>264.3</ele>
      </trkpt>
      <trkpt lat="45.68799" lon="4.74933">
        <ele>264.9</ele>
      </trkpt>
      <trkpt lat="45.68823" lon="4.7492">
        <ele>266.7</ele>
      </trkpt>
      <trkpt lat="45.68836" lon="4.74912">
        <ele>267.6</ele>
      </trkpt>
      <trkpt lat="45.68858" lon="4.74899">
        <ele>269.5</ele>
      </trkpt>
      <trkpt lat="45.68878" lon="4.74889">
        <ele>271.4</ele>
      </trkpt>
      <trkpt lat="45.68894" lon="4.74886">
        <ele>272.1</ele>
      </trkpt>
      <trkpt lat="45.68919" lon="4.74879">
        <ele>273.8</ele>
      </trkpt>
      <trkpt lat="45.68942" lon="4.74873">
        <ele>275.2</ele>
      </trkpt>
      <trkpt lat="45.68955" lon="4.74873">
        <ele>275.4</ele>
      </trkpt>
      <trkpt lat="45.68977" lon="4.74876">
        <ele>275.2</ele>
      </trkpt>
      <trkpt lat="45.68991" lon="4.74884">
        <ele>274.1</ele>
      </trkpt>
      <trkpt lat="45.69008" lon="4.74897">
        <ele>272.9</ele>
      </trkpt>
      <trkpt lat="45.69024" lon="4.74909">
        <ele>272.3</ele>
      </trkpt>
      <trkpt lat="45.69041" lon="4.74915">
        <ele>272.3</ele>
      </trkpt>
      <trkpt lat="45.69057" lon="4.74922">
        <ele>272.4</ele>
      </trkpt>
      <trkpt lat="45.69072" lon="4.74928">
        <ele>272.5</ele>
      </trkpt>
      <trkpt lat="45.69085" lon="4.74939">
        <ele>272.2</ele>
      </trkpt>
      <trkpt lat="45.69106" lon="4.74954">
        <ele>271.3</ele>
        <time>2010-01-01T02:32:18Z</time>
      </trkpt>
      <trkpt lat="45.69078" lon="4.74965">
        <ele>269.7</ele>
        <time>2010-01-01T02:32:29Z</time>
      </trkpt>
      <trkpt lat="45.69064" lon="4.74967">
        <ele>268.7</ele>
        <time>2010-01-01T02:32:34Z</time>
      </trkpt>
      <trkpt lat="45.69047" lon="4.74974">
        <ele>267.2</ele>
        <time>2010-01-01T02:32:41Z</time>
      </trkpt>
      <trkpt lat="45.6903" lon="4.74982">
        <ele>265.4</ele>
        <time>2010-01-01T02:32:48Z</time>
      </trkpt>
      <trkpt lat="45.69007" lon="4.74987">
        <ele>263.8</ele>
        <time>2010-01-01T02:32:56Z</time>
      </trkpt>
      <trkpt lat="45.68986" lon="4.7499">
        <ele>262.1</ele>
        <time>2010-01-01T02:33:04Z</time>
      </trkpt>
      <trkpt lat="45.68974" lon="4.7499">
        <ele>261.2</ele>
        <time>2010-01-01T02:33:09Z</time>
      </trkpt>
      <trkpt lat="45.68951" lon="4.74995">
        <ele>259.1</ele>
        <time>2010-01-01T02:33:17Z</time>
      </trkpt>
      <trkpt lat="45.68935" lon="4.75003">
        <ele>257.3</ele>
        <time>2010-01-01T02:33:23Z</time>
      </trkpt>
      <trkpt lat="45.68928" lon="4.75024">
        <ele>257</ele>
        <time>2010-01-01T02:33:29Z</time>
      </trkpt>
      <trkpt lat="45.68918" lon="4.75032">
        <ele>256.5</ele>
        <time>2010-01-01T02:33:34Z</time>
      </trkpt>
      <trkpt lat="45.68896" lon="4.75029">
        <ele>255.9</ele>
        <time>2010-01-01T02:33:42Z</time>
      </trkpt>
      <trkpt lat="45.68878" lon="4.75037">
        <ele>255.9</ele>
        <time>2010-01-01T02:33:49Z</time>
      </trkpt>
      <trkpt lat="45.68847" lon="4.75047">
        <ele>255.9</ele>
        <time>2010-01-01T02:33:55Z</time>
      </trkpt>
      <trkpt lat="45.68832" lon="4.75053">
        <ele>256.1</ele>
        <time>2010-01-01T02:34:01Z</time>
      </trkpt>
      <trkpt lat="45.68813" lon="4.75065">
        <ele>255</ele>
        <time>2010-01-01T02:34:09Z</time>
      </trkpt>
      <trkpt lat="45.68805" lon="4.75073">
        <ele>254.5</ele>
        <time>2010-01-01T02:34:13Z</time>
      </trkpt>
      <trkpt lat="45.68784" lon="4.75086">
        <ele>252.5</ele>
        <time>2010-01-01T02:34:21Z</time>
      </trkpt>
      <trkpt lat="45.6876" lon="4.75094">
        <ele>250.8</ele>
        <time>2010-01-01T02:34:31Z</time>
      </trkpt>
      <trkpt lat="45.68744" lon="4.751">
        <ele>250.2</ele>
        <time>2010-01-01T02:34:37Z</time>
      </trkpt>
      <trkpt lat="45.68724" lon="4.75107">
        <ele>249.5</ele>
        <time>2010-01-01T02:34:45Z</time>
      </trkpt>
      <trkpt lat="45.68704" lon="4.75112">
        <ele>248.2</ele>
        <time>2010-01-01T02:34:52Z</time>
      </trkpt>
      <trkpt lat="45.68684" lon="4.7512">
        <ele>247.3</ele>
        <time>2010-01-01T02:35:00Z</time>
      </trkpt>
      <trkpt lat="45.68668" lon="4.75125">
        <ele>246.1</ele>
        <time>2010-01-01T02:35:05Z</time>
      </trkpt>
      <trkpt lat="45.68654" lon="4.75141">
        <ele>245.4</ele>
        <time>2010-01-01T02:35:12Z</time>
      </trkpt>
      <trkpt lat="45.6864" lon="4.75164">
        <ele>244.4</ele>
        <time>2010-01-01T02:35:19Z</time>
      </trkpt>
      <trkpt lat="45.6863" lon="4.75178">
        <ele>243.1</ele>
        <time>2010-01-01T02:35:25Z</time>
      </trkpt>
      <trkpt lat="45.68614" lon="4.75214">
        <ele>241.8</ele>
        <time>2010-01-01T02:35:35Z</time>
      </trkpt>
      <trkpt lat="45.68601" lon="4.75238">
        <ele>240.7</ele>
        <time>2010-01-01T02:35:43Z</time>
      </trkpt>
      <trkpt lat="45.68623" lon="4.75249">
        <ele>244.2</ele>
        <time>2732-03-31T12:14:43Z</time>
      </trkpt>
      <trkpt lat="45.68637" lon="4.75255">
        <ele>246.1</ele>
        <time>3504-07-20T02:14:13Z</time>
      </trkpt>
      <trkpt lat="45.68649" lon="4.75265">
        <ele>247.7</ele>
        <time>4310-08-26T09:36:59Z</time>
      </trkpt>
      <trkpt lat="45.68661" lon="4.75268">
        <ele>248.9</ele>
        <time>5151-01-18T03:39:57Z</time>
      </trkpt>
      <trkpt lat="45.68671" lon="4.75273">
        <ele>250.1</ele>
        <time>6024-01-02T13:54:14Z</time>
      </trkpt>
      <trkpt lat="45.68681" lon="4.75276">
        <ele>251.4</ele>
        <time>6928-10-22T09:13:13Z</time>
      </trkpt>
      <trkpt lat="45.68696" lon="4.75275">
        <ele>253.5</ele>
        <time>7867-06-22T18:58:55Z</time>
      </trkpt>
      <trkpt lat="45.68706" lon="4.75272">
        <ele>255</ele>
        <time>8858-05-29T17:09:02Z</time>
      </trkpt>
      <trkpt lat="45.68718" lon="4.75268">
        <ele>256.7</ele>
        <time>9888-06-22T15:43:33Z</time>
      </trkpt>
      <trkpt lat="45.68732" lon="4.7527">
        <ele>258.5</ele>
      </trkpt>
      <trkpt lat="45.6875" lon="4.75278">
        <ele>260.7</ele>
      </trkpt>
      <trkpt lat="45.68757" lon="4.75281">
        <ele>261.1</ele>
      </trkpt>
      <trkpt lat="45.68776" lon="4.75286">
        <ele>262.5</ele>
      </trkpt>
      <trkpt lat="45.68784" lon="4.75301">
        <ele>262.5</ele>
      </trkpt>
      <trkpt lat="45.68797" lon="4.75301">
        <ele>263.6</ele>
      </trkpt>
      <trkpt lat="45.6881" lon="4.75303">
        <ele>264.8</ele>
      </trkpt>
      <trkpt lat="45.68823" lon="4.75303">
        <ele>265.8</ele>
      </trkpt>
      <trkpt lat="45.68839" lon="4.75301">
        <ele>266.9</ele>
      </trkpt>
      <trkpt lat="45.68856" lon="4.75296">
        <ele>267.5</ele>
      </trkpt>
      <trkpt lat="45.68873" lon="4.75294">
        <ele>267.9</ele>
      </trkpt>
      <trkpt lat="45.68881" lon="4.75294">
        <ele>268.1</ele>
      </trkpt>
      <trkpt lat="45.68898" lon="4.75298">
        <ele>268.5</ele>
      </trkpt>
      <trkpt lat="45.68912" lon="4.75301">
        <ele>268.9</ele>
      </trkpt>
      <trkpt lat="45.68929" lon="4.75303">
        <ele>269</ele>
      </trkpt>
      <trkpt lat="45.68938" lon="4.75304">
        <ele>269</ele>
      </trkpt>
      <trkpt lat="45.68947" lon="4.75306">
        <ele>269</ele>
      </trkpt>
      <trkpt lat="45.68963" lon="4.75308">
        <ele>269</ele>
      </trkpt>
      <trkpt lat="45.68993" lon="4.75308">
        <ele>269</ele>
      </trkpt>
      <trkpt lat="45.69014" lon="4.75308">
        <ele>269</ele>
      </trkpt>
      <trkpt lat="45.69033" lon="4.75309">
        <ele>269.1</ele>
      </trkpt>
      <trkpt lat="45.69052" lon="4.75311">
        <ele>269.1</ele>
      </trkpt>
      <trkpt lat="45.69071" lon="4.75314">
        <ele>268.9</ele>
      </trkpt>
      <trkpt lat="45.6909" lon="4.75317">
        <ele>268.9</ele>
      </trkpt>
      <trkpt lat="45.69112" lon="4.75319">
        <ele>269.3</ele>
      </trkpt>
      <trkpt lat="45.69128" lon="4.75319">
        <ele>269.6</ele>
      </trkpt>
      <trkpt lat="45.69149" lon="4.75324">
        <ele>269.9</ele>
      </trkpt>
      <trkpt lat="45.69171" lon="4.75324">
        <ele>270.3</ele>
      </trkpt>
      <trkpt lat="45.69193" lon="4.75334">
        <ele>270.3</ele>
      </trkpt>
      <trkpt lat="45.69215" lon="4.75337">
        <ele>270.5</ele>
      </trkpt>
      <trkpt lat="45.69237" lon="4.75339">
        <ele>270.7</ele>
      </trkpt>
      <trkpt lat="45.69257" lon="4.75343">
        <ele>270.9</ele>
      </trkpt>
      <trkpt lat="45.69276" lon="4.75348">
        <ele>271.3</ele>
      </trkpt>
      <trkpt lat="45.69297" lon="4.75358">
        <ele>271.5</ele>
      </trkpt>
      <trkpt lat="45.69316" lon="4.75368">
        <ele>271.8</ele>
      </trkpt>
      <trkpt lat="45.69334" lon="4.75376">
        <ele>272</ele>
      </trkpt>
      <trkpt lat="45.6935" lon="4.75383">
        <ele>272.6</ele>
      </trkpt>
      <trkpt lat="45.69382" lon="4.75381">
        <ele>274.2</ele>
      </trkpt>
      <trkpt lat="45.69398" lon="4.7537">
        <ele>275.3</ele>
      </trkpt>
      <trkpt lat="45.69419" lon="4.75361">
        <ele>276.4</ele>
      </trkpt>
      <trkpt lat="45.6943" lon="4.7536">
        <ele>276.4</ele>
      </trkpt>
      <trkpt lat="45.69444" lon="4.75358">
        <ele>276.5</ele>
      </trkpt>
      <trkpt lat="45.69457" lon="4.75358">
        <ele>276.5</ele>
      </trkpt>
      <trkpt lat="45.69468" lon="4.75357">
        <ele>276.6</ele>
      </trkpt>
      <trkpt lat="45.69485" lon="4.75355">
        <ele>276.7</ele>
      </trkpt>
      <trkpt lat="45.69503" lon="4.75355">
        <ele>276.8</ele>
      </trkpt>
      <trkpt lat="45.69517" lon="4.75355">
        <ele>277</ele>
      </trkpt>
      <trkpt lat="45.69541" lon="4.75355">
        <ele>277.2</ele>
      </trkpt>
      <trkpt lat="45.69556" lon="4.75358">
        <ele>277.4</ele>
      </trkpt>
      <trkpt lat="45.69581" lon="4.75365">
        <ele>277.6</ele>
      </trkpt>
      <trkpt lat="45.69597" lon="4.75365">
        <ele>277.9</ele>
      </trkpt>
      <trkpt lat="45.69618" lon="4.75365">
        <ele>278.3</ele>
      </trkpt>
      <trkpt lat="45.6963" lon="4.75371">
        <ele>278.4</ele>
      </trkpt>
      <trkpt lat="45.69646" lon="4.75384">
        <ele>278.4</ele>
      </trkpt>
      <trkpt lat="45.69659" lon="4.75396">
        <ele>278.4</ele>
      </trkpt>
      <trkpt lat="45.69667" lon="4.75401">
        <ele>278.4</ele>
      </trkpt>
      <trkpt lat="45.6968" lon="4.7541">
        <ele>278.1</ele>
      </trkpt>
      <trkpt lat="45.69694" lon="4.7541">
        <ele>278.1</ele>
      </trkpt>
      <trkpt lat="45.69702" lon="4.7541">
        <ele>278.1</ele>
      </trkpt>
      <trkpt lat="45.69719" lon="4.75412">
        <ele>278</ele>
      </trkpt>
      <trkpt lat="45.69733" lon="4.75414">
        <ele>278</ele>
      </trkpt>
      <trkpt lat="45.69751" lon="4.75414">
        <ele>278</ele>
      </trkpt>
      <trkpt lat="45.69767" lon="4.75419">
        <ele>277.7</ele>
      </trkpt>
      <trkpt lat="45.69779" lon="4.75422">
        <ele>277.4</ele>
      </trkpt>
      <trkpt lat="45.69795" lon="4.75422">
        <ele>277.2</ele>
      </trkpt>
      <trkpt lat="45.69806" lon="4.75422">
        <ele>277.1</ele>
      </trkpt>
      <trkpt lat="45.69823" lon="4.75424">
        <ele>276.8</ele>
      </trkpt>
      <trkpt lat="45.69838" lon="4.75422">
        <ele>276.6</ele>
      </trkpt>
      <trkpt lat="45.69838" lon="4.75463">
        <ele>274.7</ele>
      </trkpt>
      <trkpt lat="45.69837" lon="4.75495">
        <ele>273.2</ele>
      </trkpt>
      <trkpt lat="45.69834" lon="4.75528">
        <ele>272</ele>
      </trkpt>
      <trkpt lat="45.69834" lon="4.75548">
        <ele>271.3</ele>
      </trkpt>
      <trkpt lat="45.69828" lon="4.75575">
        <ele>270.5</ele>
      </trkpt>
      <trkpt lat="45.69805" lon="4.75605">
        <ele>271</ele>
      </trkpt>
      <trkpt lat="45.69782" lon="4.75613">
        <ele>271.9</ele>
      </trkpt>
      <trkpt lat="45.69769" lon="4.75628">
        <ele>272.3</ele>
      </trkpt>
      <trkpt lat="45.69764" lon="4.75646">
        <ele>272.5</ele>
      </trkpt>
      <trkpt lat="45.69753" lon="4.75659">
        <ele>272.9</ele>
      </trkpt>
      <trkpt lat="45.69743" lon="4.75679">
        <ele>273.3</ele>
      </trkpt>
      <trkpt lat="45.69734" lon="4.75693">
        <ele>273.9</ele>
      </trkpt>
      <trkpt lat="45.69723" lon="4.75706">
        <ele>274.8</ele>
      </trkpt>
      <trkpt lat="45.69708" lon="4.75716">
        <ele>276</ele>
      </trkpt>
      <trkpt lat="45.69688" lon="4.75724">
        <ele>277.8</ele>
      </trkpt>
      <trkpt lat="45.69672" lon="4.75734">
        <ele>279.5</ele>
      </trkpt>
      <trkpt lat="45.69658" lon="4.75747">
        <ele>280.2</ele>
      </trkpt>
      <trkpt lat="45.69644" lon="4.75757">
        <ele>279.8</ele>
      </trkpt>
      <trkpt lat="45.69632" lon="4.75768">
        <ele>279.7</ele>
      </trkpt>
      <trkpt lat="45.69621" lon="4.7578">
        <ele>279.8</ele>
      </trkpt>
      <trkpt lat="45.69612" lon="4.7579">
        <ele>280</ele>
      </trkpt>
      <trkpt lat="45.69598" lon="4.75803">
        <ele>280.6</ele>
      </trkpt>
      <trkpt lat="45.69583" lon="4.75813">
        <ele>281.2</ele>
      </trkpt>
      <trkpt lat="45.69566" lon="4.75827">
        <ele>279.8</ele>
      </trkpt>
      <trkpt lat="45.6955" lon="4.7584">
        <ele>277.8</ele>
      </trkpt>
      <trkpt lat="45.6954" lon="4.75849">
        <ele>276.3</ele>
      </trkpt>
      <trkpt lat="45.69525" lon="4.75858">
        <ele>274.4</ele>
      </trkpt>
      <trkpt lat="45.69514" lon="4.75865">
        <ele>273.1</ele>
      </trkpt>
      <trkpt lat="45.69496" lon="4.75879">
        <ele>271.6</ele>
      </trkpt>
      <trkpt lat="45.69486" lon="4.75909">
        <ele>271.4</ele>
      </trkpt>
      <trkpt lat="45.69497" lon="4.75943">
        <ele>271.6</ele>
      </trkpt>
      <trkpt lat="45.69498" lon="4.75976">
        <ele>269.4</ele>
      </trkpt>
      <trkpt lat="45.69495" lon="4.76005">
        <ele>266.2</ele>
      </trkpt>
      <trkpt lat="45.69493" lon="4.76035">
        <ele>260</ele>
      </trkpt>
      <trkpt lat="45.69489" lon="4.76064">
        <ele>253.5</ele>
      </trkpt>
      <trkpt lat="45.69481" lon="4.76086">
        <ele>249</ele>
      </trkpt>
      <trkpt lat="45.69481" lon="4.76112">
        <ele>243.3</ele>
      </trkpt>
      <trkpt lat="45.69478" lon="4.76138">
        <ele>237.5</ele>
      </trkpt>
      <trkpt lat="45.69451" lon="4.76154">
        <ele>233.7</ele>
      </trkpt>
      <trkpt lat="45.6942" lon="4.76162">
        <ele>232</ele>
      </trkpt>
      <trkpt lat="45.694" lon="4.76175">
        <ele>230.5</ele>
      </trkpt>
      <trkpt lat="45.69369" lon="4.76189">
        <ele>229.5</ele>
      </trkpt>
      <trkpt lat="45.69352" lon="4.762">
        <ele>228.7</ele>
      </trkpt>
      <trkpt lat="45.69331" lon="4.76206">
        <ele>228.2</ele>
      </trkpt>
      <trkpt lat="45.69316" lon="4.76218">
        <ele>227.9</ele>
      </trkpt>
      <trkpt lat="45.69307" lon="4.76224">
        <ele>227.8</ele>
      </trkpt>
      <trkpt lat="45.69293" lon="4.76247">
        <ele>226.6</ele>
      </trkpt>
      <trkpt lat="45.69277" lon="4.76254">
        <ele>226.7</ele>
      </trkpt>
      <trkpt lat="45.69257" lon="4.76257">
        <ele>226.9</ele>
      </trkpt>
      <trkpt lat="45.69229" lon="4.76247">
        <ele>226.9</ele>
      </trkpt>
      <trkpt lat="45.69208" lon="4.76239">
        <ele>227.1</ele>
      </trkpt>
      <trkpt lat="45.69185" lon="4.76231">
        <ele>227.1</ele>
      </trkpt>
      <trkpt lat="45.6916" lon="4.76223">
        <ele>226.9</ele>
      </trkpt>
      <trkpt lat="45.69143" lon="4.76215">
        <ele>227.1</ele>
      </trkpt>
      <trkpt lat="45.69126" lon="4.76206">
        <ele>227.4</ele>
      </trkpt>
      <trkpt lat="45.69107" lon="4.76197">
        <ele>227.7</ele>
      </trkpt>
      <trkpt lat="45.69082" lon="4.76187">
        <ele>228.1</ele>
      </trkpt>
      <trkpt lat="45.69063" lon="4.7618">
        <ele>229</ele>
      </trkpt>
      <trkpt lat="45.69039" lon="4.76172">
        <ele>230.3</ele>
      </trkpt>
      <trkpt lat="45.69023" lon="4.76169">
        <ele>231.1</ele>
      </trkpt>
      <trkpt lat="45.69007" lon="4.76167">
        <ele>231.8</ele>
      </trkpt>
      <trkpt lat="45.68986" lon="4.76167">
        <ele>232.2</ele>
      </trkpt>
      <trkpt lat="45.68973" lon="4.76162">
        <ele>232.9</ele>
      </trkpt>
      <trkpt lat="45.68957" lon="4.76162">
        <ele>233.1</ele>
      </trkpt>
      <trkpt lat="45.68949" lon="4.76163">
        <ele>233.1</ele>
      </trkpt>
      <trkpt lat="45.68936" lon="4.76162">
        <ele>233.4</ele>
      </trkpt>
      <trkpt lat="45.68918" lon="4.76161">
        <ele>233.8</ele>
      </trkpt>
      <trkpt lat="45.68905" lon="4.76159">
        <ele>234.5</ele>
      </trkpt>
      <trkpt lat="45.68888" lon="4.76157">
        <ele>235.4</ele>
      </trkpt>
      <trkpt lat="45.6887" lon="4.76153">
        <ele>236.8</ele>
      </trkpt>
      <trkpt lat="45.68856" lon="4.76149">
        <ele>237.8</ele>
      </trkpt>
      <trkpt lat="45.68837" lon="4.76144">
        <ele>239.1</ele>
      </trkpt>
      <trkpt lat="45.68801" lon="4.76138">
        <ele>241.9</ele>
      </trkpt>
      <trkpt lat="45.68816" lon="4.76167">
        <ele>238.4</ele>
      </trkpt>
      <trkpt lat="45.68833" lon="4.76193">
        <ele>234.8</ele>
      </trkpt>
      <trkpt lat="45.68845" lon="4.76208">
        <ele>233</ele>
      </trkpt>
      <trkpt lat="45.68856" lon="4.76228">
        <ele>230.6</ele>
      </trkpt>
      <trkpt lat="45.68869" lon="4.76251">
        <ele>227.9</ele>
      </trkpt>
      <trkpt lat="45.68883" lon="4.76274">
        <ele>226</ele>
      </trkpt>
      <trkpt lat="45.68903" lon="4.76309">
        <ele>223.5</ele>
      </trkpt>
      <trkpt lat="45.68921" lon="4.76331">
        <ele>222</ele>
      </trkpt>
      <trkpt lat="45.68937" lon="4.7635">
        <ele>221.2</ele>
      </trkpt>
      <trkpt lat="45.68952" lon="4.76378">
        <ele>220.3</ele>
      </trkpt>
      <trkpt lat="45.6897" lon="4.76398">
        <ele>219.7</ele>
      </trkpt>
      <trkpt lat="45.6898" lon="4.7643">
        <ele>219.2</ele>
      </trkpt>
      <trkpt lat="45.68994" lon="4.7645">
        <ele>219.1</ele>
      </trkpt>
      <trkpt lat="45.69019" lon="4.76478">
        <ele>219.3</ele>
      </trkpt>
      <trkpt lat="45.69051" lon="4.76494">
        <ele>219.7</ele>
      </trkpt>
      <trkpt lat="45.69073" lon="4.76514">
        <ele>220.1</ele>
      </trkpt>
      <trkpt lat="45.6909" lon="4.76527">
        <ele>220.4</ele>
      </trkpt>
      <trkpt lat="45.69115" lon="4.76546">
        <ele>220.9</ele>
      </trkpt>
      <trkpt lat="45.69128" lon="4.76564">
        <ele>221.3</ele>
      </trkpt>
      <trkpt lat="45.69147" lon="4.76576">
        <ele>221.7</ele>
      </trkpt>
      <trkpt lat="45.69163" lon="4.76587">
        <ele>222.1</ele>
      </trkpt>
      <trkpt lat="45.69179" lon="4.76584">
        <ele>223</ele>
      </trkpt>
      <trkpt lat="45.69188" lon="4.76596">
        <ele>222</ele>
        <time>2010-01-01T02:44:05Z</time>
      </trkpt>
      <trkpt lat="45.69182" lon="4.76602">
        <ele>222</ele>
        <time>2010-01-01T02:44:08Z</time>
      </trkpt>
      <trkpt lat="45.69178" lon="4.76611">
        <ele>222</ele>
        <time>2010-01-01T02:44:11Z</time>
      </trkpt>
      <trkpt lat="45.69176" lon="4.76629">
        <ele>223</ele>
        <time>2010-01-01T02:44:16Z</time>
      </trkpt>
      <trkpt lat="45.69178" lon="4.7664">
        <ele>223</ele>
        <time>2010-01-01T02:44:19Z</time>
      </trkpt>
      <trkpt lat="45.69183" lon="4.76649">
        <ele>223</ele>
        <time>2010-01-01T02:44:23Z</time>
      </trkpt>
      <trkpt lat="45.69189" lon="4.76656">
        <ele>223</ele>
        <time>2010-01-01T02:44:26Z</time>
      </trkpt>
      <trkpt lat="45.69197" lon="4.76659">
        <ele>223</ele>
        <time>2010-01-01T02:44:29Z</time>
      </trkpt>
      <trkpt lat="45.69202" lon="4.76678">
        <ele>224</ele>
        <time>2010-01-01T02:44:35Z</time>
      </trkpt>
      <trkpt lat="45.6921" lon="4.76722">
        <ele>224</ele>
        <time>2010-01-01T02:44:47Z</time>
      </trkpt>
      <trkpt lat="45.69208" lon="4.76769">
        <ele>226.7</ele>
      </trkpt>
      <trkpt lat="45.6921" lon="4.76814">
        <ele>229.7</ele>
      </trkpt>
      <trkpt lat="45.6921" lon="4.76872">
        <ele>236</ele>
      </trkpt>
      <trkpt lat="45.69215" lon="4.76908">
        <ele>237</ele>
        <time>2010-01-01T02:45:39Z</time>
      </trkpt>
      <trkpt lat="45.6922" lon="4.76928">
        <ele>241</ele>
        <time>2010-01-01T02:45:45Z</time>
      </trkpt>
      <trkpt lat="45.69237" lon="4.76942">
        <ele>243</ele>
        <time>2010-01-01T02:45:53Z</time>
      </trkpt>
      <trkpt lat="45.69245" lon="4.76965">
        <ele>248.8</ele>
      </trkpt>
      <trkpt lat="45.69257" lon="4.76984">
        <ele>251.5</ele>
      </trkpt>
      <trkpt lat="45.69276" lon="4.77028">
        <ele>256.7</ele>
      </trkpt>
      <trkpt lat="45.69288" lon="4.77046">
        <ele>252</ele>
        <time>2010-01-01T02:46:29Z</time>
      </trkpt>
      <trkpt lat="45.6929" lon="4.77058">
        <ele>253</ele>
        <time>2010-01-01T02:46:32Z</time>
      </trkpt>
      <trkpt lat="45.69288" lon="4.77096">
        <ele>257</ele>
        <time>2010-01-01T02:46:43Z</time>
      </trkpt>
      <trkpt lat="45.69262" lon="4.77093">
        <ele>257.8</ele>
      </trkpt>
      <trkpt lat="45.69232" lon="4.77075">
        <ele>262</ele>
        <time>2010-01-01T02:47:06Z</time>
      </trkpt>
      <trkpt lat="45.69199" lon="4.77079">
        <ele>257.6</ele>
      </trkpt>
      <trkpt lat="45.69173" lon="4.7708">
        <ele>259.2</ele>
      </trkpt>
      <trkpt lat="45.69151" lon="4.77083">
        <ele>260.6</ele>
      </trkpt>
      <trkpt lat="45.69114" lon="4.7708">
        <ele>261.3</ele>
      </trkpt>
      <trkpt lat="45.69088" lon="4.77079">
        <ele>266</ele>
        <time>2010-01-01T02:48:04Z</time>
      </trkpt>
      <trkpt lat="45.6906" lon="4.77075">
        <ele>262.2</ele>
      </trkpt>
      <trkpt lat="45.69034" lon="4.7707">
        <ele>266</ele>
        <time>2010-01-01T02:48:26Z</time>
      </trkpt>
      <trkpt lat="45.69006" lon="4.77073">
        <ele>263.8</ele>
      </trkpt>
      <trkpt lat="45.68981" lon="4.77071">
        <ele>265</ele>
        <time>2010-01-01T02:48:47Z</time>
      </trkpt>
      <trkpt lat="45.68962" lon="4.77089">
        <ele>267</ele>
        <time>2010-01-01T02:48:56Z</time>
      </trkpt>
      <trkpt lat="45.68933" lon="4.77108">
        <ele>272</ele>
        <time>2010-01-01T02:49:08Z</time>
      </trkpt>
      <trkpt lat="45.68932" lon="4.77138">
        <ele>278</ele>
        <time>2010-01-01T02:49:17Z</time>
      </trkpt>
      <trkpt lat="45.68924" lon="4.77178">
        <ele>281</ele>
        <time>2010-01-01T02:49:29Z</time>
      </trkpt>
      <trkpt lat="45.68923" lon="4.77207">
        <ele>281</ele>
        <time>2010-01-01T02:49:37Z</time>
      </trkpt>
      <trkpt lat="45.68934" lon="4.77273">
        <ele>280</ele>
        <time>2010-01-01T02:49:56Z</time>
      </trkpt>
      <trkpt lat="45.68935" lon="4.77298">
        <ele>281</ele>
        <time>2010-01-01T02:50:03Z</time>
      </trkpt>
      <trkpt lat="45.68927" lon="4.77317">
        <ele>282</ele>
        <time>2010-01-01T02:50:09Z</time>
      </trkpt>
      <trkpt lat="45.68905" lon="4.77331">
        <ele>284</ele>
        <time>2010-01-01T02:50:18Z</time>
      </trkpt>
      <trkpt lat="45.68879" lon="4.77345">
        <ele>283</ele>
        <time>2010-01-01T02:50:29Z</time>
      </trkpt>
      <trkpt lat="45.6883" lon="4.77386">
        <ele>276</ele>
        <time>2010-01-01T02:50:52Z</time>
      </trkpt>
      <trkpt lat="45.68808" lon="4.77416">
        <ele>273</ele>
        <time>2010-01-01T02:51:04Z</time>
      </trkpt>
      <trkpt lat="45.68806" lon="4.77446">
        <ele>274</ele>
        <time>2010-01-01T02:51:13Z</time>
      </trkpt>
      <trkpt lat="45.68799" lon="4.7747">
        <ele>274</ele>
        <time>2010-01-01T02:51:20Z</time>
      </trkpt>
      <trkpt lat="45.68776" lon="4.77501">
        <ele>275</ele>
        <time>2010-01-01T02:51:33Z</time>
      </trkpt>
      <trkpt lat="45.68766" lon="4.77529">
        <ele>277</ele>
        <time>2010-01-01T02:51:41Z</time>
      </trkpt>
      <trkpt lat="45.68752" lon="4.77559">
        <ele>277</ele>
        <time>2010-01-01T02:51:51Z</time>
      </trkpt>
      <trkpt lat="45.68741" lon="4.7761">
        <ele>277</ele>
        <time>2010-01-01T02:52:07Z</time>
      </trkpt>
      <trkpt lat="45.68746" lon="4.77654">
        <ele>278</ele>
        <time>2010-01-01T02:52:19Z</time>
      </trkpt>
      <trkpt lat="45.68775" lon="4.77682">
        <ele>280</ele>
        <time>2010-01-01T02:52:33Z</time>
      </trkpt>
      <trkpt lat="45.68785" lon="4.77695">
        <ele>280</ele>
        <time>2010-01-01T02:52:38Z</time>
      </trkpt>
      <trkpt lat="45.6879" lon="4.77735">
        <ele>280</ele>
        <time>2010-01-01T02:52:50Z</time>
      </trkpt>
      <trkpt lat="45.68806" lon="4.77756">
        <ele>283.2</ele>
      </trkpt>
      <trkpt lat="45.68838" lon="4.77772">
        <ele>283.4</ele>
      </trkpt>
      <trkpt lat="45.68862" lon="4.77787">
        <ele>283</ele>
        <time>2010-01-01T02:53:22Z</time>
      </trkpt>
      <trkpt lat="45.68866" lon="4.77837">
        <ele>281.6</ele>
      </trkpt>
      <trkpt lat="45.68865" lon="4.77871">
        <ele>285</ele>
        <time>2010-01-01T02:53:45Z</time>
      </trkpt>
      <trkpt lat="45.68868" lon="4.77917">
        <ele>282</ele>
      </trkpt>
      <trkpt lat="45.68865" lon="4.7795">
        <ele>281</ele>
        <time>2010-01-01T02:54:07Z</time>
      </trkpt>
      <trkpt lat="45.68873" lon="4.77952">
        <ele>281</ele>
        <time>2010-01-01T02:54:11Z</time>
      </trkpt>
      <trkpt lat="45.68885" lon="4.77962">
        <ele>281</ele>
        <time>2010-01-01T02:54:16Z</time>
      </trkpt>
      <trkpt lat="45.68876" lon="4.78027">
        <ele>278</ele>
        <time>2010-01-01T02:54:35Z</time>
      </trkpt>
      <trkpt lat="45.68894" lon="4.78044">
        <ele>277</ele>
        <time>2010-01-01T02:54:43Z</time>
      </trkpt>
      <trkpt lat="45.68908" lon="4.78074">
        <ele>276</ele>
        <time>2010-01-01T02:54:53Z</time>
      </trkpt>
      <trkpt lat="45.68938" lon="4.78108">
        <ele>275</ele>
        <time>2010-01-01T02:55:09Z</time>
      </trkpt>
      <trkpt lat="45.68975" lon="4.78141">
        <ele>277</ele>
        <time>2010-01-01T02:55:26Z</time>
      </trkpt>
      <trkpt lat="45.68999" lon="4.78156">
        <ele>277</ele>
        <time>2010-01-01T02:55:36Z</time>
      </trkpt>
      <trkpt lat="45.69028" lon="4.78161">
        <ele>279.4</ele>
      </trkpt>
      <trkpt lat="45.69062" lon="4.78165">
        <ele>276</ele>
        <time>2010-01-01T02:56:02Z</time>
      </trkpt>
      <trkpt lat="45.69096" lon="4.782">
        <ele>278.4</ele>
      </trkpt>
      <trkpt lat="45.69118" lon="4.78216">
        <ele>275</ele>
        <time>2010-01-01T02:56:29Z</time>
      </trkpt>
      <trkpt lat="45.69138" lon="4.78224">
        <ele>274</ele>
        <time>2010-01-01T02:56:37Z</time>
      </trkpt>
      <trkpt lat="45.692" lon="4.78198">
        <ele>278</ele>
        <time>2010-01-01T02:57:03Z</time>
      </trkpt>
      <trkpt lat="45.69217" lon="4.78204">
        <ele>278</ele>
        <time>2010-01-01T02:57:10Z</time>
      </trkpt>
      <trkpt lat="45.69232" lon="4.78221">
        <ele>278</ele>
        <time>2010-01-01T02:57:17Z</time>
      </trkpt>
      <trkpt lat="45.69236" lon="4.78262">
        <ele>276</ele>
        <time>2010-01-01T02:57:29Z</time>
      </trkpt>
      <trkpt lat="45.6926" lon="4.78304">
        <ele>277</ele>
        <time>2010-01-01T02:57:44Z</time>
      </trkpt>
      <trkpt lat="45.69286" lon="4.78329">
        <ele>275</ele>
        <time>2010-01-01T02:57:57Z</time>
      </trkpt>
      <trkpt lat="45.69319" lon="4.78343">
        <ele>276</ele>
        <time>2010-01-01T02:58:10Z</time>
      </trkpt>
      <trkpt lat="45.69356" lon="4.78354">
        <ele>275</ele>
        <time>2010-01-01T02:58:26Z</time>
      </trkpt>
      <trkpt lat="45.69389" lon="4.78381">
        <ele>271</ele>
        <time>2010-01-01T02:58:41Z</time>
      </trkpt>
      <trkpt lat="45.69408" lon="4.78381">
        <ele>278.1</ele>
      </trkpt>
      <trkpt lat="45.69437" lon="4.78387">
        <ele>277.4</ele>
      </trkpt>
      <trkpt lat="45.69478" lon="4.78384">
        <ele>277.9</ele>
      </trkpt>
      <trkpt lat="45.69512" lon="4.78383">
        <ele>279</ele>
        <time>2010-01-01T02:59:30Z</time>
      </trkpt>
      <trkpt lat="45.69554" lon="4.78381">
        <ele>279</ele>
        <time>2010-01-01T02:59:47Z</time>
      </trkpt>
      <trkpt lat="45.69591" lon="4.78361">
        <ele>282</ele>
        <time>2010-01-01T03:00:03Z</time>
      </trkpt>
      <trkpt lat="45.69633" lon="4.78328">
        <ele>286</ele>
        <time>2010-01-01T03:00:22Z</time>
      </trkpt>
      <trkpt lat="45.69662" lon="4.783">
        <ele>289</ele>
        <time>2010-01-01T03:00:36Z</time>
      </trkpt>
      <trkpt lat="45.69681" lon="4.78305">
        <ele>289</ele>
        <time>2010-01-01T03:00:44Z</time>
      </trkpt>
      <trkpt lat="45.69693" lon="4.78271">
        <ele>290</ele>
        <time>2010-01-01T03:00:54Z</time>
      </trkpt>
      <trkpt lat="45.69709" lon="4.78235">
        <ele>290</ele>
        <time>2010-01-01T03:01:06Z</time>
      </trkpt>
      <trkpt lat="45.69731" lon="4.78203">
        <ele>290</ele>
        <time>2010-01-01T03:01:19Z</time>
      </trkpt>
      <trkpt lat="45.69753" lon="4.78186">
        <ele>288</ele>
        <time>2010-01-01T03:01:29Z</time>
      </trkpt>
      <trkpt lat="45.6979" lon="4.78187">
        <ele>286</ele>
        <time>2010-01-01T03:01:44Z</time>
      </trkpt>
      <trkpt lat="45.69815" lon="4.78192">
        <ele>284</ele>
        <time>2010-01-01T03:01:54Z</time>
      </trkpt>
      <trkpt lat="45.69848" lon="4.78201">
        <ele>283</ele>
        <time>2010-01-01T03:02:07Z</time>
      </trkpt>
      <trkpt lat="45.69881" lon="4.78214">
        <ele>284</ele>
        <time>2010-01-01T03:02:21Z</time>
      </trkpt>
      <trkpt lat="45.699" lon="4.78224">
        <ele>284</ele>
        <time>2010-01-01T03:02:29Z</time>
      </trkpt>
      <trkpt lat="45.69913" lon="4.78237">
        <ele>284</ele>
        <time>2010-01-01T03:02:35Z</time>
      </trkpt>
      <trkpt lat="45.69925" lon="4.78257">
        <ele>285</ele>
        <time>2010-01-01T03:02:43Z</time>
      </trkpt>
      <trkpt lat="45.69947" lon="4.7831">
        <ele>284.7</ele>
      </trkpt>
      <trkpt lat="45.69967" lon="4.78365">
        <ele>287</ele>
        <time>2010-01-01T03:03:17Z</time>
      </trkpt>
      <trkpt lat="45.69969" lon="4.78382">
        <ele>287</ele>
        <time>2010-01-01T03:03:22Z</time>
      </trkpt>
      <trkpt lat="45.69968" lon="4.78401">
        <ele>288</ele>
        <time>2010-01-01T03:03:27Z</time>
      </trkpt>
      <trkpt lat="45.69958" lon="4.7845">
        <ele>285.7</ele>
      </trkpt>
      <trkpt lat="45.69945" lon="4.78491">
        <ele>289</ele>
        <time>2010-01-01T03:03:54Z</time>
      </trkpt>
      <trkpt lat="45.69945" lon="4.78503">
        <ele>290</ele>
        <time>2010-01-01T03:03:57Z</time>
      </trkpt>
      <trkpt lat="45.69945" lon="4.78502">
        <ele>290</ele>
        <time>2010-01-01T03:03:58Z</time>
      </trkpt>
      <trkpt lat="45.69948" lon="4.78518">
        <ele>290</ele>
        <time>2010-01-01T03:04:02Z</time>
      </trkpt>
      <trkpt lat="45.69961" lon="4.78536">
        <ele>289</ele>
        <time>2010-01-01T03:04:10Z</time>
      </trkpt>
      <trkpt lat="45.69975" lon="4.78552">
        <ele>288</ele>
        <time>2010-01-01T03:04:17Z</time>
      </trkpt>
      <trkpt lat="45.69999" lon="4.78569">
        <ele>285.7</ele>
      </trkpt>
      <trkpt lat="45.70029" lon="4.7859">
        <ele>284.5</ele>
      </trkpt>
      <trkpt lat="45.70056" lon="4.78604">
        <ele>283.1</ele>
      </trkpt>
      <trkpt lat="45.70086" lon="4.78619">
        <ele>287</ele>
        <time>2010-01-01T03:05:05Z</time>
      </trkpt>
      <trkpt lat="45.70111" lon="4.7864">
        <ele>282.8</ele>
      </trkpt>
      <trkpt lat="45.70134" lon="4.78651">
        <ele>282</ele>
        <time>2010-01-01T03:05:26Z</time>
      </trkpt>
      <trkpt lat="45.70114" lon="4.78687">
        <ele>282.6</ele>
      </trkpt>
      <trkpt lat="45.70092" lon="4.78718">
        <ele>281.1</ele>
      </trkpt>
      <trkpt lat="45.70073" lon="4.78752">
        <ele>279.6</ele>
      </trkpt>
      <trkpt lat="45.70055" lon="4.78783">
        <ele>273</ele>
        <time>2010-01-01T03:06:15Z</time>
      </trkpt>
      <trkpt lat="45.70071" lon="4.78795">
        <ele>277.9</ele>
      </trkpt>
      <trkpt lat="45.70099" lon="4.78813">
        <ele>277.9</ele>
      </trkpt>
      <trkpt lat="45.70125" lon="4.78832">
        <ele>277</ele>
        <time>2010-01-01T03:06:46Z</time>
      </trkpt>
      <trkpt lat="45.70156" lon="4.7884">
        <ele>276.5</ele>
      </trkpt>
      <trkpt lat="45.70204" lon="4.78839">
        <ele>275.3</ele>
      </trkpt>
      <trkpt lat="45.70221" lon="4.78839">
        <ele>274.7</ele>
      </trkpt>
      <trkpt lat="45.70254" lon="4.7884">
        <ele>273.5</ele>
      </trkpt>
      <trkpt lat="45.70282" lon="4.78839">
        <ele>276</ele>
        <time>2010-01-01T03:07:49Z</time>
      </trkpt>
      <trkpt lat="45.70304" lon="4.78839">
        <ele>269.9</ele>
      </trkpt>
      <trkpt lat="45.70323" lon="4.78843">
        <ele>268.4</ele>
      </trkpt>
      <trkpt lat="45.70344" lon="4.78848">
        <ele>267.3</ele>
      </trkpt>
      <trkpt lat="45.70369" lon="4.78848">
        <ele>267</ele>
      </trkpt>
      <trkpt lat="45.704" lon="4.78844">
        <ele>266.7</ele>
      </trkpt>
      <trkpt lat="45.7042" lon="4.78834">
        <ele>268</ele>
        <time>2010-01-01T03:08:45Z</time>
      </trkpt>
      <trkpt lat="45.70429" lon="4.78811">
        <ele>267.5</ele>
      </trkpt>
      <trkpt lat="45.70428" lon="4.78777">
        <ele>271</ele>
        <time>2010-01-01T03:09:01Z</time>
      </trkpt>
      <trkpt lat="45.70451" lon="4.78773">
        <ele>268.5</ele>
      </trkpt>
      <trkpt lat="45.70495" lon="4.78759">
        <ele>267.5</ele>
      </trkpt>
      <trkpt lat="45.70516" lon="4.78757">
        <ele>266.4</ele>
      </trkpt>
      <trkpt lat="45.70549" lon="4.78743">
        <ele>265.3</ele>
      </trkpt>
      <trkpt lat="45.70574" lon="4.78732">
        <ele>264.8</ele>
      </trkpt>
      <trkpt lat="45.70603" lon="4.78725">
        <ele>263.4</ele>
      </trkpt>
      <trkpt lat="45.70635" lon="4.78711">
        <ele>261.8</ele>
      </trkpt>
      <trkpt lat="45.70669" lon="4.78697">
        <ele>259.4</ele>
      </trkpt>
      <trkpt lat="45.70691" lon="4.78684">
        <ele>258.6</ele>
      </trkpt>
      <trkpt lat="45.70715" lon="4.78674">
        <ele>257.4</ele>
      </trkpt>
      <trkpt lat="45.70732" lon="4.7867">
        <ele>256.2</ele>
      </trkpt>
      <trkpt lat="45.70757" lon="4.78663">
        <ele>255.4</ele>
      </trkpt>
      <trkpt lat="45.7078" lon="4.7865">
        <ele>259</ele>
        <time>2010-01-01T03:11:26Z</time>
      </trkpt>
      <trkpt lat="45.70785" lon="4.78684">
        <ele>255.2</ele>
      </trkpt>
      <trkpt lat="45.70792" lon="4.78719">
        <ele>254.9</ele>
      </trkpt>
      <trkpt lat="45.70796" lon="4.78759">
        <ele>254.5</ele>
      </trkpt>
      <trkpt lat="45.70799" lon="4.78785">
        <ele>254</ele>
        <time>2010-01-01T03:12:05Z</time>
      </trkpt>
      <trkpt lat="45.70811" lon="4.78779">
        <ele>254.6</ele>
      </trkpt>
      <trkpt lat="45.7084" lon="4.78759">
        <ele>255.1</ele>
      </trkpt>
      <trkpt lat="45.70857" lon="4.78744">
        <ele>256</ele>
      </trkpt>
      <trkpt lat="45.7088" lon="4.78724">
        <ele>257.5</ele>
      </trkpt>
      <trkpt lat="45.709" lon="4.78706">
        <ele>255</ele>
        <time>2010-01-01T03:12:51Z</time>
      </trkpt>
      <trkpt lat="45.70913" lon="4.78733">
        <ele>258.7</ele>
      </trkpt>
      <trkpt lat="45.7093" lon="4.78764">
        <ele>256</ele>
        <time>2010-01-01T03:13:11Z</time>
      </trkpt>
      <trkpt lat="45.7095" lon="4.78789">
        <ele>254.8</ele>
      </trkpt>
      <trkpt lat="45.7099" lon="4.78807">
        <ele>252</ele>
        <time>2010-01-01T03:13:38Z</time>
      </trkpt>
      <trkpt lat="45.71021" lon="4.78818">
        <ele>251.3</ele>
      </trkpt>
      <trkpt lat="45.71074" lon="4.78824">
        <ele>251</ele>
        <time>2010-01-01T03:14:12Z</time>
      </trkpt>
      <trkpt lat="45.7112" lon="4.78848">
        <ele>245.6</ele>
      </trkpt>
      <trkpt lat="45.71153" lon="4.78862">
        <ele>248</ele>
        <time>2010-01-01T03:14:45Z</time>
      </trkpt>
      <trkpt lat="45.71192" lon="4.78863">
        <ele>241.7</ele>
      </trkpt>
      <trkpt lat="45.71219" lon="4.7886">
        <ele>246</ele>
        <time>2010-01-01T03:15:12Z</time>
      </trkpt>
      <trkpt lat="45.71247" lon="4.78862">
        <ele>241.9</ele>
      </trkpt>
      <trkpt lat="45.71277" lon="4.78869">
        <ele>241</ele>
        <time>2010-01-01T03:15:35Z</time>
      </trkpt>
      <trkpt lat="45.71306" lon="4.78895">
        <ele>239.9</ele>
      </trkpt>
      <trkpt lat="45.71325" lon="4.78916">
        <ele>238</ele>
        <time>2010-01-01T03:15:58Z</time>
      </trkpt>
      <trkpt lat="45.71373" lon="4.78942">
        <ele>239</ele>
        <time>2010-01-01T03:16:19Z</time>
      </trkpt>
      <trkpt lat="45.71392" lon="4.78945">
        <ele>237.5</ele>
      </trkpt>
      <trkpt lat="45.71426" lon="4.7894">
        <ele>241</ele>
        <time>2010-01-01T03:16:40Z</time>
      </trkpt>
      <trkpt lat="45.71451" lon="4.78918">
        <ele>235.4</ele>
      </trkpt>
      <trkpt lat="45.7148" lon="4.78897">
        <ele>239</ele>
        <time>2010-01-01T03:17:05Z</time>
      </trkpt>
      <trkpt lat="45.71522" lon="4.78873">
        <ele>238</ele>
        <time>2010-01-01T03:17:23Z</time>
      </trkpt>
      <trkpt lat="45.7155" lon="4.78933">
        <ele>234</ele>
        <time>2010-01-01T03:17:43Z</time>
      </trkpt>
      <trkpt lat="45.71582" lon="4.78956">
        <ele>227.7</ele>
      </trkpt>
      <trkpt lat="45.71617" lon="4.78965">
        <ele>231</ele>
        <time>2010-01-01T03:18:11Z</time>
      </trkpt>
      <trkpt lat="45.71623" lon="4.78979">
        <ele>231</ele>
        <time>2010-01-01T03:18:16Z</time>
      </trkpt>
      <trkpt lat="45.71633" lon="4.78987">
        <ele>231</ele>
        <time>2010-01-01T03:18:20Z</time>
      </trkpt>
      <trkpt lat="45.71646" lon="4.78989">
        <ele>230</ele>
        <time>2010-01-01T03:18:25Z</time>
      </trkpt>
      <trkpt lat="45.71661" lon="4.7901">
        <ele>214.5</ele>
      </trkpt>
      <trkpt lat="45.71688" lon="4.79028">
        <ele>212.1</ele>
      </trkpt>
      <trkpt lat="45.7172" lon="4.79043">
        <ele>209.9</ele>
      </trkpt>
      <trkpt lat="45.71755" lon="4.79058">
        <ele>212</ele>
        <time>2010-01-01T03:19:13Z</time>
      </trkpt>
      <trkpt lat="45.7176" lon="4.79033">
        <ele>209.3</ele>
      </trkpt>
      <trkpt lat="45.71764" lon="4.78992">
        <ele>211.4</ele>
      </trkpt>
      <trkpt lat="45.71771" lon="4.78942">
        <ele>212.7</ele>
      </trkpt>
      <trkpt lat="45.71784" lon="4.78895">
        <ele>218</ele>
        <time>2010-01-01T03:20:00Z</time>
      </trkpt>
      <trkpt lat="45.71793" lon="4.78873">
        <ele>214.6</ele>
      </trkpt>
      <trkpt lat="45.7181" lon="4.78838">
        <ele>215.2</ele>
      </trkpt>
      <trkpt lat="45.7182" lon="4.788">
        <ele>221</ele>
        <time>2010-01-01T03:20:30Z</time>
      </trkpt>
      <trkpt lat="45.71828" lon="4.78771">
        <ele>216.8</ele>
      </trkpt>
      <trkpt lat="45.71836" lon="4.78719">
        <ele>224</ele>
        <time>2010-01-01T03:20:54Z</time>
      </trkpt>
      <trkpt lat="45.71858" lon="4.78713">
        <ele>216</ele>
      </trkpt>
      <trkpt lat="45.71903" lon="4.78673">
        <ele>222</ele>
        <time>2010-01-01T03:21:24Z</time>
      </trkpt>
      <trkpt lat="45.7192" lon="4.78649">
        <ele>222</ele>
        <time>2010-01-01T03:21:33Z</time>
      </trkpt>
      <trkpt lat="45.71937" lon="4.78621">
        <ele>222</ele>
        <time>2010-01-01T03:21:44Z</time>
      </trkpt>
      <trkpt lat="45.71942" lon="4.78627">
        <ele>222</ele>
        <time>2010-01-01T03:21:46Z</time>
      </trkpt>
      <trkpt lat="45.71953" lon="4.78624">
        <ele>222</ele>
        <time>2010-01-01T03:21:51Z</time>
      </trkpt>
      <trkpt lat="45.71953" lon="4.78625">
        <ele>222</ele>
        <time>2010-01-01T03:21:51Z</time>
      </trkpt>
      <trkpt lat="45.71973" lon="4.7862">
        <ele>191.4</ele>
      </trkpt>
      <trkpt lat="45.72008" lon="4.78615">
        <ele>211</ele>
        <time>2010-01-01T03:22:13Z</time>
      </trkpt>
      <trkpt lat="45.72022" lon="4.78619">
        <ele>207</ele>
        <time>2010-01-01T03:22:19Z</time>
      </trkpt>
      <trkpt lat="45.72036" lon="4.78645">
        <ele>199</ele>
        <time>2010-01-01T03:22:28Z</time>
      </trkpt>
      <trkpt lat="45.72043" lon="4.78694">
        <ele>198</ele>
        <time>2010-01-01T03:22:42Z</time>
      </trkpt>
      <trkpt lat="45.72056" lon="4.78739">
        <ele>177.8</ele>
      </trkpt>
      <trkpt lat="45.72068" lon="4.78771">
        <ele>188</ele>
        <time>2010-01-01T03:23:06Z</time>
      </trkpt>
      <trkpt lat="45.72069" lon="4.78817">
        <ele>175.1</ele>
      </trkpt>
      <trkpt lat="45.72074" lon="4.78857">
        <ele>185</ele>
        <time>2010-01-01T03:23:30Z</time>
      </trkpt>
      <trkpt lat="45.72083" lon="4.78908">
        <ele>184</ele>
        <time>2010-01-01T03:23:45Z</time>
      </trkpt>
      <trkpt lat="45.72099" lon="4.78951">
        <ele>183</ele>
        <time>2010-01-01T03:23:58Z</time>
      </trkpt>
      <trkpt lat="45.72105" lon="4.78986">
        <ele>182</ele>
        <time>2010-01-01T03:24:08Z</time>
      </trkpt>
      <trkpt lat="45.72098" lon="4.79035">
        <ele>188</ele>
        <time>2010-01-01T03:24:22Z</time>
      </trkpt>
      <trkpt lat="45.72095" lon="4.79077">
        <ele>172.8</ele>
      </trkpt>
      <trkpt lat="45.72091" lon="4.79139">
        <ele>187</ele>
        <time>2010-01-01T03:24:51Z</time>
      </trkpt>
      <trkpt lat="45.72102" lon="4.79175">
        <ele>179</ele>
        <time>2010-01-01T03:25:02Z</time>
      </trkpt>
      <trkpt lat="45.72119" lon="4.79226">
        <ele>173</ele>
        <time>2010-01-01T03:25:18Z</time>
      </trkpt>
      <trkpt lat="45.72128" lon="4.79244">
        <ele>172</ele>
        <time>2010-01-01T03:25:24Z</time>
      </trkpt>
      <trkpt lat="45.72127" lon="4.79244">
        <ele>172</ele>
        <time>2010-01-01T03:25:25Z</time>
      </trkpt>
      <trkpt lat="45.72137" lon="4.79262">
        <ele>172</ele>
        <time>2010-01-01T03:25:31Z</time>
      </trkpt>
      <trkpt lat="45.72131" lon="4.79347">
        <ele>171</ele>
        <time>2010-01-01T03:25:55Z</time>
      </trkpt>
      <trkpt lat="45.72128" lon="4.79365">
        <ele>172</ele>
        <time>2010-01-01T03:26:00Z</time>
      </trkpt>
      <trkpt lat="45.72133" lon="4.79368">
        <ele>172</ele>
        <time>2010-01-01T03:26:02Z</time>
      </trkpt>
      <trkpt lat="45.72149" lon="4.79368">
        <ele>172</ele>
        <time>2010-01-01T03:26:09Z</time>
      </trkpt>
      <trkpt lat="45.72151" lon="4.79344">
        <ele>174.3</ele>
      </trkpt>
      <trkpt lat="45.72152" lon="4.79306">
        <ele>174.2</ele>
      </trkpt>
      <trkpt lat="45.72157" lon="4.79258">
        <ele>173.8</ele>
      </trkpt>
      <trkpt lat="45.72162" lon="4.7921">
        <ele>171</ele>
        <time>2010-01-01T03:26:53Z</time>
      </trkpt>
      <trkpt lat="45.72182" lon="4.79226">
        <ele>177.2</ele>
      </trkpt>
      <trkpt lat="45.72208" lon="4.79236">
        <ele>181.3</ele>
      </trkpt>
      <trkpt lat="45.72234" lon="4.79247">
        <ele>185.3</ele>
      </trkpt>
      <trkpt lat="45.72262" lon="4.79257">
        <ele>175</ele>
        <time>2010-01-01T03:27:35Z</time>
      </trkpt>
      <trkpt lat="45.72266" lon="4.79264">
        <ele>176</ele>
        <time>2010-01-01T03:27:38Z</time>
      </trkpt>
      <trkpt lat="45.72274" lon="4.79291">
        <ele>177</ele>
        <time>2010-01-01T03:27:46Z</time>
      </trkpt>
      <trkpt lat="45.72323" lon="4.79315">
        <ele>185</ele>
        <time>2010-01-01T03:28:07Z</time>
      </trkpt>
      <trkpt lat="45.72374" lon="4.79359">
        <ele>193</ele>
        <time>2010-01-01T03:28:31Z</time>
      </trkpt>
      <trkpt lat="45.72397" lon="4.79384">
        <ele>196</ele>
        <time>2010-01-01T03:28:42Z</time>
      </trkpt>
      <trkpt lat="45.72434" lon="4.79406">
        <ele>202</ele>
        <time>2010-01-01T03:28:58Z</time>
      </trkpt>
      <trkpt lat="45.72428" lon="4.79429">
        <ele>201</ele>
        <time>2010-01-01T03:29:05Z</time>
      </trkpt>
      <trkpt lat="45.72438" lon="4.79442">
        <ele>203</ele>
        <time>2010-01-01T03:29:11Z</time>
      </trkpt>
      <trkpt lat="45.72451" lon="4.79476">
        <ele>227</ele>
      </trkpt>
      <trkpt lat="45.72475" lon="4.79529">
        <ele>233.7</ele>
      </trkpt>
      <trkpt lat="45.72495" lon="4.79569">
        <ele>217</ele>
        <time>2010-01-01T03:29:53Z</time>
      </trkpt>
      <trkpt lat="45.72499" lon="4.79593">
        <ele>218</ele>
        <time>2010-01-01T03:30:00Z</time>
      </trkpt>
      <trkpt lat="45.72498" lon="4.79609">
        <ele>219</ele>
        <time>2010-01-01T03:30:04Z</time>
      </trkpt>
      <trkpt lat="45.72492" lon="4.79637">
        <ele>221</ele>
        <time>2010-01-01T03:30:12Z</time>
      </trkpt>
      <trkpt lat="45.72483" lon="4.79654">
        <ele>221</ele>
        <time>2010-01-01T03:30:18Z</time>
      </trkpt>
      <trkpt lat="45.72461" lon="4.79686">
        <ele>238.2</ele>
      </trkpt>
      <trkpt lat="45.72444" lon="4.79712">
        <ele>218</ele>
        <time>2010-01-01T03:30:41Z</time>
      </trkpt>
      <trkpt lat="45.72433" lon="4.79739">
        <ele>219</ele>
        <time>2010-01-01T03:30:50Z</time>
      </trkpt>
      <trkpt lat="45.72418" lon="4.79791">
        <ele>232.2</ele>
      </trkpt>
      <trkpt lat="45.72402" lon="4.79837">
        <ele>220</ele>
        <time>2010-01-01T03:31:20Z</time>
      </trkpt>
      <trkpt lat="45.72436" lon="4.79829">
        <ele>235.2</ele>
      </trkpt>
      <trkpt lat="45.7246" lon="4.7983">
        <ele>228</ele>
        <time>2010-01-01T03:31:43Z</time>
      </trkpt>
      <trkpt lat="45.72481" lon="4.79828">
        <ele>243</ele>
      </trkpt>
      <trkpt lat="45.72511" lon="4.7983">
        <ele>248.1</ele>
      </trkpt>
      <trkpt lat="45.72546" lon="4.79828">
        <ele>254.5</ele>
      </trkpt>
      <trkpt lat="45.72581" lon="4.79825">
        <ele>261</ele>
      </trkpt>
      <trkpt lat="45.72614" lon="4.79821">
        <ele>253</ele>
        <time>2010-01-01T03:32:45Z</time>
      </trkpt>
      <trkpt lat="45.72617" lon="4.79861">
        <ele>251</ele>
        <time>2010-01-01T03:32:56Z</time>
      </trkpt>
      <trkpt lat="45.72617" lon="4.7986">
        <ele>251</ele>
        <time>2010-01-01T03:32:56Z</time>
      </trkpt>
      <trkpt lat="45.72619" lon="4.79885">
        <ele>251</ele>
        <time>2010-01-01T03:33:03Z</time>
      </trkpt>
      <trkpt lat="45.72625" lon="4.79915">
        <ele>251</ele>
        <time>2010-01-01T03:33:12Z</time>
      </trkpt>
      <trkpt lat="45.7262" lon="4.79958">
        <ele>263.4</ele>
      </trkpt>
      <trkpt lat="45.72626" lon="4.79989">
        <ele>250</ele>
        <time>2010-01-01T03:33:33Z</time>
      </trkpt>
      <trkpt lat="45.72635" lon="4.80027">
        <ele>263.9</ele>
      </trkpt>
      <trkpt lat="45.72642" lon="4.80047">
        <ele>252</ele>
        <time>2010-01-01T03:33:50Z</time>
      </trkpt>
      <trkpt lat="45.72654" lon="4.80082">
        <ele>264.1</ele>
      </trkpt>
      <trkpt lat="45.72668" lon="4.80109">
        <ele>252</ele>
        <time>2010-01-01T03:34:10Z</time>
      </trkpt>
      <trkpt lat="45.7267" lon="4.80122">
        <ele>252</ele>
        <time>2010-01-01T03:34:14Z</time>
      </trkpt>
      <trkpt lat="45.7266" lon="4.80179">
        <ele>257</ele>
      </trkpt>
      <trkpt lat="45.72649" lon="4.80229">
        <ele>248</ele>
        <time>2010-01-01T03:34:45Z</time>
      </trkpt>
      <trkpt lat="45.7264" lon="4.80279">
        <ele>252.3</ele>
      </trkpt>
      <trkpt lat="45.72635" lon="4.80314">
        <ele>245</ele>
        <time>2010-01-01T03:35:09Z</time>
      </trkpt>
      <trkpt lat="45.72627" lon="4.80353">
        <ele>247.6</ele>
      </trkpt>
      <trkpt lat="45.72612" lon="4.80405">
        <ele>243.2</ele>
      </trkpt>
      <trkpt lat="45.726" lon="4.80438">
        <ele>228</ele>
        <time>2010-01-01T03:35:47Z</time>
      </trkpt>
      <trkpt lat="45.72629" lon="4.80471">
        <ele>231</ele>
        <time>2010-01-01T03:36:02Z</time>
      </trkpt>
      <trkpt lat="45.7265" lon="4.80496">
        <ele>239.6</ele>
      </trkpt>
      <trkpt lat="45.72693" lon="4.80525">
        <ele>232</ele>
        <time>2010-01-01T03:36:31Z</time>
      </trkpt>
      <trkpt lat="45.72712" lon="4.80553">
        <ele>243.1</ele>
      </trkpt>
      <trkpt lat="45.72725" lon="4.80564">
        <ele>234</ele>
        <time>2010-01-01T03:36:48Z</time>
      </trkpt>
      <trkpt lat="45.72752" lon="4.80603">
        <ele>236</ele>
        <time>2010-01-01T03:37:04Z</time>
      </trkpt>
      <trkpt lat="45.72781" lon="4.80609">
        <ele>238</ele>
        <time>2010-01-01T03:37:15Z</time>
      </trkpt>
      <trkpt lat="45.72828" lon="4.80608">
        <ele>243</ele>
        <time>2010-01-01T03:37:34Z</time>
      </trkpt>
      <trkpt lat="45.72842" lon="4.80615">
        <ele>242</ele>
        <time>2010-01-01T03:37:40Z</time>
      </trkpt>
      <trkpt lat="45.72842" lon="4.80636">
        <ele>240</ele>
        <time>2010-01-01T03:37:46Z</time>
      </trkpt>
      <trkpt lat="45.72824" lon="4.80687">
        <ele>239</ele>
        <time>2010-01-01T03:38:02Z</time>
      </trkpt>
      <trkpt lat="45.72813" lon="4.80732">
        <ele>242</ele>
      </trkpt>
      <trkpt lat="45.72802" lon="4.80777">
        <ele>241.4</ele>
      </trkpt>
      <trkpt lat="45.72785" lon="4.80827">
        <ele>240</ele>
      </trkpt>
      <trkpt lat="45.7278" lon="4.8085">
        <ele>239</ele>
        <time>2010-01-01T03:38:51Z</time>
      </trkpt>
      <trkpt lat="45.72766" lon="4.80898">
        <ele>240.5</ele>
      </trkpt>
      <trkpt lat="45.72757" lon="4.80924">
        <ele>243</ele>
        <time>2010-01-01T03:39:13Z</time>
      </trkpt>
      <trkpt lat="45.72739" lon="4.80946">
        <ele>241.3</ele>
      </trkpt>
      <trkpt lat="45.72716" lon="4.80955">
        <ele>240.1</ele>
      </trkpt>
      <trkpt lat="45.72695" lon="4.80957">
        <ele>238.9</ele>
      </trkpt>
      <trkpt lat="45.72673" lon="4.80961">
        <ele>230</ele>
        <time>2010-01-01T03:39:49Z</time>
      </trkpt>
      <trkpt lat="45.72663" lon="4.80986">
        <ele>233.3</ele>
      </trkpt>
      <trkpt lat="45.72654" lon="4.81031">
        <ele>226</ele>
      </trkpt>
      <trkpt lat="45.72641" lon="4.81085">
        <ele>217.1</ele>
      </trkpt>
      <trkpt lat="45.72626" lon="4.81157">
        <ele>206</ele>
        <time>2010-01-01T03:40:47Z</time>
      </trkpt>
      <trkpt lat="45.72646" lon="4.81169">
        <ele>212.9</ele>
      </trkpt>
      <trkpt lat="45.72681" lon="4.8119">
        <ele>216.7</ele>
      </trkpt>
      <trkpt lat="45.72711" lon="4.81193">
        <ele>211</ele>
        <time>2010-01-01T03:41:23Z</time>
      </trkpt>
      <trkpt lat="45.72743" lon="4.81191">
        <ele>227.7</ele>
      </trkpt>
      <trkpt lat="45.7278" lon="4.81178">
        <ele>219</ele>
        <time>2010-01-01T03:41:50Z</time>
      </trkpt>
      <trkpt lat="45.72811" lon="4.81187">
        <ele>223</ele>
        <time>2010-01-01T03:42:03Z</time>
      </trkpt>
      <trkpt lat="45.72794" lon="4.81232">
        <ele>226.6</ele>
      </trkpt>
      <trkpt lat="45.72774" lon="4.8129">
        <ele>218.9</ele>
      </trkpt>
      <trkpt lat="45.72752" lon="4.81344">
        <ele>212.8</ele>
      </trkpt>
      <trkpt lat="45.72728" lon="4.81409">
        <ele>202.8</ele>
      </trkpt>
      <trkpt lat="45.72706" lon="4.81463">
        <ele>183</ele>
        <time>2010-01-01T03:43:31Z</time>
      </trkpt>
      <trkpt lat="45.72723" lon="4.8148">
        <ele>181</ele>
        <time>2010-01-01T03:43:39Z</time>
      </trkpt>
      <trkpt lat="45.72754" lon="4.81496">
        <ele>188.8</ele>
        <time>2010-01-01T03:43:43Z</time>
      </trkpt>
      <trkpt lat="45.72787" lon="4.81511">
        <ele>184.8</ele>
      </trkpt>
      <trkpt lat="45.7283" lon="4.8153">
        <ele>184</ele>
        <time>2010-01-01T03:44:27Z</time>
      </trkpt>
      <trkpt lat="45.7288" lon="4.8154">
        <ele>179</ele>
        <time>2010-01-01T03:44:48Z</time>
      </trkpt>
      <trkpt lat="45.72938" lon="4.81519">
        <ele>179</ele>
        <time>2010-01-01T03:45:11Z</time>
      </trkpt>
      <trkpt lat="45.72951" lon="4.81599">
        <ele>170</ele>
        <time>2010-01-01T03:45:35Z</time>
      </trkpt>
      <trkpt lat="45.73017" lon="4.81569">
        <ele>166</ele>
        <time>2010-01-01T03:46:02Z</time>
      </trkpt>
      <trkpt lat="45.73043" lon="4.81563">
        <ele>166</ele>
        <time>2010-01-01T03:46:13Z</time>
      </trkpt>
      <trkpt lat="45.7307" lon="4.81568">
        <ele>166</ele>
        <time>2010-01-01T03:46:24Z</time>
      </trkpt>
      <trkpt lat="45.73125" lon="4.81617">
        <ele>165.6</ele>
      </trkpt>
      <trkpt lat="45.7318" lon="4.81668">
        <ele>169.5</ele>
      </trkpt>
      <trkpt lat="45.7322" lon="4.81699">
        <ele>170</ele>
        <time>2010-01-01T03:47:34Z</time>
      </trkpt>
      <trkpt lat="45.73219" lon="4.81699">
        <ele>170</ele>
        <time>2010-01-01T03:47:35Z</time>
      </trkpt>
      <trkpt lat="45.73269" lon="4.81747">
        <ele>170</ele>
        <time>2010-01-01T03:47:59Z</time>
      </trkpt>
      <trkpt lat="45.73278" lon="4.81751">
        <ele>170</ele>
        <time>2010-01-01T03:48:02Z</time>
      </trkpt>
      <trkpt lat="45.73339" lon="4.81805">
        <ele>169</ele>
        <time>2010-01-01T03:48:31Z</time>
      </trkpt>
      <trkpt lat="45.7335" lon="4.81825">
        <ele>169</ele>
        <time>2010-01-01T03:48:38Z</time>
      </trkpt>
      <trkpt lat="45.73379" lon="4.81851">
        <ele>170</ele>
        <time>2010-01-01T03:48:52Z</time>
      </trkpt>
      <trkpt lat="45.73329" lon="4.81961">
        <ele>165</ele>
        <time>2010-01-01T03:49:29Z</time>
      </trkpt>
      <trkpt lat="45.73327" lon="4.81959">
        <ele>165</ele>
        <time>2010-01-01T03:49:30Z</time>
      </trkpt>
      <trkpt lat="45.73254" lon="4.82055">
        <ele>164</ele>
      </trkpt>
      <trkpt lat="45.73197" lon="4.82123">
        <ele>165</ele>
        <time>2010-01-01T03:50:39Z</time>
      </trkpt>
      <trkpt lat="45.73191" lon="4.82134">
        <ele>166</ele>
        <time>2010-01-01T03:50:43Z</time>
      </trkpt>
      <trkpt lat="45.73185" lon="4.8215">
        <ele>166</ele>
        <time>2010-01-01T03:50:48Z</time>
      </trkpt>
      <trkpt lat="45.73178" lon="4.82233">
        <ele>168.4</ele>
      </trkpt>
      <trkpt lat="45.73166" lon="4.82343">
        <ele>172.3</ele>
        <time>2010-01-01T03:50:48Z</time>
      </trkpt>
      <trkpt lat="45.7316" lon="4.82432">
        <ele>166.5</ele>
      </trkpt>
      <trkpt lat="45.73157" lon="4.82509">
        <ele>165.7</ele>
        <time>2010-01-01T03:50:48Z</time>
      </trkpt>
      <trkpt lat="45.73155" lon="4.82571">
        <ele>165.9</ele>
      </trkpt>
      <trkpt lat="45.73151" lon="4.82669">
        <ele>167</ele>
      </trkpt>
      <trkpt lat="45.73143" lon="4.82751">
        <ele>166.4</ele>
        <time>2010-01-01T03:50:48Z</time>
      </trkpt>
      <trkpt lat="45.73142" lon="4.82835">
        <ele>166</ele>
      </trkpt>
      <trkpt lat="45.73138" lon="4.82939">
        <ele>167.4</ele>
      </trkpt>
      <trkpt lat="45.73132" lon="4.83006">
        <ele>166.3</ele>
        <time>2010-01-01T03:50:48Z</time>
      </trkpt>
      <trkpt lat="45.73133" lon="4.8307">
        <ele>164.9</ele>
      </trkpt>
      <trkpt lat="45.73129" lon="4.83151">
        <ele>164.8</ele>
      </trkpt>
      <trkpt lat="45.73127" lon="4.83241">
        <ele>167.5</ele>
      </trkpt>
      <trkpt lat="45.73119" lon="4.83373">
        <ele>168.5</ele>
        <time>2010-01-01T03:50:48Z</time>
      </trkpt>
      <trkpt lat="45.73094" lon="4.83467">
        <ele>168.4</ele>
        <time>2010-01-01T03:50:48Z</time>
      </trkpt>
      <trkpt lat="45.73078" lon="4.83528">
        <ele>168.3</ele>
      </trkpt>
      <trkpt lat="45.73065" lon="4.83584">
        <ele>166.4</ele>
        <time>2010-01-01T03:50:48Z</time>
      </trkpt>
      <trkpt lat="45.73038" lon="4.83669">
        <ele>166</ele>
      </trkpt>
      <trkpt lat="45.73014" lon="4.83731">
        <ele>166.4</ele>
        <time>2010-01-01T03:50:48Z</time>
      </trkpt>
      <trkpt lat="45.72991" lon="4.83828">
        <ele>166.8</ele>
        <time>2010-01-01T03:50:48Z</time>
      </trkpt>
      <trkpt lat="45.72973" lon="4.84069">
        <ele>169.1</ele>
        <time>2010-01-01T03:50:48Z</time>
      </trkpt>
      <trkpt lat="45.72967" lon="4.84172">
        <ele>167.5</ele>
      </trkpt>
      <trkpt lat="45.72958" lon="4.8429">
        <ele>165.1</ele>
        <time>2010-01-01T03:50:48Z</time>
      </trkpt>
      <trkpt lat="45.7294" lon="4.84443">
        <ele>165.6</ele>
        <time>2010-01-01T03:50:48Z</time>
      </trkpt>
      <trkpt lat="45.72934" lon="4.84598">
        <ele>164.2</ele>
        <time>2010-01-01T03:50:48Z</time>
      </trkpt>
      <trkpt lat="45.72924" lon="4.84719">
        <ele>167.2</ele>
        <time>2010-01-01T03:50:48Z</time>
      </trkpt>
      <trkpt lat="45.72924" lon="4.84789">
        <ele>169.8</ele>
      </trkpt>
      <trkpt lat="45.72928" lon="4.84904">
        <ele>170.7</ele>
        <time>2010-01-01T03:50:48Z</time>
      </trkpt>
      <trkpt lat="45.72924" lon="4.8495">
        <ele>170.5</ele>
        <time>2010-01-01T03:50:48Z</time>
      </trkpt>
      <trkpt lat="45.72924" lon="4.85076">
        <ele>171.7</ele>
        <time>2010-01-01T03:50:48Z</time>
      </trkpt>
      <trkpt lat="45.72931" lon="4.85203">
        <ele>171.7</ele>
        <time>2010-01-01T03:50:48Z</time>
      </trkpt>
      <trkpt lat="45.72946" lon="4.85329">
        <ele>170.2</ele>
        <time>2010-01-01T03:50:48Z</time>
      </trkpt>
      <trkpt lat="45.72966" lon="4.85381">
        <ele>171.7</ele>
      </trkpt>
      <trkpt lat="45.72977" lon="4.85439">
        <ele>174.3</ele>
        <time>2010-01-01T03:50:48Z</time>
      </trkpt>
      <trkpt lat="45.72994" lon="4.85548">
        <ele>175.5</ele>
        <time>2010-01-01T03:50:48Z</time>
      </trkpt>
      <trkpt lat="45.73012" lon="4.85646">
        <ele>175.3</ele>
      </trkpt>
      <trkpt lat="45.73032" lon="4.85756">
        <ele>176.9</ele>
        <time>2010-01-01T03:50:48Z</time>
      </trkpt>
      <trkpt lat="45.73057" lon="4.8589">
        <ele>174.1</ele>
        <time>2010-01-01T03:50:48Z</time>
      </trkpt>
      <trkpt lat="45.73068" lon="4.85988">
        <ele>174.2</ele>
        <time>2010-01-01T03:50:48Z</time>
      </trkpt>
      <trkpt lat="45.73008" lon="4.86034">
        <ele>174.9</ele>
        <time>2010-01-01T03:50:48Z</time>
      </trkpt>
      <trkpt lat="45.72943" lon="4.86068">
        <ele>175.1</ele>
        <time>2010-01-01T03:50:48Z</time>
      </trkpt>
      <trkpt lat="45.72865" lon="4.86121">
        <ele>175.2</ele>
        <time>2010-01-01T03:50:48Z</time>
      </trkpt>
      <trkpt lat="45.72799" lon="4.86164">
        <ele>174.6</ele>
        <time>2010-01-01T03:50:48Z</time>
      </trkpt>
      <trkpt lat="45.72745" lon="4.8622">
        <ele>174.7</ele>
        <time>2010-01-01T03:50:48Z</time>
      </trkpt>
      <trkpt lat="45.72773" lon="4.86294">
        <ele>176.4</ele>
        <time>2010-01-01T03:50:48Z</time>
      </trkpt>
      <trkpt lat="45.72808" lon="4.86393">
        <ele>179</ele>
      </trkpt>
      <trkpt lat="45.72835" lon="4.86466">
        <ele>179.4</ele>
        <time>2010-01-01T03:50:48Z</time>
      </trkpt>
      <trkpt lat="45.72877" lon="4.86588">
        <ele>176.8</ele>
      </trkpt>
      <trkpt lat="45.72902" lon="4.86648">
        <ele>174.9</ele>
        <time>2010-01-01T03:50:48Z</time>
      </trkpt>
      <trkpt lat="45.72937" lon="4.86766">
        <ele>175.3</ele>
      </trkpt>
      <trkpt lat="45.72955" lon="4.86821">
        <ele>175.5</ele>
        <time>2010-01-01T03:50:48Z</time>
      </trkpt>
      <trkpt lat="45.73005" lon="4.86965">
        <ele>174.9</ele>
        <time>2010-01-01T03:50:48Z</time>
      </trkpt>
      <trkpt lat="45.73047" lon="4.87089">
        <ele>175.5</ele>
      </trkpt>
      <trkpt lat="45.73063" lon="4.87135">
        <ele>176</ele>
        <time>2010-01-01T03:50:48Z</time>
      </trkpt>
      <trkpt lat="45.731" lon="4.87248">
        <ele>177.6</ele>
      </trkpt>
      <trkpt lat="45.73126" lon="4.87307">
        <ele>177.7</ele>
        <time>2010-01-01T03:50:48Z</time>
      </trkpt>
      <trkpt lat="45.73153" lon="4.87401">
        <ele>180</ele>
        <time>2010-01-01T03:50:48Z</time>
      </trkpt>
      <trkpt lat="45.73192" lon="4.87518">
        <ele>177</ele>
        <time>2010-01-01T03:50:48Z</time>
      </trkpt>
      <trkpt lat="45.732" lon="4.87568">
        <ele>177.2</ele>
        <time>2010-01-01T03:50:48Z</time>
      </trkpt>
      <trkpt lat="45.73129" lon="4.87675">
        <ele>180.8</ele>
        <time>2010-01-01T03:50:48Z</time>
      </trkpt>
      <trkpt lat="45.73051" lon="4.87788">
        <ele>177.6</ele>
        <time>2010-01-01T03:50:48Z</time>
      </trkpt>
      <trkpt lat="45.72988" lon="4.87883">
        <ele>177.2</ele>
        <time>2010-01-01T03:50:48Z</time>
      </trkpt>
      <trkpt lat="45.72883" lon="4.88048">
        <ele>179.4</ele>
        <time>2010-01-01T03:50:48Z</time>
      </trkpt>
      <trkpt lat="45.7284" lon="4.88165">
        <ele>180.7</ele>
      </trkpt>
      <trkpt lat="45.72805" lon="4.8827">
        <ele>181.8</ele>
        <time>2010-01-01T03:50:48Z</time>
      </trkpt>
      <trkpt lat="45.72731" lon="4.88444">
        <ele>180.7</ele>
        <time>2010-01-01T03:50:48Z</time>
      </trkpt>
      <trkpt lat="45.72657" lon="4.88595">
        <ele>180.9</ele>
        <time>2010-01-01T03:50:48Z</time>
      </trkpt>
      <trkpt lat="45.72614" lon="4.88704">
        <ele>181.3</ele>
        <time>2010-01-01T03:50:48Z</time>
      </trkpt>
      <trkpt lat="45.72556" lon="4.88848">
        <ele>182.2</ele>
        <time>2010-01-01T03:50:48Z</time>
      </trkpt>
      <trkpt lat="45.72486" lon="4.89035">
        <ele>180.1</ele>
        <time>2010-01-01T03:50:48Z</time>
      </trkpt>
      <trkpt lat="45.72416" lon="4.89225">
        <ele>187.4</ele>
        <time>2010-01-01T03:50:48Z</time>
      </trkpt>
      <trkpt lat="45.72335" lon="4.89398">
        <ele>197.1</ele>
        <time>2010-01-01T03:50:48Z</time>
      </trkpt>
      <trkpt lat="45.72294" lon="4.89476">
        <ele>198.4</ele>
        <time>2010-01-01T03:50:48Z</time>
      </trkpt>
      <trkpt lat="45.72313" lon="4.8956">
        <ele>204.3</ele>
        <time>2010-01-01T03:50:48Z</time>
      </trkpt>
      <trkpt lat="45.72323" lon="4.89624">
        <ele>205.9</ele>
      </trkpt>
      <trkpt lat="45.72329" lon="4.89662">
        <ele>206.7</ele>
        <time>2010-01-01T03:50:48Z</time>
      </trkpt>
      <trkpt lat="45.72339" lon="4.89735">
        <ele>208.5</ele>
      </trkpt>
      <trkpt lat="45.72357" lon="4.89794">
        <ele>208</ele>
        <time>2010-01-01T03:50:48Z</time>
      </trkpt>
      <trkpt lat="45.72329" lon="4.89881">
        <ele>210.6</ele>
        <time>2010-01-01T03:50:48Z</time>
      </trkpt>
      <trkpt lat="45.72308" lon="4.89998">
        <ele>216</ele>
        <time>2010-01-01T03:50:48Z</time>
      </trkpt>
      <trkpt lat="45.72296" lon="4.90146">
        <ele>215</ele>
        <time>2010-01-01T03:50:48Z</time>
      </trkpt>
      <trkpt lat="45.72291" lon="4.90307">
        <ele>207.6</ele>
        <time>2010-01-01T03:50:48Z</time>
      </trkpt>
      <trkpt lat="45.72307" lon="4.90404">
        <ele>203.5</ele>
        <time>2010-01-01T03:50:48Z</time>
      </trkpt>
      <trkpt lat="45.72335" lon="4.90489">
        <ele>197.6</ele>
        <time>2010-01-01T03:50:48Z</time>
      </trkpt>
      <trkpt lat="45.72376" lon="4.90571">
        <ele>198.7</ele>
        <time>2010-01-01T03:50:48Z</time>
      </trkpt>
      <trkpt lat="45.72409" lon="4.90693">
        <ele>201.3</ele>
        <time>2010-01-01T03:50:48Z</time>
      </trkpt>
      <trkpt lat="45.72433" lon="4.90809">
        <ele>203</ele>
        <time>2010-01-01T03:50:48Z</time>
      </trkpt>
      <trkpt lat="45.72445" lon="4.90937">
        <ele>204.8</ele>
        <time>2010-01-01T03:50:48Z</time>
      </trkpt>
      <trkpt lat="45.72455" lon="4.91077">
        <ele>205.7</ele>
        <time>2010-01-01T03:50:48Z</time>
      </trkpt>
      <trkpt lat="45.72428" lon="4.91113">
        <ele>206.5</ele>
        <time>2010-01-01T03:50:48Z</time>
      </trkpt>
      <trkpt lat="45.72401" lon="4.91213">
        <ele>207.4</ele>
        <time>2010-01-01T03:50:48Z</time>
      </trkpt>
      <trkpt lat="45.7236" lon="4.91289">
        <ele>207.1</ele>
        <time>2010-01-01T03:50:48Z</time>
      </trkpt>
      <trkpt lat="45.72317" lon="4.91332">
        <ele>203.6</ele>
        <time>2010-01-01T03:50:48Z</time>
      </trkpt>
      <trkpt lat="45.72283" lon="4.91354">
        <ele>198.3</ele>
        <time>2010-01-01T03:50:48Z</time>
      </trkpt>
      <trkpt lat="45.72239" lon="4.91368">
        <ele>194</ele>
        <time>2010-01-01T03:50:48Z</time>
      </trkpt>
      <trkpt lat="45.72197" lon="4.91365">
        <ele>192.3</ele>
        <time>2010-01-01T03:50:48Z</time>
      </trkpt>
      <trkpt lat="45.72209" lon="4.91415">
        <ele>194</ele>
      </trkpt>
      <trkpt lat="45.72187" lon="4.9145">
        <ele>191.9</ele>
      </trkpt>
      <trkpt lat="45.72169" lon="4.91494">
        <ele>189.4</ele>
      </trkpt>
      <trkpt lat="45.72116" lon="4.91537">
        <ele>191.3</ele>
      </trkpt>
      <trkpt lat="45.72062" lon="4.91572">
        <ele>192</ele>
      </trkpt>
      <trkpt lat="45.71998" lon="4.91618">
        <ele>191.2</ele>
      </trkpt>
      <trkpt lat="45.71922" lon="4.91681">
        <ele>192.3</ele>
        <time>2010-01-01T03:50:48Z</time>
      </trkpt>
      <trkpt lat="45.71938" lon="4.91754">
        <ele>194.4</ele>
      </trkpt>
      <trkpt lat="45.71881" lon="4.91787">
        <ele>192.9</ele>
      </trkpt>
      <trkpt lat="45.7184" lon="4.91755">
        <ele>190.3</ele>
        <time>2010-01-01T03:50:48Z</time>
      </trkpt>
      <trkpt lat="45.71765" lon="4.91794">
        <ele>190</ele>
        <time>2010-01-01T03:50:48Z</time>
      </trkpt>
      <trkpt lat="45.71717" lon="4.91827">
        <ele>189.5</ele>
        <time>2010-01-01T03:50:48Z</time>
      </trkpt>
      <trkpt lat="45.71672" lon="4.91858">
        <ele>191.1</ele>
        <time>2010-01-01T03:50:48Z</time>
      </trkpt>
      <trkpt lat="45.7157" lon="4.91905">
        <ele>188.5</ele>
        <time>2010-01-01T03:50:48Z</time>
      </trkpt>
      <trkpt lat="45.71576" lon="4.91977">
        <ele>190.2</ele>
      </trkpt>
      <trkpt lat="45.71571" lon="4.92046">
        <ele>195</ele>
      </trkpt>
      <trkpt lat="45.71561" lon="4.92115">
        <ele>199.6</ele>
      </trkpt>
      <trkpt lat="45.71556" lon="4.92156">
        <ele>201.9</ele>
      </trkpt>
      <trkpt lat="45.71565" lon="4.92224">
        <ele>204.7</ele>
        <time>2010-01-01T03:50:48Z</time>
      </trkpt>
      <trkpt lat="45.7154" lon="4.92275">
        <ele>205.6</ele>
      </trkpt>
      <trkpt lat="45.715" lon="4.92318">
        <ele>207.9</ele>
      </trkpt>
      <trkpt lat="45.71463" lon="4.92367">
        <ele>206.6</ele>
      </trkpt>
      <trkpt lat="45.71431" lon="4.92402">
        <ele>205.4</ele>
      </trkpt>
      <trkpt lat="45.71388" lon="4.92437">
        <ele>203.9</ele>
      </trkpt>
      <trkpt lat="45.71367" lon="4.9245">
        <ele>203.6</ele>
      </trkpt>
      <trkpt lat="45.71349" lon="4.9244">
        <ele>202.1</ele>
      </trkpt>
      <trkpt lat="45.71307" lon="4.92486">
        <ele>206.1</ele>
      </trkpt>
      <trkpt lat="45.71264" lon="4.92543">
        <ele>209.3</ele>
      </trkpt>
      <trkpt lat="45.71214" lon="4.92625">
        <ele>210.6</ele>
      </trkpt>
      <trkpt lat="45.71163" lon="4.92687">
        <ele>211.5</ele>
      </trkpt>
      <trkpt lat="45.71121" lon="4.9273">
        <ele>209.8</ele>
        <time>2010-01-01T03:50:48Z</time>
      </trkpt>
      <trkpt lat="45.71075" lon="4.92787">
        <ele>208.5</ele>
        <time>2010-01-01T03:50:48Z</time>
      </trkpt>
      <trkpt lat="45.71046" lon="4.92852">
        <ele>208.9</ele>
      </trkpt>
      <trkpt lat="45.71005" lon="4.92923">
        <ele>210.8</ele>
        <time>2010-01-01T03:50:48Z</time>
      </trkpt>
      <trkpt lat="45.7097" lon="4.92989">
        <ele>210.9</ele>
      </trkpt>
      <trkpt lat="45.70929" lon="4.93076">
        <ele>209.3</ele>
        <time>2010-01-01T03:50:48Z</time>
      </trkpt>
      <trkpt lat="45.7089" lon="4.93123">
        <ele>208.8</ele>
      </trkpt>
      <trkpt lat="45.70865" lon="4.93173">
        <ele>209.4</ele>
      </trkpt>
      <trkpt lat="45.70848" lon="4.93232">
        <ele>209.5</ele>
      </trkpt>
      <trkpt lat="45.7084" lon="4.93284">
        <ele>210.5</ele>
      </trkpt>
      <trkpt lat="45.70844" lon="4.93345">
        <ele>211.2</ele>
      </trkpt>
      <trkpt lat="45.70845" lon="4.93412">
        <ele>208.6</ele>
      </trkpt>
      <trkpt lat="45.70849" lon="4.93471">
        <ele>210.8</ele>
      </trkpt>
      <trkpt lat="45.70868" lon="4.93513">
        <ele>212.5</ele>
      </trkpt>
      <trkpt lat="45.70866" lon="4.93568">
        <ele>214.8</ele>
      </trkpt>
      <trkpt lat="45.70864" lon="4.93643">
        <ele>218.5</ele>
      </trkpt>
      <trkpt lat="45.70873" lon="4.93716">
        <ele>220.3</ele>
      </trkpt>
      <trkpt lat="45.70884" lon="4.93797">
        <ele>220.3</ele>
      </trkpt>
      <trkpt lat="45.70894" lon="4.93862">
        <ele>219.1</ele>
      </trkpt>
      <trkpt lat="45.709" lon="4.93905">
        <ele>217.7</ele>
      </trkpt>
      <trkpt lat="45.70929" lon="4.93913">
        <ele>216.7</ele>
      </trkpt>
      <trkpt lat="45.70947" lon="4.93938">
        <ele>215.4</ele>
      </trkpt>
      <trkpt lat="45.70965" lon="4.93962">
        <ele>214.2</ele>
        <time>2010-01-01T03:50:48Z</time>
      </trkpt>
      <trkpt lat="45.71003" lon="4.93982">
        <ele>212.4</ele>
      </trkpt>
      <trkpt lat="45.71038" lon="4.93999">
        <ele>212</ele>
        <time>2010-01-01T03:50:48Z</time>
      </trkpt>
      <trkpt lat="45.71075" lon="4.94222">
        <ele>208.8</ele>
        <time>2010-01-01T03:50:48Z</time>
      </trkpt>
      <trkpt lat="45.71112" lon="4.94403">
        <ele>206.1</ele>
        <time>2010-01-01T03:50:48Z</time>
      </trkpt>
      <trkpt lat="45.71054" lon="4.9445">
        <ele>206.1</ele>
        <time>2010-01-01T03:50:48Z</time>
      </trkpt>
      <trkpt lat="45.70872" lon="4.9456">
        <ele>215.6</ele>
        <time>2010-01-01T03:50:48Z</time>
      </trkpt>
      <trkpt lat="45.70899" lon="4.94938">
        <ele>207.6</ele>
        <time>2010-01-01T03:50:48Z</time>
      </trkpt>
      <trkpt lat="45.70661" lon="4.94983">
        <ele>214.7</ele>
        <time>2010-01-01T03:50:48Z</time>
      </trkpt>
      <trkpt lat="45.70588" lon="4.94985">
        <ele>212.9</ele>
        <time>2010-01-01T03:50:48Z</time>
      </trkpt>
      <trkpt lat="45.70493" lon="4.95">
        <ele>214.2</ele>
        <time>2010-01-01T03:50:48Z</time>
      </trkpt>
      <trkpt lat="45.70323" lon="4.94979">
        <ele>219.7</ele>
        <time>2010-01-01T03:50:48Z</time>
      </trkpt>
      <trkpt lat="45.70207" lon="4.94943">
        <ele>219</ele>
        <time>2010-01-01T03:50:48Z</time>
      </trkpt>
      <trkpt lat="45.70099" lon="4.94915">
        <ele>219.8</ele>
        <time>2010-01-01T03:50:48Z</time>
      </trkpt>
      <trkpt lat="45.7002" lon="4.95096">
        <ele>222.5</ele>
        <time>2010-01-01T03:50:48Z</time>
      </trkpt>
    </trkseg>
  </trk>
</gpx>